[[{"header":{"parameterUnit":"m.s-1","parameterCategory":1,"la1":31.0,"la2":29.5877,"lo1":-88.7671,"lo2":-86.6584,"dx":0.0162,"dy":0.0185,"nx":115,"ny":88,"refTime":"2022-11-16T18:00:00:Z","depth":0,"parameterNumber":2,"parameterNumberName":"U-component_of_WINDS"},"data":[0.0,0.0,0.0,0.0,0.0,0.0,0.0,0.0,0.0,0.0,0.0,0.0,0.0,0.0,0.0,0.0,0.0,0.0,0.0,0.0,0.0,0.0,0.0,0.0,0.0,0.0,0.0,0.0,0.0,0.0,0.0,0.0,0.0,0.0,0.0,0.0,0.0,0.0,0.0,0.0,0.0,0.0,0.0,0.0,0.0,0.0,0.0,0.0,0.0,0.0,0.0,0.0,0.0,0.0,0.0,0.0,0.0,0.0,0.0,0.0,0.0,0.0,0.0,0.0,0.0,0.0,0.0,0.0,0.0,0.0,0.0,0.0,0.0,0.0,0.0,0.0,0.0,0.0,0.0,0.0,0.0,0.0,0.0,0.0,0.0,0.0,0.0,0.0,0.0,0.0,0.0,0.0,0.0,0.0,0.0,0.0,0.0,0.0,0.0,0.0,0.0,0.0,0.0,0.0,0.0,0.0,0.0,0.0,0.0,0.0,0.0,0.0,0.0,0.0,0.0,0.0,0.0,0.0,0.0,0.0,0.0,0.0,0.0,0.0,0.0,0.0,0.0,0.0,0.0,0.0,0.0,0.0,0.0,0.0,0.0,0.0,0.0,0.0,0.0,0.0,0.0,0.0,0.0,0.0,0.0,0.0,0.0,0.0,0.0,0.0,0.0,0.0,0.0,0.0,0.0,0.0,0.0,0.0,0.0,0.0,0.0,0.0,0.0,0.0,0.0,0.0,0.0,0.0,0.0,0.0,0.0,0.0,0.0,0.0,0.0,0.0,0.0,0.0,0.0,0.0,0.0,0.0,0.0,0.0,0.0,0.0,0.0,0.0,0.0,0.0,0.0,0.0,0.0,0.0,0.0,0.0,0.0,0.0,0.0,0.0,0.0,0.0,0.0,0.0,0.0,0.0,0.0,0.0,0.0,0.0,0.0,0.0,0.0,0.0,0.0,0.0,0.0,0.0,0.0,0.0,0.0,0.0,0.0,0.0,0.0,0.0,0.0,0.0,0.0,0.0,0.0,0.0,0.0,0.0,0.0,0.0,0.0,0.0,0.0,0.0,0.0,0.0,0.0,0.0,0.0,0.0,0.0,0.0,0.0,0.0,0.0,0.0,0.0,0.0,0.0,0.0,0.0,0.0,0.0,0.0,0.0,0.0,0.0,0.0,0.0,0.0,0.0,0.0,0.0,0.0,0.0,0.0,0.0,0.0,0.0,0.0,0.0,0.0,0.0,0.0,0.0,0.0,0.0,0.0,0.0,0.0,0.0,0.0,0.0,0.0,0.0,0.0,0.0,0.0,0.0,0.0,0.0,0.0,0.0,0.0,0.0,0.0,0.0,0.0,0.0,0.0,0.0,0.0,0.0,0.0,0.0,0.0,0.0,0.0,0.0,0.0,0.0,0.0,0.0,0.0,0.0,0.0,0.0,0.0,0.0,0.0,0.0,0.0,0.0,0.0,0.0,0.0,0.0,0.0,0.0,0.0,0.0,0.0,0.0,0.0,0.0,0.0,0.0,0.0,0.0,0.0,0.0,0.0,0.0,0.0,0.0,0.0,0.0,0.0,0.0,0.0,0.0,0.0,0.0,0.0,0.0,0.0,0.0,0.0,0.0,0.0,0.0,0.0,0.0,0.0,0.0,0.0,0.0,0.0,0.0,0.0,0.0,0.0,0.0,0.0,0.0,0.0,0.0,0.0,0.0,0.0,0.0,0.0,0.0,0.0,0.0,0.0,0.0,0.0,0.0,0.0,0.0,0.0,0.0,0.0,0.0,0.0,0.0,0.0,0.0,0.0,0.0,0.0,0.0,0.0,0.0,0.0,0.0,0.0,0.0,0.0,0.0,0.0,0.0,0.0,0.0,0.0,0.0,0.0,0.0,0.0,0.0,0.0,0.0,0.0,0.0,0.0,0.0,0.0,0.0,0.0,0.0,0.0,0.0,0.0,0.0,0.0,0.0,0.0,0.0,0.0,0.0,0.0,0.0,0.0,0.0,0.0,0.0,0.0,0.0,0.0,0.0,0.0,0.0,0.0,0.0,0.0,0.0,0.0,0.0,0.0,0.0,0.0,0.0,0.0,0.0,0.0,0.0,0.0,0.0,0.0,0.0,0.0,0.0,0.0,0.0,0.0,0.0,0.0,0.0,0.0,0.0,0.0,0.0,0.0,0.0,0.0,0.0,0.0,0.0,0.0,0.0,0.0,0.0,0.0,0.0,0.0,0.0,0.0,0.0,0.0,0.0,0.0,0.0,0.0,0.0,0.0,0.0,0.0,0.0,0.0,0.0,0.0,0.0,0.0,0.0,0.0,0.0,0.0,0.0,0.0,0.0,0.0,0.0,0.0,0.0,0.0,0.0,0.0,0.0,0.0,0.0,0.0,0.0,0.0,0.0,0.0,0.0,0.0,0.0,0.0,0.0,0.0,0.0,0.0,0.0,0.0,0.0,0.0,0.0,0.0,0.0,0.0,0.0,0.0,0.0,0.0,0.0,0.0,0.0,0.0,0.0,0.0,0.0,0.0,0.0,0.0,0.0,0.0,0.0,0.0,0.0,0.0,0.0,0.0,0.0,0.0,0.0,0.0,0.0,0.0,0.0,0.0,0.0,0.0,0.0,0.0,0.0,0.0,0.0,0.0,0.0,0.0,0.0,0.0,0.0,0.0,0.0,0.0,0.0,0.0,0.0,0.0,0.0,0.0,0.0,0.0,0.0,0.0,0.0,0.0,0.0,0.0,0.0,0.0,0.0,0.0,0.0,0.0,0.0,0.0,0.0,0.0,0.0,0.0,0.0,0.0,0.0,0.0,0.0,0.0,0.0,0.0,0.0,0.0,0.0,0.0,0.0,0.0,0.0,0.0,0.0,0.0,0.0,0.0,0.0,0.0,0.0,0.0,0.0,0.0,0.0,0.0,0.0,0.0,0.0,0.0,0.0,0.0,0.0,0.0,0.0,0.0,0.0,0.0,0.0,0.0,0.0,0.0,0.0,0.0,0.0,0.0,0.0,0.0,0.0,0.0,0.0,0.0,0.0,0.0,0.0,0.0,0.0,0.0,0.0,0.0,0.0,0.0,0.0,0.0,0.0,0.0,0.0,0.0,0.0,0.0,0.0,0.0,0.0,0.0,0.0,0.0,0.0,0.0,0.0,0.0,0.0,0.0,0.0,0.0,0.0,0.0,0.0,0.0,0.0,0.0,0.0,0.0,0.0,0.0,0.0,0.0,0.0,0.0,0.0,0.0,0.0,0.0,0.0,0.0,0.0,0.0,0.0,0.0,0.0,0.0,0.0,0.0,0.0,0.0,0.0,0.0,0.0,0.0,0.0,0.0,0.0,0.0,0.0,0.0,0.0,0.0,0.0,0.0,0.0,0.0,0.0,0.0,0.0,0.0,0.0,0.0,0.0,0.0,0.0,0.0,0.0,0.0,0.0,0.0,0.0,0.0,0.0,0.0,0.0,0.0,0.0,0.0,0.0,0.0,0.0,0.0,0.0,0.0,0.0,0.0,0.0,0.0,0.0,0.0,0.0,0.0,0.0,0.0,0.0,0.0,0.0,0.0,0.0,0.0,0.0,0.0,0.0,0.0,0.0,0.0,0.0,0.0,0.0,0.0,0.0,0.0,0.0,0.0,0.0,0.0,0.0,0.0,0.0,0.0,0.0,0.0,0.0,0.0,0.0,0.0,0.0,0.0,0.0,0.0,0.0,0.0,0.0,0.0,0.0,0.0,0.0,0.0,0.0,0.0,0.0,0.0,0.0,0.0,0.0,0.0,0.0,0.0,0.0,0.0,0.0,0.0,0.0,0.0,0.0,0.0,0.0,0.0,0.0,0.0,0.0,0.0,0.0,0.0,0.0,0.0,0.0,0.0,0.0,0.0,0.0,0.0,0.0,0.0,0.0,0.0,0.0,0.0,0.0,0.0,0.0,0.0,0.0,0.0,0.0,0.0,0.0,0.0,0.0,0.0,0.0,0.0,0.0,0.0,0.0,0.0,0.0,0.0,0.0,0.0,0.0,0.0,0.0,0.0,0.0,0.0,0.0,0.0,0.0,0.0,0.0,0.0,0.0,0.0,0.0,0.0,0.0,0.0,0.0,0.0,0.0,0.0,0.0,0.0,0.0,0.0,0.0,0.0,0.0,0.0,0.0,0.0,0.0,0.0,0.0,0.0,0.0,0.0,0.0,0.0,0.0,0.0,0.0,0.0,0.0,0.0,0.0,0.0,0.0,0.0,0.0,0.0,0.0,0.0,0.0,0.0,4.4662,0.0,0.0,0.0,4.2893,0.0,0.0,0.0,0.0,0.0,0.0,0.0,0.0,0.0,0.0,0.0,0.0,0.0,0.0,0.0,0.0,0.0,0.0,0.0,0.0,0.0,0.0,0.0,0.0,0.0,0.0,0.0,0.0,0.0,0.0,0.0,0.0,0.0,0.0,0.0,0.0,0.0,0.0,0.0,0.0,0.0,0.0,0.0,0.0,0.0,0.0,0.0,0.0,0.0,0.0,0.0,0.0,0.0,0.0,0.0,0.0,0.0,0.0,0.0,0.0,0.0,0.0,0.0,0.0,0.0,0.0,0.0,0.0,0.0,0.0,0.0,0.0,0.0,0.0,0.0,0.0,0.0,0.0,0.0,0.0,0.0,0.0,0.0,0.0,0.0,0.0,0.0,0.0,0.0,0.0,0.0,0.0,0.0,0.0,0.0,0.0,0.0,0.0,0.0,0.0,0.0,0.0,0.0,0.0,0.0,0.0,0.0,0.0,0.0,0.0,4.4701,4.5547,4.397,4.3085,4.3047,0.0,0.0,0.0,0.0,0.0,0.0,0.0,0.0,0.0,0.0,0.0,0.0,0.0,0.0,0.0,0.0,0.0,0.0,0.0,0.0,0.0,0.0,0.0,0.0,0.0,0.0,0.0,0.0,0.0,0.0,0.0,0.0,0.0,0.0,0.0,0.0,0.0,0.0,0.0,0.0,0.0,0.0,0.0,0.0,0.0,0.0,0.0,0.0,0.0,0.0,0.0,0.0,0.0,0.0,0.0,0.0,0.0,0.0,0.0,0.0,0.0,0.0,0.0,0.0,0.0,0.0,0.0,0.0,0.0,0.0,0.0,0.0,0.0,0.0,0.0,0.0,0.0,0.0,0.0,0.0,0.0,0.0,0.0,0.0,0.0,0.0,0.0,0.0,0.0,0.0,0.0,0.0,0.0,0.0,0.0,0.0,0.0,0.0,0.0,0.0,0.0,0.0,0.0,0.0,0.0,0.0,0.0,0.0,0.0,0.0,0.0,0.0,4.4239,4.3393,4.2761,0.0,0.0,0.0,0.0,0.0,0.0,0.0,0.0,0.0,0.0,0.0,0.0,0.0,0.0,0.0,0.0,0.0,0.0,0.0,0.0,0.0,0.0,0.0,0.0,0.0,0.0,0.0,0.0,0.0,0.0,0.0,0.0,0.0,0.0,0.0,0.0,0.0,0.0,0.0,0.0,0.0,0.0,0.0,0.0,0.0,0.0,0.0,0.0,0.0,0.0,0.0,0.0,0.0,0.0,0.0,0.0,0.0,0.0,0.0,0.0,0.0,0.0,0.0,0.0,0.0,0.0,0.0,0.0,0.0,0.0,0.0,0.0,0.0,0.0,0.0,0.0,0.0,0.0,0.0,0.0,0.0,0.0,0.0,0.0,0.0,0.0,0.0,0.0,0.0,0.0,0.0,0.0,0.0,0.0,0.0,0.0,0.0,0.0,0.0,0.0,0.0,0.0,0.0,0.0,0.0,0.0,0.0,0.0,0.0,0.0,4.5124,4.447,4.5009,0.0,4.203,0.0,0.0,0.0,0.0,0.0,0.0,0.0,0.0,0.0,0.0,0.0,0.0,0.0,0.0,0.0,0.0,0.0,0.0,0.0,0.0,0.0,0.0,0.0,0.0,0.0,0.0,0.0,0.0,0.0,0.0,0.0,0.0,0.0,0.0,0.0,0.0,0.0,0.0,0.0,0.0,0.0,0.0,0.0,0.0,0.0,0.0,0.0,0.0,0.0,0.0,0.0,0.0,0.0,0.0,0.0,0.0,0.0,0.0,0.0,0.0,0.0,0.0,0.0,0.0,0.0,0.0,0.0,0.0,0.0,0.0,0.0,0.0,0.0,0.0,0.0,0.0,0.0,0.0,0.0,0.0,0.0,0.0,0.0,0.0,0.0,0.0,0.0,0.0,0.0,0.0,0.0,0.0,0.0,0.0,0.0,0.0,0.0,0.0,0.0,0.0,0.0,0.0,0.0,0.0,0.0,0.0,0.0,0.0,0.0,0.0,4.5432,4.5086,4.447,4.3393,0.0,0.0,0.0,0.0,0.0,0.0,0.0,0.0,0.0,0.0,0.0,0.0,0.0,0.0,0.0,0.0,0.0,0.0,0.0,0.0,0.0,0.0,0.0,0.0,0.0,0.0,0.0,0.0,0.0,0.0,0.0,0.0,0.0,0.0,0.0,0.0,0.0,0.0,0.0,0.0,0.0,0.0,0.0,0.0,0.0,0.0,0.0,0.0,0.0,0.0,0.0,0.0,0.0,0.0,0.0,0.0,0.0,0.0,0.0,0.0,0.0,0.0,0.0,0.0,0.0,0.0,0.0,0.0,0.0,0.0,0.0,0.0,0.0,0.0,0.0,0.0,0.0,0.0,0.0,0.0,0.0,0.0,0.0,0.0,0.0,0.0,0.0,0.0,0.0,0.0,0.0,0.0,0.0,0.0,0.0,0.0,0.0,0.0,0.0,0.0,0.0,0.0,0.0,0.0,0.0,0.0,0.0,0.0,0.0,0.0,4.547,4.5586,4.5547,4.4393,4.3047,4.1508,0.0,0.0,0.0,0.0,0.0,0.0,0.0,0.0,0.0,0.0,0.0,0.0,0.0,0.0,0.0,0.0,0.0,0.0,0.0,0.0,0.0,0.0,0.0,0.0,0.0,0.0,0.0,0.0,0.0,0.0,0.0,0.0,0.0,0.0,0.0,0.0,0.0,0.0,0.0,0.0,0.0,0.0,0.0,0.0,0.0,0.0,0.0,0.0,0.0,0.0,0.0,0.0,0.0,0.0,0.0,0.0,0.0,0.0,0.0,0.0,0.0,0.0,0.0,0.0,0.0,0.0,0.0,0.0,0.0,0.0,0.0,0.0,0.0,0.0,0.0,0.0,0.0,0.0,0.0,0.0,0.0,0.0,0.0,0.0,0.0,0.0,0.0,0.0,0.0,0.0,0.0,0.0,0.0,0.0,0.0,0.0,0.0,0.0,0.0,0.0,0.0,0.0,0.0,0.0,0.0,0.0,0.0,0.0,4.4435,4.5163,4.5586,4.5586,4.5509,4.3932,0.0,0.0,0.0,0.0,0.0,0.0,0.0,0.0,0.0,0.0,0.0,0.0,0.0,0.0,0.0,0.0,0.0,0.0,0.0,0.0,0.0,0.0,0.0,0.0,0.0,0.0,0.0,0.0,0.0,0.0,0.0,0.0,0.0,0.0,0.0,0.0,0.0,0.0,0.0,0.0,0.0,0.0,0.0,0.0,0.0,0.0,0.0,0.0,0.0,0.0,0.0,0.0,0.0,0.0,0.0,0.0,0.0,0.0,0.0,0.0,0.0,0.0,0.0,0.0,0.0,0.0,0.0,0.0,0.0,0.0,0.0,0.0,0.0,0.0,0.0,0.0,0.0,0.0,0.0,0.0,0.0,0.0,0.0,0.0,0.0,0.0,0.0,0.0,0.0,0.0,0.0,0.0,0.0,0.0,0.0,0.0,0.0,0.0,0.0,0.0,0.0,0.0,0.0,0.0,0.0,0.0,0.0,0.0,0.0,4.5163,4.5432,4.5586,4.5547,4.4047,4.2316,0.0,0.0,0.0,0.0,0.0,0.0,0.0,0.0,0.0,0.0,0.0,0.0,0.0,0.0,0.0,0.0,0.0,0.0,0.0,0.0,0.0,0.0,0.0,0.0,0.0,0.0,0.0,0.0,0.0,0.0,0.0,0.0,0.0,0.0,0.0,0.0,0.0,0.0,0.0,0.0,0.0,0.0,0.0,0.0,0.0,0.0,0.0,0.0,0.0,0.0,0.0,0.0,0.0,0.0,0.0,0.0,0.0,0.0,0.0,0.0,0.0,0.0,0.0,0.0,0.0,0.0,0.0,0.0,0.0,0.0,0.0,0.0,0.0,0.0,0.0,0.0,0.0,0.0,0.0,0.0,0.0,0.0,0.0,0.0,0.0,0.0,0.0,0.0,0.0,0.0,0.0,0.0,0.0,0.0,0.0,0.0,0.0,0.0,0.0,0.0,0.0,0.0,0.0,0.0,0.0,0.0,0.0,0.0,0.0,4.5163,4.547,4.547,4.5124,4.3547,4.1816,0.0,0.0,0.0,0.0,0.0,0.0,0.0,0.0,0.0,0.0,0.0,0.0,0.0,0.0,0.0,0.0,0.0,0.0,0.0,0.0,0.0,0.0,0.0,0.0,0.0,0.0,0.0,0.0,0.0,0.0,0.0,0.0,0.0,0.0,0.0,0.0,0.0,0.0,0.0,0.0,0.0,0.0,0.0,0.0,0.0,0.0,0.0,0.0,0.0,0.0,0.0,0.0,0.0,0.0,0.0,0.0,0.0,0.0,0.0,0.0,0.0,0.0,0.0,0.0,0.0,0.0,0.0,0.0,0.0,0.0,0.0,0.0,0.0,0.0,0.0,0.0,0.0,0.0,0.0,0.0,0.0,0.0,0.0,0.0,0.0,0.0,0.0,0.0,0.0,0.0,0.0,0.0,0.0,0.0,0.0,0.0,0.0,0.0,0.0,0.0,0.0,0.0,0.0,0.0,0.0,0.0,0.0,0.0,4.3547,4.4316,4.5163,4.524,4.4355,4.4201,4.2662,0.0,0.0,0.0,0.0,0.0,0.0,0.0,0.0,0.0,0.0,0.0,0.0,0.0,0.0,0.0,0.0,0.0,0.0,0.0,0.0,0.0,0.0,0.0,0.0,0.0,0.0,0.0,0.0,0.0,0.0,0.0,0.0,0.0,0.0,0.0,0.0,0.0,0.0,0.0,0.0,0.0,0.0,0.0,0.0,0.0,0.0,0.0,0.0,0.0,0.0,0.0,0.0,0.0,0.0,0.0,0.0,0.0,0.0,0.0,0.0,0.0,0.0,0.0,0.0,0.0,0.0,0.0,0.0,0.0,0.0,0.0,0.0,0.0,0.0,0.0,0.0,0.0,0.0,0.0,0.0,0.0,0.0,0.0,0.0,0.0,0.0,0.0,0.0,0.0,0.0,0.0,0.0,0.0,0.0,0.0,0.0,0.0,0.0,0.0,0.0,0.0,0.0,0.0,0.0,0.0,0.0,0.0,0.0,0.0,4.4316,4.5163,4.547,4.5163,4.3508,4.1816,0.0,0.0,0.0,0.0,0.0,0.0,0.0,0.0,0.0,0.0,0.0,0.0,0.0,0.0,0.0,0.0,0.0,0.0,0.0,0.0,0.0,0.0,0.0,0.0,0.0,0.0,0.0,0.0,0.0,0.0,0.0,0.0,0.0,0.0,0.0,0.0,0.0,0.0,0.0,0.0,0.0,0.0,0.0,0.0,0.0,0.0,0.0,0.0,0.0,0.0,0.0,0.0,0.0,0.0,0.0,0.0,0.0,0.0,0.0,0.0,0.0,0.0,0.0,0.0,0.0,0.0,0.0,0.0,0.0,0.0,0.0,0.0,0.0,0.0,0.0,0.0,0.0,0.0,0.0,0.0,0.0,0.0,0.0,0.0,0.0,0.0,0.0,0.0,0.0,0.0,0.0,0.0,0.0,0.0,0.0,0.0,0.0,0.0,0.0,0.0,0.0,0.0,0.0,0.0,0.0,0.0,0.0,0.0,0.0,4.574,4.6547,4.6855,4.6547,4.4701,4.2701,4.0546,0.0,0.0,0.0,0.0,0.0,0.0,0.0,0.0,0.0,0.0,0.0,0.0,0.0,0.0,0.0,0.0,0.0,0.0,0.0,0.0,0.0,0.0,0.0,0.0,0.0,0.0,0.0,0.0,0.0,0.0,0.0,0.0,0.0,0.0,0.0,0.0,0.0,0.0,0.0,0.0,0.0,0.0,0.0,0.0,0.0,0.0,0.0,0.0,0.0,0.0,0.0,0.0,0.0,0.0,0.0,0.0,0.0,0.0,0.0,0.0,0.0,0.0,0.0,0.0,0.0,0.0,0.0,0.0,0.0,0.0,0.0,0.0,0.0,0.0,0.0,0.0,0.0,0.0,0.0,0.0,0.0,0.0,0.0,0.0,0.0,0.0,0.0,0.0,0.0,0.0,0.0,0.0,0.0,0.0,0.0,0.0,0.0,0.0,0.0,0.0,0.0,0.0,0.0,0.0,0.0,0.0,0.0,0.0,4.8471,4.9394,4.9433,4.8432,4.7394,4.497,0.0,0.0,0.0,0.0,0.0,0.0,0.0,0.0,0.0,0.0,0.0,0.0,0.0,0.0,0.0,0.0,0.0,0.0,0.0,0.0,0.0,0.0,0.0,0.0,0.0,0.0,0.0,0.0,0.0,0.0,0.0,0.0,0.0,0.0,0.0,0.0,0.0,0.0,0.0,0.0,0.0,0.0,0.0,0.0,0.0,0.0,0.0,0.0,0.0,0.0,0.0,0.0,0.0,0.0,0.0,0.0,0.0,0.0,0.0,0.0,0.0,0.0,0.0,0.0,0.0,0.0,0.0,0.0,0.0,0.0,0.0,0.0,0.0,0.0,0.0,0.0,0.0,0.0,0.0,0.0,0.0,0.0,0.0,0.0,0.0,0.0,0.0,0.0,0.0,0.0,0.0,0.0,0.0,0.0,0.0,0.0,0.0,0.0,0.0,0.0,0.0,0.0,0.0,0.0,0.0,0.0,0.0,0.0,0.0,5.2741,5.4895,5.4647,5.1915,4.8643,4.6065,0.0,0.0,0.0,0.0,0.0,0.0,0.0,0.0,0.0,0.0,0.0,0.0,0.0,0.0,0.0,0.0,0.0,0.0,0.0,0.0,0.0,0.0,0.0,0.0,0.0,0.0,0.0,0.0,0.0,0.0,0.0,0.0,0.0,0.0,0.0,0.0,0.0,0.0,0.0,0.0,0.0,0.0,0.0,0.0,0.0,0.0,0.0,0.0,0.0,0.0,0.0,0.0,0.0,0.0,0.0,0.0,0.0,0.0,0.0,0.0,0.0,0.0,0.0,0.0,0.0,0.0,0.0,0.0,0.0,0.0,0.0,0.0,0.0,0.0,0.0,0.0,0.0,0.0,0.0,0.0,0.0,0.0,0.0,0.0,0.0,0.0,0.0,0.0,0.0,0.0,0.0,0.0,0.0,0.0,0.0,0.0,0.0,0.0,0.0,0.0,0.0,0.0,0.0,0.0,0.0,0.0,0.0,0.0,5.2141,5.4972,5.855,5.9435,5.7516,5.2684,4.8836,0.0,0.0,0.0,0.0,0.0,0.0,0.0,0.0,0.0,0.0,0.0,0.0,0.0,0.0,0.0,0.0,0.0,0.0,0.0,0.0,0.0,0.0,0.0,0.0,0.0,0.0,0.0,0.0,0.0,0.0,0.0,0.0,0.0,0.0,0.0,0.0,0.0,0.0,0.0,0.0,0.0,0.0,0.0,0.0,0.0,0.0,0.0,0.0,0.0,0.0,0.0,0.0,0.0,0.0,0.0,0.0,0.0,0.0,0.0,0.0,0.0,0.0,0.0,0.0,0.0,0.0,0.0,0.0,0.0,0.0,0.0,0.0,0.0,0.0,0.0,0.0,0.0,0.0,0.0,0.0,0.0,0.0,0.0,0.0,0.0,0.0,0.0,0.0,0.0,0.0,0.0,0.0,0.0,0.0,0.0,0.0,0.0,0.0,0.0,0.0,0.0,0.0,0.0,0.0,0.0,0.0,0.0,0.0,5.5028,5.6126,6.0973,6.3512,6.3257,5.7665,5.2318,0.0,0.0,0.0,0.0,0.0,0.0,0.0,0.0,0.0,0.0,0.0,0.0,0.0,0.0,0.0,0.0,0.0,0.0,0.0,0.0,0.0,0.0,0.0,0.0,0.0,0.0,0.0,0.0,0.0,0.0,0.0,0.0,0.0,0.0,0.0,0.0,0.0,0.0,0.0,0.0,0.0,0.0,0.0,0.0,0.0,0.0,0.0,0.0,0.0,0.0,0.0,0.0,0.0,0.0,0.0,0.0,0.0,0.0,0.0,0.0,0.0,0.0,0.0,0.0,0.0,0.0,0.0,0.0,0.0,0.0,0.0,0.0,0.0,0.0,0.0,0.0,0.0,0.0,0.0,0.0,0.0,0.0,0.0,0.0,0.0,0.0,0.0,0.0,0.0,0.0,0.0,0.0,0.0,0.0,0.0,0.0,0.0,0.0,0.0,0.0,0.0,0.0,0.0,0.0,0.0,0.0,0.0,0.0,5.5868,5.8704,6.3051,6.5013,6.432,5.7934,5.3685,0.0,0.0,0.0,0.0,0.0,0.0,0.0,0.0,0.0,0.0,0.0,0.0,0.0,0.0,0.0,0.0,0.0,0.0,0.0,0.0,0.0,0.0,0.0,0.0,0.0,0.0,0.0,0.0,0.0,0.0,0.0,0.0,0.0,0.0,0.0,0.0,0.0,0.0,0.0,0.0,0.0,0.0,0.0,0.0,0.0,0.0,0.0,0.0,4.1625,0.0,0.0,0.0,0.0,0.0,0.0,0.0,0.0,0.0,0.0,0.0,0.0,0.0,0.0,0.0,0.0,0.0,0.0,0.0,0.0,0.0,0.0,0.0,0.0,0.0,0.0,0.0,0.0,0.0,0.0,0.0,0.0,0.0,0.0,0.0,0.0,0.0,0.0,0.0,0.0,0.0,0.0,0.0,0.0,0.0,0.0,0.0,0.0,0.0,0.0,0.0,0.0,0.0,0.0,0.0,0.0,0.0,0.0,0.0,5.7512,6.1204,6.4666,6.6436,6.6205,6.1358,5.6917,0.0,0.0,0.0,0.0,0.0,0.0,0.0,0.0,0.0,0.0,0.0,0.0,0.0,0.0,0.0,0.0,0.0,0.0,0.0,0.0,0.0,0.0,0.0,0.0,0.0,0.0,0.0,0.0,0.0,0.0,0.0,0.0,0.0,0.0,0.0,0.0,0.0,0.0,0.0,0.0,0.0,0.0,0.0,0.0,0.0,0.0,0.0,0.0,0.0,0.0,0.0,0.0,0.0,0.0,0.0,0.0,0.0,0.0,0.0,0.0,0.0,0.0,0.0,0.0,0.0,0.0,0.0,0.0,0.0,0.0,0.0,0.0,0.0,0.0,0.0,0.0,0.0,0.0,0.0,0.0,0.0,0.0,0.0,0.0,0.0,0.0,0.0,0.0,0.0,0.0,0.0,0.0,0.0,0.0,0.0,0.0,0.0,0.0,0.0,0.0,0.0,0.0,0.0,0.0,0.0,0.0,0.0,5.5278,5.91,6.3743,6.6244,6.7898,6.8706,6.559,6.0781,5.4241,0.0,0.0,0.0,0.0,0.0,0.0,0.0,0.0,0.0,0.0,0.0,0.0,0.0,0.0,0.0,0.0,0.0,0.0,0.0,0.0,0.0,0.0,0.0,0.0,0.0,0.0,0.0,0.0,0.0,0.0,0.0,0.0,0.0,0.0,0.0,0.0,0.0,0.0,4.2727,4.324,0.0,0.0,0.0,0.0,0.0,0.0,0.0,0.0,4.3278,0.0,0.0,0.0,0.0,0.0,0.0,0.0,0.0,0.0,0.0,0.0,0.0,0.0,0.0,0.0,0.0,0.0,0.0,0.0,0.0,0.0,0.0,0.0,0.0,0.0,0.0,0.0,0.0,0.0,0.0,0.0,0.0,0.0,0.0,0.0,0.0,0.0,0.0,0.0,0.0,0.0,0.0,0.0,0.0,0.0,0.0,0.0,0.0,0.0,0.0,0.0,0.0,0.0,0.0,0.0,0.0,5.401,5.527,5.9358,6.6282,6.8321,6.9667,7.036,6.7898,6.3628,5.7703,0.0,0.0,0.0,0.0,0.0,0.0,0.0,0.0,0.0,0.0,0.0,0.0,0.0,0.0,0.0,0.0,0.0,0.0,0.0,0.0,0.0,0.0,0.0,0.0,0.0,0.0,0.0,0.0,0.0,0.0,0.0,0.0,0.0,0.0,0.0,0.0,0.0,0.0,0.0,4.4268,4.4048,0.0,0.0,0.0,0.0,0.0,0.0,0.0,0.0,4.3671,0.0,0.0,0.0,0.0,0.0,0.0,0.0,0.0,0.0,0.0,0.0,0.0,0.0,0.0,0.0,0.0,0.0,0.0,0.0,0.0,0.0,0.0,0.0,0.0,0.0,0.0,0.0,0.0,0.0,0.0,0.0,0.0,0.0,0.0,0.0,0.0,0.0,0.0,0.0,0.0,0.0,0.0,0.0,0.0,0.0,0.0,0.0,0.0,0.0,0.0,0.0,0.0,0.0,0.0,0.0,5.5011,5.7695,6.2068,6.8205,6.9667,7.0937,7.2129,6.8898,6.4551,0.0,0.0,0.0,0.0,0.0,0.0,0.0,0.0,0.0,0.0,0.0,0.0,0.0,0.0,0.0,0.0,0.0,0.0,0.0,0.0,0.0,0.0,0.0,0.0,0.0,0.0,0.0,0.0,0.0,0.0,0.0,0.0,0.0,0.0,0.0,0.0,0.0,0.0,0.0,0.0,4.5333,4.5663,4.6434,0.0,0.0,0.0,0.0,0.0,0.0,4.4835,4.4549,0.0,0.0,0.0,0.0,0.0,0.0,0.0,0.0,0.0,0.0,0.0,0.0,0.0,0.0,0.0,0.0,0.0,0.0,0.0,0.0,0.0,0.0,0.0,0.0,0.0,0.0,0.0,0.0,0.0,0.0,0.0,0.0,0.0,0.0,0.0,0.0,0.0,0.0,0.0,0.0,0.0,0.0,0.0,0.0,0.0,0.0,0.0,0.0,0.0,0.0,0.0,0.0,0.0,0.0,0.0,5.5703,5.9906,6.4653,6.9667,7.0744,7.2091,7.3822,6.936,6.4628,0.0,0.0,0.0,0.0,0.0,0.0,0.0,0.0,0.0,0.0,0.0,0.0,0.0,0.0,0.0,0.0,0.0,0.0,0.0,0.0,0.0,0.0,0.0,0.0,0.0,0.0,0.0,0.0,0.0,0.0,0.0,0.0,0.0,0.0,0.0,0.0,0.0,0.0,0.0,0.0,0.0,4.7316,4.7572,4.739,0.0,0.0,0.0,0.0,4.5892,4.6109,0.0,0.0,0.0,0.0,0.0,0.0,0.0,0.0,0.0,0.0,0.0,0.0,0.0,0.0,0.0,0.0,0.0,0.0,0.0,0.0,0.0,0.0,0.0,0.0,0.0,0.0,0.0,0.0,0.0,0.0,0.0,0.0,0.0,0.0,0.0,0.0,0.0,0.0,0.0,0.0,0.0,0.0,0.0,0.0,0.0,0.0,0.0,0.0,0.0,0.0,0.0,0.0,0.0,0.0,0.0,0.0,5.5703,5.9906,6.4922,7.0475,7.1591,7.3206,7.5553,6.9436,6.4359,0.0,0.0,0.0,0.0,0.0,0.0,0.0,0.0,0.0,0.0,0.0,0.0,0.0,0.0,0.0,0.0,0.0,0.0,0.0,0.0,0.0,0.0,0.0,0.0,0.0,0.0,0.0,0.0,0.0,0.0,0.0,0.0,0.0,0.0,0.0,0.0,0.0,0.0,0.0,0.0,0.0,4.811,4.9154,4.8416,4.7516,0.0,0.0,4.7166,4.7392,4.8688,0.0,0.0,0.0,0.0,0.0,0.0,0.0,0.0,0.0,0.0,0.0,0.0,0.0,0.0,0.0,0.0,0.0,0.0,0.0,0.0,0.0,0.0,0.0,0.0,0.0,0.0,0.0,0.0,0.0,0.0,0.0,0.0,0.0,0.0,0.0,0.0,0.0,0.0,0.0,0.0,0.0,0.0,0.0,0.0,0.0,0.0,0.0,0.0,0.0,0.0,0.0,0.0,0.0,0.0,0.0,5.4034,5.6511,6.2054,6.7088,7.1475,7.2514,7.3937,7.5938,6.986,6.4743,0.0,0.0,0.0,0.0,0.0,0.0,0.0,0.0,0.0,0.0,0.0,0.0,0.0,0.0,0.0,0.0,0.0,0.0,0.0,0.0,0.0,0.0,0.0,0.0,0.0,0.0,0.0,0.0,0.0,0.0,0.0,0.0,0.0,0.0,0.0,0.0,0.0,0.0,0.0,0.0,0.0,0.0,5.0247,5.006,0.0,0.0,0.0,4.8677,4.8124,0.0,0.0,0.0,0.0,0.0,0.0,0.0,0.0,0.0,0.0,0.0,0.0,0.0,0.0,0.0,0.0,0.0,0.0,0.0,0.0,0.0,0.0,0.0,0.0,0.0,0.0,0.0,0.0,0.0,0.0,0.0,0.0,0.0,0.0,0.0,0.0,0.0,0.0,0.0,0.0,0.0,0.0,0.0,0.0,0.0,0.0,0.0,0.0,0.0,0.0,0.0,0.0,0.0,0.0,0.0,0.0,0.0,5.7088,6.3872,6.8987,7.2091,7.3053,7.4322,7.5822,7.0629,0.0,0.0,0.0,0.0,0.0,0.0,0.0,0.0,0.0,0.0,0.0,0.0,0.0,0.0,0.0,0.0,0.0,0.0,0.0,0.0,0.0,0.0,0.0,0.0,0.0,0.0,0.0,3.4169,0.0,0.0,0.0,0.0,0.0,0.0,0.0,0.0,0.0,0.0,0.0,0.0,0.0,0.0,5.2027,5.1767,5.2033,5.2432,0.0,0.0,5.0666,5.0268,5.2156,5.2451,0.0,0.0,0.0,0.0,0.0,0.0,0.0,0.0,0.0,0.0,0.0,0.0,0.0,0.0,0.0,0.0,0.0,0.0,0.0,0.0,0.0,0.0,0.0,0.0,0.0,0.0,0.0,0.0,0.0,0.0,0.0,0.0,0.0,0.0,0.0,0.0,0.0,0.0,0.0,0.0,0.0,0.0,0.0,0.0,0.0,0.0,0.0,0.0,0.0,0.0,0.0,0.0,0.0,0.0,0.0,5.7165,6.4462,6.9575,7.2129,7.3053,7.4284,7.5861,7.1822,6.6782,0.0,0.0,0.0,0.0,0.0,0.0,0.0,0.0,0.0,0.0,0.0,0.0,0.0,0.0,0.0,0.0,0.0,0.0,0.0,0.0,0.0,0.0,0.0,0.0,0.0,0.0,0.0,0.0,0.0,0.0,0.0,0.0,0.0,0.0,0.0,0.0,0.0,0.0,0.0,0.0,0.0,5.3895,5.4201,5.4314,5.495,0.0,0.0,5.3184,5.5012,5.6064,5.548,5.1772,0.0,0.0,0.0,0.0,0.0,0.0,0.0,0.0,0.0,0.0,0.0,0.0,0.0,0.0,0.0,0.0,0.0,0.0,0.0,0.0,0.0,0.0,0.0,0.0,0.0,0.0,0.0,0.0,0.0,0.0,0.0,0.0,0.0,0.0,0.0,0.0,0.0,0.0,0.0,0.0,0.0,0.0,0.0,0.0,0.0,0.0,0.0,0.0,0.0,0.0,0.0,0.0,0.0,5.6078,5.7857,6.5333,7.0448,7.2899,7.3322,7.4322,7.5938,7.2899,6.8706,0.0,0.0,0.0,0.0,0.0,0.0,0.0,0.0,0.0,0.0,0.0,0.0,0.0,0.0,0.0,0.0,0.0,0.0,0.0,0.0,0.0,0.0,0.0,0.0,0.0,0.0,0.0,0.0,4.1016,4.1521,4.1668,0.0,0.0,0.0,0.0,0.0,0.0,0.0,0.0,0.0,0.0,5.4613,5.6575,5.7118,0.0,0.0,5.691,5.5337,5.5385,5.5203,5.3828,5.012,4.7903,0.0,0.0,0.0,0.0,0.0,0.0,0.0,0.0,0.0,0.0,0.0,0.0,0.0,0.0,0.0,0.0,0.0,0.0,0.0,0.0,0.0,0.0,0.0,0.0,0.0,0.0,0.0,0.0,0.0,0.0,0.0,0.0,0.0,0.0,0.0,0.0,0.0,0.0,0.0,0.0,0.0,0.0,0.0,0.0,0.0,0.0,0.0,0.0,0.0,0.0,0.0,0.0,5.656,5.8319,6.5833,7.0948,7.3476,7.3514,7.4284,7.5861,7.4014,7.0552,0.0,0.0,0.0,0.0,0.0,0.0,0.0,0.0,0.0,0.0,0.0,0.0,0.0,0.0,0.0,0.0,0.0,0.0,0.0,0.0,0.0,0.0,0.0,0.0,0.0,0.0,0.0,0.0,4.3082,4.3361,4.3042,0.0,0.0,0.0,0.0,0.0,0.0,0.0,0.0,0.0,0.0,5.6036,5.8335,5.8642,5.8803,5.9387,5.743,5.5654,5.505,5.4538,5.3237,5.0266,0.0,0.0,0.0,0.0,0.0,0.0,0.0,0.0,0.0,0.0,0.0,0.0,0.0,0.0,0.0,0.0,0.0,0.0,0.0,0.0,0.0,0.0,0.0,0.0,0.0,0.0,0.0,0.0,0.0,0.0,4.0662,0.0,0.0,0.0,0.0,0.0,0.0,0.0,0.0,0.0,0.0,0.0,0.0,0.0,0.0,0.0,0.0,0.0,0.0,0.0,0.0,0.0,0.0,5.6559,5.8357,6.5833,7.0948,7.3399,7.3514,7.4284,7.5861,7.513,7.2245,6.7128,0.0,0.0,0.0,0.0,0.0,0.0,0.0,0.0,0.0,0.0,0.0,0.0,0.0,0.0,0.0,0.0,0.0,0.0,0.0,0.0,0.0,0.0,0.0,0.0,0.0,0.0,3.8546,4.0825,4.2737,0.0,0.0,0.0,0.0,0.0,0.0,0.0,0.0,0.0,0.0,5.4599,5.8473,5.9319,5.8464,5.7925,5.7936,5.5417,5.3777,5.464,5.4859,5.4683,0.0,0.0,0.0,0.0,0.0,0.0,0.0,0.0,0.0,0.0,0.0,0.0,0.0,0.0,0.0,0.0,0.0,0.0,0.0,0.0,0.0,0.0,0.0,0.0,0.0,0.0,0.0,4.7472,4.6429,0.0,0.0,0.0,0.0,0.0,0.0,0.0,0.0,0.0,0.0,0.0,4.9482,4.9984,0.0,0.0,0.0,0.0,0.0,0.0,0.0,0.0,0.0,0.0,0.0,0.0,5.7139,5.8611,6.6359,7.1206,7.2591,7.3206,7.4014,7.513,7.5438,7.2899,6.7244,0.0,0.0,0.0,0.0,0.0,0.0,0.0,0.0,0.0,0.0,0.0,0.0,0.0,0.0,0.0,0.0,0.0,0.0,0.0,0.0,0.0,0.0,0.0,0.0,0.0,4.192,0.0,0.0,0.0,0.0,0.0,0.0,0.0,0.0,0.0,0.0,0.0,4.8248,5.132,5.4043,5.6472,5.8434,5.9326,6.0353,0.0,0.0,0.0,0.0,0.0,0.0,0.0,0.0,0.0,0.0,0.0,0.0,0.0,0.0,4.7021,4.4048,4.4206,4.4655,4.4395,0.0,0.0,0.0,0.0,0.0,0.0,0.0,0.0,0.0,0.0,0.0,0.0,0.0,0.0,0.0,0.0,4.8621,0.0,0.0,0.0,0.0,0.0,0.0,0.0,0.0,5.3031,5.4087,5.379,5.4311,5.4434,0.0,5.273,5.0873,0.0,0.0,0.0,0.0,0.0,0.0,0.0,0.0,5.8046,5.9441,6.6898,7.1321,7.2195,7.2745,7.3553,7.4668,7.4976,7.3283,6.9436,6.4705,6.058,0.0,0.0,0.0,0.0,0.0,0.0,0.0,0.0,0.0,0.0,0.0,0.0,0.0,0.0,0.0,0.0,0.0,0.0,0.0,0.0,0.0,0.0,0.0,4.3649,0.0,0.0,0.0,0.0,0.0,0.0,0.0,0.0,0.0,4.7068,4.8185,5.0221,5.3582,5.5316,5.6742,5.8127,0.0,0.0,0.0,0.0,0.0,0.0,0.0,5.2302,5.2233,5.2084,5.2011,5.2266,5.1956,5.1646,5.1646,0.0,0.0,4.7535,4.7497,4.8144,4.8273,4.9683,5.0533,4.9625,5.039,5.0933,0.0,0.0,0.0,0.0,0.0,0.0,0.0,0.0,5.3426,5.2112,0.0,5.1434,0.0,0.0,0.0,0.0,0.0,5.2893,0.0,0.0,6.0278,6.1882,5.9619,5.9542,6.0042,6.057,5.6706,5.5638,5.6862,5.388,0.0,0.0,0.0,0.0,0.0,0.0,5.9205,6.1087,6.75,7.1321,7.208,7.2234,7.3053,7.4668,7.3937,7.3514,7.3283,6.7859,6.3976,6.2142,5.5116,0.0,0.0,0.0,0.0,0.0,0.0,0.0,0.0,0.0,0.0,0.0,0.0,0.0,0.0,0.0,0.0,0.0,0.0,0.0,0.0,4.3431,0.0,0.0,0.0,0.0,0.0,0.0,0.0,0.0,0.0,0.0,4.8183,5.0003,5.2627,5.5849,0.0,0.0,0.0,0.0,5.8265,5.4944,5.3196,5.2128,5.117,5.4089,5.6628,5.7149,0.0,0.0,5.824,5.5303,5.3561,5.3445,5.4693,5.473,5.1761,5.1216,5.1265,5.1705,5.2134,5.239,5.2768,5.3222,5.3413,5.4862,0.0,0.0,0.0,0.0,5.2759,5.4485,5.6857,5.7435,5.7297,5.6591,5.584,0.0,0.0,0.0,0.0,0.0,0.0,5.6313,5.8097,5.9802,6.1146,6.217,6.2208,6.2323,6.2515,6.1338,6.1027,6.1466,6.1158,5.7225,5.0084,0.0,0.0,0.0,0.0,6.1272,6.383,6.845,7.1014,7.1245,7.2476,7.3937,7.5592,7.4245,7.3514,7.3476,7.0667,6.7499,6.3997,6.0671,0.0,0.0,0.0,0.0,0.0,0.0,0.0,0.0,0.0,0.0,0.0,0.0,0.0,0.0,0.0,0.0,0.0,0.0,0.0,4.3508,4.5663,4.6471,0.0,0.0,0.0,0.0,0.0,0.0,0.0,0.0,0.0,5.1873,5.2037,5.2485,0.0,0.0,5.5626,5.478,5.7434,5.9758,6.0531,6.0054,0.0,0.0,6.0047,5.9122,6.0467,6.2135,6.2409,5.9773,5.9082,5.8609,5.7647,5.7886,5.8133,5.8243,5.7004,5.6246,5.6664,5.666,5.6548,5.6668,5.6774,5.6819,5.9534,5.704,5.5016,5.4766,5.573,5.6275,5.7935,6.0325,6.08,6.0647,6.0018,5.9665,5.8274,5.6107,5.4241,0.0,0.0,0.0,5.91,6.1543,6.2221,6.3322,6.4795,6.5141,6.5333,6.5269,6.4629,6.4487,6.4817,6.3984,6.0627,5.4908,0.0,0.0,5.4824,5.9404,6.3008,6.5517,6.9053,7.1129,7.1552,7.3129,7.4476,7.5399,7.4514,7.3822,7.3514,7.2168,6.9948,6.6726,6.4039,6.0512,0.0,0.0,0.0,0.0,0.0,0.0,0.0,0.0,0.0,0.0,0.0,4.2168,3.9533,0.0,0.0,0.0,4.4239,4.5509,4.7163,4.8125,0.0,0.0,0.0,0.0,0.0,0.0,0.0,4.9445,5.2219,5.4199,5.4318,5.4485,5.4803,5.5352,5.6319,5.6934,5.6742,0.0,6.1973,6.3128,6.2946,6.3244,6.4696,6.3511,6.3074,6.522,6.5242,6.4658,6.335,6.2824,6.2208,6.1507,6.1267,6.1549,6.2559,6.1193,5.9836,5.9883,5.9726,5.9498,5.9335,5.9281,5.9281,6.3591,6.3169,5.851,5.7805,5.9773,5.985,6.1233,6.3399,6.3553,6.2721,6.1428,6.2848,6.1272,5.7474,5.6836,0.0,6.0035,6.0904,6.2606,6.4949,6.65,6.7192,6.7231,6.7988,6.8385,6.8333,6.6845,6.6423,6.6885,6.4022,6.2021,6.1097,6.1087,6.0299,5.895,6.1797,6.4415,6.6604,6.9359,7.1414,7.2678,7.3986,7.4745,7.4822,7.4745,7.4361,7.363,7.2706,7.1514,6.9871,6.591,6.2579,6.0071,0.0,0.0,0.0,0.0,0.0,0.0,0.0,0.0,0.0,0.0,0.0,0.0,0.0,0.0,0.0,4.8279,0.0,5.1972,5.0779,0.0,0.0,0.0,4.9549,5.045,5.2368,5.3756,5.3951,0.0,0.0,5.5884,5.7161,5.8821,6.0834,6.0896,6.1089,6.1858,6.3397,6.4436,6.382,6.3548,6.3456,6.4211,6.552,6.7523,6.9826,6.9259,6.7865,6.7349,6.6049,6.4819,6.4332,6.4483,6.463,6.5188,6.3924,6.2658,6.1955,6.1488,6.118,6.0748,6.0666,6.0627,6.6192,6.6013,6.4218,6.3078,6.2439,6.3117,6.3732,6.4385,6.5654,6.5987,6.559,6.5359,6.3988,6.1862,6.2963,6.3834,6.4424,6.5218,6.6307,6.7487,6.7911,6.8078,6.8075,6.8268,6.8383,6.8383,6.7972,6.7576,6.7116,6.6307,6.5153,6.3767,6.3715,6.2621,6.0663,6.253,6.5118,6.827,6.942,7.1373,7.4053,7.4514,7.5014,7.5668,7.5053,7.463,7.4399,7.2976,7.2014,7.1541,6.8783,6.6359,6.4411,5.772,0.0,0.0,0.0,0.0,0.0,0.0,0.0,0.0,0.0,4.5876,4.2002,0.0,4.6124,0.0,5.1548,5.4126,5.3895,5.4049,0.0,0.0,5.2526,5.2471,5.4172,5.5186,5.5527,5.4893,5.7456,5.9026,5.8233,5.9818,6.1709,6.3397,6.2012,6.0858,6.1166,6.3705,6.5743,6.6244,6.7614,6.8905,6.8789,6.9404,7.0008,7.0783,7.0459,6.9625,6.7973,6.7311,6.6615,6.5651,6.5389,6.58,6.6783,6.6167,6.5375,6.4753,6.2798,6.0916,6.0819,6.0819,6.0819,6.7731,6.7757,6.7218,6.65,6.5705,6.5705,6.5936,6.6359,6.7256,6.7679,6.7667,6.7231,6.6461,6.5667,6.6577,6.7,6.7039,6.7475,6.7936,6.8398,6.8809,6.8975,6.8998,6.9344,6.9498,6.9498,6.9498,6.8871,6.7744,6.7667,6.6821,6.5205,6.5268,6.4407,6.2852,6.3592,6.4725,6.609,6.8899,7.1834,7.4697,7.513,7.4784,7.3783,7.4014,7.3091,7.086,7.0591,6.9629,6.7808,6.5974,6.4422,6.3022,5.7956,5.4664,0.0,0.0,0.0,0.0,0.0,0.0,0.0,0.0,0.0,0.0,0.0,4.9202,4.9779,5.3741,5.578,5.4587,5.5203,5.5665,5.5626,5.5362,5.5777,5.722,5.8011,5.8374,5.8259,6.0071,6.1272,6.093,6.2221,6.3512,6.4474,6.3705,6.3205,6.3666,6.532,6.6859,6.809,6.9475,7.0514,7.0821,7.0898,7.0898,7.0898,7.0898,7.0459,6.9336,6.9115,6.8748,6.7725,6.7469,6.7534,6.7867,6.694,6.6145,6.5628,6.3782,6.2127,6.1897,6.1897,6.1897,6.8667,6.8822,6.8552,6.8591,6.8783,6.7872,6.7834,6.8411,6.8513,6.8564,6.8575,6.8578,6.8514,6.8373,6.8373,6.8475,6.8565,6.8448,6.851,6.874,6.9382,6.9756,6.991,7.0591,7.0898,7.0898,7.0783,6.9937,6.8436,6.8282,6.7398,6.5782,6.5859,6.5359,6.4345,6.444,6.4093,6.343,6.8373,7.208,7.4427,7.4861,7.3591,7.0821,7.2283,7.1091,6.6821,6.7744,6.6744,6.3128,6.1858,6.0958,6.0294,5.7709,5.5857,0.0,5.3054,0.0,0.0,0.0,0.0,0.0,0.0,0.0,0.0,5.2671,5.328,5.2626,5.5357,5.6665,5.5434,5.6049,5.6819,5.755,5.8396,5.9242,5.9935,6.0666,6.1396,6.2166,6.2358,6.2704,6.332,6.4243,6.4782,6.4859,6.5282,6.5782,6.6667,6.6898,6.759,6.9321,6.9629,7.0052,7.0706,7.0898,7.0898,7.0898,7.0898,7.0898,7.0794,7.0794,7.0602,6.9948,6.9728,6.9487,6.8744,6.7321,6.6282,6.6128,6.4782,6.3589,6.3243,6.3166,6.332,6.9487,6.9475,6.8873,6.8989,6.9513,6.941,6.8987,6.8421,6.914,6.9448,6.9448,6.9436,6.9052,6.8383,6.8398,6.8783,6.941,6.8729,6.9152,7.0409,6.9948,7.0063,7.0667,7.0821,7.0898,7.086,7.0271,6.9425,6.8398,6.7679,6.6487,6.4897,6.4872,6.382,6.189,0.0,0.0,0.0,6.8718,7.0156,7.1787,7.0541,6.9513,6.8936,7.0514,0.0,6.9975,6.8975,6.8039,6.7218,6.5076,0.0,0.0,0.0,0.0,0.0,0.0,0.0,0.0,0.0,0.0,0.0,5.4623,5.3962,5.3859,5.4699,5.5434,5.6011,5.728,5.8473,5.9511,6.0358,6.0935,6.1127,6.182,6.2435,6.2589,6.2704,6.2897,6.3051,6.3666,6.4166,6.4359,6.5128,6.5628,6.5628,6.5782,6.5936,6.609,6.6667,6.7475,6.8475,6.9206,6.9975,7.0783,7.086,7.0898,7.0898,7.0898,7.0898,7.0898,7.0898,7.0898,7.0629,7.0667,7.0398,6.9552,6.8629,6.7628,6.7013,6.6051,6.4974,6.3628,6.332,6.332,7.0333,0.0,6.9963,7.004,0.0,7.0409,7.0102,6.9679,7.0102,7.0294,7.0294,7.0283,7.0052,6.964,6.9667,6.964,6.9679,6.9229,6.9256,6.9655,6.9706,6.991,7.0333,7.0706,7.0706,7.031,6.9886,6.904,6.7782,6.7295,6.6487,6.5282,6.5243,6.4705,6.3753,6.5953,6.7928,6.955,7.0419,7.2004,7.4308,7.347,7.23,7.1014,0.0,0.0,0.0,0.0,0.0,0.0,0.0,0.0,0.0,0.0,0.0,6.1858,5.969,5.8743,5.9716,5.9883,6.0531,6.1936,6.1081,5.9484,5.7165,5.8127,5.9204,6.005,6.0512,6.1127,6.1935,6.2435,6.2666,6.2704,6.3051,6.332,6.332,6.332,6.3474,6.3897,6.432,6.4743,6.5205,6.559,6.5859,6.5897,6.5897,6.5897,6.5936,6.6244,6.6782,6.7667,6.8898,6.9667,6.9744,7.0475,7.0706,7.0475,7.0629,7.086,7.0898,7.0898,7.0898,7.0898,7.0898,7.0629,6.9821,6.8975,6.8129,6.7282,6.6436,6.5705,6.4743,6.4589,6.4589,7.1014,7.1129,7.1014,7.1052,7.1129,7.1014,7.0937,7.0898,0.0,0.0,0.0,7.0898,7.0898,7.0898,7.0898,7.0448,6.9717,6.9525,6.9078,6.8437,6.8975,6.941,6.9717,7.0217,7.0206,6.9694,6.9386,6.8501,6.7128,6.6949,6.6564,6.5974,6.5897,6.6269,6.705,6.9731,7.1193,7.125,7.1992,7.3852,7.6799,7.6469,7.5243,7.3091,7.3976,7.2783,6.9244,6.959,6.8205,6.4666,6.4128,6.3743,6.3205,6.1704,6.2166,6.4897,6.374,6.3866,6.6179,6.6116,6.6548,6.7871,6.6667,6.4282,6.0435,6.1627,6.2743,6.3281,6.3435,6.3474,6.332,6.3435,6.3512,6.3551,6.3666,6.3782,6.3782,6.3782,6.4089,6.4666,6.4859,6.5089,6.5743,6.5859,6.5897,6.5897,6.5897,6.5897,6.5897,6.5936,6.6244,6.7128,6.8244,6.8936,6.8821,6.9667,7.0321,6.9898,7.0398,7.086,7.0898,7.0898,7.0898,7.0898,7.0898,7.0475,6.9667,6.8898,6.8052,6.709,6.6359,6.5897,6.5897,6.5859,6.582,7.0937,7.0937,7.1091,7.1091,7.0937,7.1091,7.1052,7.0898,7.0898,7.0898,7.0898,7.0898,7.0898,7.0898,7.0898,7.0448,6.9679,6.8924,6.8514,0.0,6.7757,6.8244,6.964,6.9075,6.9102,6.954,6.8193,6.7346,6.7051,6.6397,6.6013,6.5936,6.6013,6.7025,6.8883,7.1565,7.3277,7.3945,7.1914,7.1675,7.3424,7.1888,7.114,7.136,7.2937,7.3091,7.1706,7.1091,7.0129,6.8859,6.7359,6.6859,6.7436,6.6513,6.659,6.7782,6.8268,6.8421,6.809,6.8652,6.8229,6.6436,6.6013,6.4974,6.3012,6.3666,6.3974,6.3435,6.4051,6.4089,6.3474,6.4012,6.4436,6.4474,6.5051,6.5513,6.5436,6.5436,6.5474,6.5628,6.5705,6.5705,6.582,6.5897,6.5897,6.5897,6.5897,6.5897,6.5897,6.5897,6.6244,6.6898,6.7282,6.7705,6.8167,6.9167,6.9706,6.9744,7.0321,7.0821,7.0898,7.0898,7.0898,7.0898,7.0898,7.0283,6.8975,6.8513,6.7782,6.6551,6.5974,6.5897,6.5897,6.5897,6.5897,7.0898,7.0898,7.1014,7.0975,7.0898,7.1014,7.0975,7.0898,7.0898,7.0898,7.0898,7.0898,7.0898,7.086,7.0448,6.9794,6.896,6.8116,6.7449,6.7064,6.7102,6.75,6.8244,6.8345,6.8371,6.8232,6.7526,6.6885,6.6436,6.609,6.6128,6.6577,6.7248,6.8837,7.1231,7.2635,7.418,7.5937,7.5234,7.5277,7.6202,7.5837,7.5908,7.6438,7.6784,7.6746,7.6331,7.5091,7.3976,7.3168,7.1898,7.1014,7.0475,6.9629,6.936,6.9744,6.9744,6.9744,6.9744,7.0129,6.9667,6.8129,6.7975,6.7436,6.6167,6.559,6.532,6.5359,6.5743,6.5628,6.482,6.5051,6.5282,6.532,6.5667,6.5897,6.5897,6.5897,6.5897,6.5897,6.5897,6.5897,6.5897,6.5897,6.5897,6.5897,6.5897,6.5897,6.5897,6.5897,6.6013,6.6397,6.6782,6.7013,6.7167,6.8167,6.8859,6.8975,6.9706,7.036,7.0744,7.0898,7.0898,7.0898,7.0898,7.0206,6.8744,6.8398,6.7667,6.6359,6.5897,6.5897,6.5897,6.5897,6.5897,7.0898,7.0898,7.0898,7.0898,7.0898,7.0898,7.0898,7.0898,7.0898,7.0937,7.0975,7.0898,7.0898,7.0821,7.0217,6.941,6.841,6.7693,6.6846,6.6013,6.6538,6.6923,6.7116,6.7641,6.7564,6.7154,6.7116,6.6808,6.6244,6.6384,6.6821,6.7564,6.8665,7.0477,7.2793,7.3335,7.4765,7.7109,7.8242,7.8874,7.9096,7.9958,8.06,8.1016,8.0439,8.0015,7.9754,7.8361,7.7169,7.6322,7.5284,7.413,7.2822,7.1783,7.1168,7.1129,7.0437,7.0244,7.0821,7.0898,7.0552,6.9783,6.9706,6.9436,6.8706,6.7513,6.6782,6.709,6.7398,6.7282,6.6359,6.6167,6.6167,6.6167,6.6013,6.5897,6.5897,6.5897,6.5897,6.5897,6.5897,6.5897,6.5897,6.5897,6.5897,6.5897,6.6051,6.6167,6.6167,6.632,6.6474,6.6513,6.6821,6.7013,6.659,6.7975,6.8783,6.859,6.9552,7.0321,7.0706,7.0706,7.0898,7.0898,7.0898,7.0321,6.909,6.8513,6.7821,6.6551,6.609,6.5897,6.5897,6.5897,6.5897,7.0898,7.0898,7.0898,7.0898,7.0898,7.0898,7.0937,7.0937,7.0898,7.1014,7.1245,7.0975,7.0937,7.0898,7.0783,6.9886,6.8527,6.8321,6.7449,6.609,6.5974,6.6423,6.7,6.6513,6.65,6.7039,6.7167,6.7102,6.7051,6.7795,6.8373,6.8833,6.9797,7.0921,7.2187,7.3711,7.5351,7.7187,7.8789,7.946,7.9135,7.9958,8.06,8.1054,8.1016,8.0592,7.99,7.89,7.8015,7.7169,7.563,7.4668,7.4322,7.2976,7.2052,7.2014,7.1245,7.086,7.0898,7.0898,7.0552,6.9821,6.9744,6.9706,6.959,6.9436,6.8667,6.7782,6.8552,6.859,6.7244,6.6974,6.6974,6.6859,6.6397,6.5897,6.5897,6.5897,6.5897,6.5897,6.5897,6.5897,6.5897,6.5897,6.5897,6.5897,6.6474,6.6821,6.6936,6.7475,6.7975,6.7936,6.7667,6.7513,6.8013,6.9552,6.9667,6.8898,7.036,7.1014,7.0629,7.0591,7.086,7.0667,7.0706,7.0244,6.9629,6.8975,6.8052,6.7051,6.6359,6.5897,6.5897,6.5897,6.5897,7.0898,7.0898,7.0898,7.0898,7.0937,7.1464,7.1695,7.1695,7.2245,7.2542,7.2723,7.2657,7.208,7.1091,7.0552,7.0129,6.9771,6.8334,6.7872,6.8013,6.7141,6.7064,6.7757,6.7526,6.7577,6.7847,6.7871,6.7936,6.8193,6.9027,6.9611,6.9928,7.0754,7.1741,7.2773,7.3984,7.5469,7.7187,7.8753,7.9636,7.9943,8.0731,8.1131,8.1093,8.1093,8.0939,8.0516,7.9746,7.89,7.8015,7.6861,7.5745,7.4745,7.3591,7.2745,7.2206,7.1398,7.0898,7.0898,7.0898,7.0744,7.0437,7.0398,7.0398,7.0398,7.0398,6.9898,6.8975,6.9283,6.9167,6.8052,6.7859,6.7667,6.7244,6.7244,6.7013,6.5974,6.632,6.6474,6.6013,6.5897,6.5897,6.5897,6.5897,6.5897,6.5974,6.659,6.7128,6.7167,6.7859,6.8552,6.9013,6.8859,6.8552,6.859,6.8898,6.9436,6.9898,7.0244,7.0398,7.1168,7.0398,7.0206,7.0244,6.9898,6.9552,6.8975,6.8244,6.7436,6.6936,6.6474,6.5897,6.5897,6.5897,6.5897,7.1618,7.1618,7.1618,7.1618,7.1657,7.2272,7.2542,7.2629,7.3293,7.3696,7.3867,7.3917,7.3278,7.2052,7.1299,7.1129,7.1014,6.9129,6.8655,6.9502,6.8142,6.7808,6.8347,6.8385,6.8385,6.8448,6.8679,6.9013,6.9463,7.0194,7.0714,7.0904,7.1459,7.2173,7.3008,7.418,7.5703,7.7187,7.8863,8.0084,8.0739,8.1308,8.1439,8.1131,8.1093,8.1093,8.1054,8.0246,7.94,7.8515,7.7746,7.663,7.5168,7.4284,7.336,7.2245,7.1398,7.0898,7.0898,7.0898,7.0898,7.0898,7.0898,7.0898,7.0898,7.0898,7.0629,7.0129,7.0014,6.9706,6.8936,6.8744,6.8475,6.7936,6.8244,6.7782,6.6513,6.6782,6.6782,6.6051,6.5897,6.5897,6.5897,6.5897,6.5974,6.6282,6.6936,6.759,6.7859,6.859,6.936,6.9937,7.0014,6.9783,6.9244,6.9629,7.0014,7.0398,7.0783,7.136,7.1898,7.0744,7.0167,7.0591,6.9436,6.8975,6.9321,6.8552,6.7051,6.6782,6.6436,6.609,6.5936,6.5897,6.5897,7.3405,7.3339,7.3366,7.3262,7.3366,7.3416,7.3427,7.3495,7.3764,7.3899,7.414,7.4318,7.4243,7.4119,7.3723,7.3174,7.2349,7.1161,7.0343,6.9862,6.8859,6.8394,6.8394,6.8394,6.8433,6.8767,6.9487,7.0321,7.1233,7.1479,7.1646,7.1677,7.1914,7.207,7.2539,7.4648,7.6289,7.7422,7.9447,8.0923,8.1493,8.1501,8.1323,8.1131,8.1093,8.1093,8.1016,8.0285,7.9438,7.8515,7.7784,7.6899,7.5976,7.513,7.3899,7.2399,7.1437,7.0937,7.0937,7.0937,7.0898,7.0898,7.0898,7.0898,7.0898,7.0898,7.086,7.0821,7.0744,7.0437,6.9783,6.9629,6.959,6.9398,6.8859,6.8129,6.7167,6.7128,6.6744,6.6128,6.5936,6.5974,6.5936,6.5897,6.632,6.6974,6.7821,6.8552,6.9244,7.0129,7.0591,7.0667,7.0744,7.0783,7.0821,7.0744,7.1052,7.1552,7.2014,7.2706,7.1937,7.136,7.1283,7.0975,7.0167,6.9821,7.0052,6.9206,6.7475,6.6859,6.6898,6.6628,6.6551,6.609,6.6167,7.3486,7.3486,7.3486,7.3486,7.3524,7.4053,7.4332,7.4495,7.5139,7.5559,7.5846,7.5918,7.6048,7.6132,7.5872,7.515,7.4032,7.2582,7.1958,7.1941,7.081,7.0179,7.0179,7.0333,7.0371,7.0448,7.0744,7.1129,7.157,7.1824,7.1884,7.1992,7.2539,7.2812,7.3281,7.543,7.7148,7.8125,7.9838,8.1014,8.1638,8.1516,8.1285,8.1093,8.1093,8.1093,8.1093,8.0785,8.0246,7.9361,7.8554,7.7669,7.6823,7.5476,7.4207,7.3129,7.2206,7.1745,7.1668,7.1206,7.0898,7.0898,7.0898,7.0898,7.0898,7.0898,7.0898,7.0898,7.0898,7.0706,7.0591,7.0475,7.0283,6.9821,6.986,6.9398,6.8321,6.7898,6.7628,6.6821,6.6244,6.609,6.6551,6.6667,6.7013,6.7821,6.8667,6.9283,6.9706,7.0398,7.0898,7.0898,7.0898,7.0898,7.0898,7.1052,7.1398,7.2206,7.2822,7.3245,7.2937,7.2283,7.2091,7.1822,7.1052,7.0591,7.0744,7.036,6.859,6.7705,6.7705,6.7705,6.7475,6.7205,6.7282,7.4303,7.4303,7.4303,7.4303,7.4379,7.4909,7.5216,7.5495,7.6095,7.6586,7.6848,7.6947,7.7065,7.7187,7.707,7.6503,7.543,7.3974,7.3409,7.3427,7.2234,7.1477,7.1339,7.1415,7.1493,7.1514,7.1544,7.1646,7.1801,7.1937,7.2148,7.2461,7.3047,7.3437,7.4062,7.6055,7.7617,7.8594,7.9922,8.1148,8.1954,8.1908,8.1823,8.1823,8.1631,8.1362,8.1131,8.1093,8.0708,7.9862,7.9208,7.8438,7.7284,7.563,7.4476,7.3899,7.3091,7.2629,7.2514,7.1783,7.1321,7.1283,7.1052,7.0898,7.0898,7.0898,7.0898,7.0898,7.0898,7.0975,7.1245,7.1321,7.0975,7.0321,7.0552,7.036,6.9052,6.8821,6.8398,6.7628,6.6821,6.6744,6.7321,6.7475,6.7936,6.8706,6.936,6.9706,7.0129,7.0475,7.0898,7.0898,7.0898,7.0898,7.1014,7.1283,7.1937,7.2745,7.3168,7.363,7.3976,7.336,7.2899,7.2552,7.2129,7.1629,7.1283,7.1091,7.0283,6.9206,6.8975,6.9052,6.8744,6.8436,6.8398,7.5938,7.5861,7.5976,7.5822,7.5784,7.5861,7.6092,7.6276,7.6478,7.6719,7.6953,7.7109,7.7187,7.7226,7.7305,7.6992,7.6365,7.5485,7.4601,7.3793,7.2919,7.218,7.164,7.1562,7.1562,7.1562,7.1705,7.1836,7.2098,7.2226,7.2656,7.3203,7.3437,7.3984,7.4609,7.6445,7.7773,7.8789,8.0195,8.1562,8.2754,8.2767,8.2901,8.3324,8.2747,8.2016,8.1246,8.1131,8.0746,8.0015,7.9785,7.9015,7.7361,7.5822,7.4784,7.463,7.3976,7.3553,7.3399,7.2668,7.2206,7.2129,7.1475,7.1206,7.1245,7.1206,7.1168,7.1206,7.1206,7.136,7.2091,7.2206,7.1898,7.1129,7.1206,7.0821,7.0167,6.9744,6.936,6.8513,6.7667,6.7552,6.8129,6.8398,6.8744,6.9475,6.9821,7.0052,7.0591,7.0821,7.086,7.0898,7.0898,7.0898,7.1206,7.1629,7.2476,7.3245,7.3514,7.3899,7.4591,7.4399,7.4207,7.3899,7.3514,7.2976,7.2168,7.1975,7.1745,7.0937,7.0783,7.0398,7.009,6.9783,6.9283,7.5976,7.5976,7.5976,7.5976,7.5976,7.5976,7.6169,7.6492,7.6583,7.6797,7.707,7.7187,7.7226,7.7383,7.7773,7.7617,7.6875,7.6963,7.6284,7.4769,7.3892,7.3203,7.2578,7.207,7.1875,7.1953,7.2495,7.2851,7.3008,7.3476,7.3945,7.4258,7.4765,7.5195,7.5586,7.7734,7.9101,7.9531,8.1562,8.289,8.3263,8.37,8.3939,8.3785,8.3555,8.3208,8.2824,8.1708,8.0977,8.0708,8.0131,7.9054,7.7553,7.6784,7.6207,7.5592,7.4784,7.4322,7.4207,7.3591,7.3091,7.3053,7.2822,7.2706,7.2706,7.2629,7.2629,7.2629,7.2668,7.286,7.3053,7.3091,7.2976,7.2706,7.2706,7.2514,7.2052,7.1168,7.0206,6.9398,6.8552,6.8436,6.9052,6.9283,6.959,7.0283,7.0475,7.0667,7.086,7.0975,7.0898,7.0898,7.0898,7.1168,7.1552,7.2245,7.3168,7.3783,7.4053,7.4399,7.5014,7.5361,7.5207,7.5053,7.4707,7.413,7.336,7.3014,7.2899,7.2552,7.2168,7.1822,7.1475,7.1091,7.0706,7.7198,7.7198,7.7198,7.7198,7.7198,7.716,7.7352,7.7614,7.7636,7.7812,7.8086,7.8164,7.8125,7.8242,7.8711,7.8515,7.793,7.8437,7.792,7.6611,7.5473,7.4726,7.4023,7.332,7.3398,7.3789,7.3828,7.3984,7.4258,7.4453,7.4765,7.5156,7.5625,7.6055,7.6445,7.789,7.9101,8.0234,8.1758,8.3125,8.4101,8.4766,8.5025,8.492,8.4674,8.4439,8.4209,8.2901,8.1939,8.1439,8.0477,7.9285,7.8284,7.7669,7.7053,7.6476,7.5707,7.5168,7.5091,7.4437,7.3937,7.3937,7.3707,7.3476,7.3476,7.3514,7.3514,7.3514,7.3437,7.363,7.386,7.3937,7.4091,7.4399,7.3783,7.3553,7.3283,7.2245,7.1321,7.0629,6.9898,6.9744,6.9975,7.0167,7.0321,7.0821,7.0898,7.1129,7.1245,7.1398,7.1475,7.1668,7.2052,7.2168,7.2091,7.2822,7.3822,7.4284,7.463,7.5053,7.5553,7.5707,7.5707,7.5668,7.5399,7.4938,7.4207,7.4437,7.4399,7.3976,7.3476,7.3322,7.3053,7.2668,7.2283,7.9169,7.918,7.9169,7.9056,7.9018,7.9018,7.9031,7.9308,7.9283,7.9336,7.9531,7.9453,7.9531,7.9648,7.9687,7.957,7.9414,7.9454,7.9492,7.892,7.789,7.6797,7.5781,7.4922,7.5273,7.6328,7.543,7.5234,7.5742,7.5273,7.5156,7.5937,7.6055,7.6367,7.7031,7.7265,7.8711,8.0625,8.1172,8.2773,8.5469,8.5742,8.6053,8.6576,8.5965,8.556,8.536,8.4427,8.3401,8.2285,8.0785,7.99,7.9485,7.8284,7.7553,7.7246,7.6476,7.6053,7.5822,7.5207,7.4784,7.4745,7.4245,7.363,7.386,7.3976,7.3976,7.3937,7.3899,7.4053,7.463,7.4784,7.513,7.5592,7.4707,7.3976,7.363,7.2937,7.2476,7.2206,7.1591,7.0975,7.0975,7.0898,7.0821,7.0898,7.0975,7.1437,7.186,7.2129,7.2629,7.286,7.2937,7.2937,7.2783,7.3976,7.4861,7.5091,7.5515,7.6092,7.6053,7.6015,7.5976,7.5976,7.5938,7.5476,7.5284,7.5361,7.5322,7.4861,7.4668,7.4745,7.4399,7.3822,7.386,7.9182,7.9182,7.9182,7.9182,7.9182,7.9182,7.9297,7.9414,7.9453,7.9648,7.9726,7.9726,7.9805,7.9805,8.039,8.0273,7.9961,8.0312,8.0587,8.0524,8.0219,7.8672,7.7031,7.6015,7.6172,7.7109,7.6719,7.664,7.6836,7.6523,7.6562,7.6836,7.6797,7.6914,7.7226,7.7812,7.9101,8.082,8.1679,8.3281,8.5586,8.6094,8.6406,8.6928,8.6787,8.6553,8.6411,8.5593,8.417,8.2401,8.1362,8.0439,7.99,7.9323,7.8554,7.7553,7.713,7.663,7.613,7.5822,7.5668,7.5668,7.5322,7.5361,7.5361,7.5322,7.5322,7.5361,7.5361,7.5361,7.5592,7.563,7.5784,7.5899,7.5399,7.513,7.5091,7.4591,7.4053,7.3899,7.2668,7.2014,7.1668,7.1245,7.0975,7.1091,7.1437,7.1975,7.2437,7.2937,7.3399,7.336,7.3399,7.3437,7.3783,7.5014,7.5822,7.6015,7.6553,7.7361,7.6938,7.6322,7.6169,7.5976,7.5976,7.5668,7.5707,7.5822,7.5668,7.5592,7.5668,7.563,7.5014,7.4476,7.5082,8.0508,8.0508,8.0508,8.0508,8.0508,8.0508,8.0547,8.0586,8.0625,8.0664,8.0781,8.0781,8.0781,8.0859,8.1328,8.1289,8.0898,8.1328,8.1523,8.1445,8.1094,8.0312,7.918,7.793,7.7617,7.8555,7.7695,7.7422,7.7578,7.7383,7.7226,7.7187,7.7226,7.7226,7.7226,7.8086,7.9336,8.082,8.1914,8.3594,8.5976,8.6211,8.664,8.7109,8.7244,8.7153,8.6839,8.613,8.467,8.2901,8.2009,8.1323,8.0439,7.9977,7.9361,7.8361,7.8015,7.7438,7.6746,7.6515,7.6361,7.6092,7.5976,7.5976,7.5938,7.5976,7.5976,7.5938,7.5976,7.5976,7.5976,7.5976,7.5976,7.5938,7.5668,7.563,7.5938,7.5515,7.4899,7.4245,7.3399,7.2552,7.2283,7.1437,7.1437,7.1783,7.2052,7.2629,7.3206,7.3707,7.413,7.4245,7.4361,7.4553,7.5014,7.6092,7.7015,7.7207,7.7746,7.8554,7.7554,7.664,7.613,7.5938,7.5976,7.6053,7.6207,7.6284,7.6207,7.6207,7.6399,7.6553,7.6169,7.5861,7.6429,8.2304,8.2304,8.2304,8.2304,8.2226,8.2265,8.207,8.2226,8.2109,8.2148,8.2148,8.2226,8.2031,8.2304,8.207,8.2226,8.2187,8.2109,8.2187,8.1992,8.164,8.1328,8.1523,7.9648,7.9609,8.0351,7.8594,7.8164,7.8203,7.7695,7.7226,7.7226,7.7226,7.7305,7.7539,7.8164,7.9414,8.0976,8.1679,8.332,8.5429,8.5937,8.6328,8.7031,8.7422,8.7344,8.7039,8.6405,8.5225,8.3162,8.2879,8.2124,8.117,8.0323,7.99,7.9592,7.8938,7.8284,7.7553,7.7284,7.6938,7.6361,7.6092,7.5976,7.5976,7.5976,7.5976,7.5976,7.5976,7.5976,7.5976,7.5976,7.5861,7.5745,7.5168,7.5284,7.5553,7.5822,7.5284,7.3899,7.363,7.3091,7.2437,7.1783,7.1591,7.2629,7.2937,7.3437,7.4014,7.4514,7.5053,7.5553,7.5707,7.5861,7.6476,7.7207,7.7977,7.8554,7.9131,7.9383,7.7949,7.6996,7.6216,7.6005,7.6736,7.6938,7.6823,7.6823,7.6861,7.7053,7.74,7.7823,7.8054,7.7852,7.8045,8.2304,8.2304,8.2304,8.2304,8.2304,8.2304,8.2304,8.2304,8.2304,8.2304,8.2304,8.2304,8.2304,8.2304,8.2304,8.2304,8.2304,8.2304,8.2304,8.2265,8.2187,8.2109,8.2109,8.0898,8.1054,8.125,8.0039,7.9258,7.9023,7.793,7.7226,7.7265,7.7383,7.7539,7.8203,7.8594,7.9726,8.1484,8.1601,8.2695,8.4687,8.5273,8.5703,8.6562,8.7187,8.7461,8.7422,8.7264,8.6529,8.5214,8.3863,8.268,8.1649,8.1154,8.0669,8.0054,7.9708,7.9169,7.8361,7.7746,7.7246,7.7053,7.6515,7.5976,7.5976,7.6092,7.6053,7.6015,7.5976,7.6169,7.6207,7.6053,7.5822,7.5515,7.5438,7.5207,7.4476,7.4668,7.4745,7.4399,7.3822,7.3437,7.3206,7.2437,7.2591,7.3399,7.386,7.4284,7.4784,7.5322,7.5707,7.6207,7.6237,7.6289,7.6675,7.7512,7.8593,7.9422,8.0106,8.0238,7.881,7.8263,7.7896,7.7753,7.7929,7.792,7.768,7.7823,7.7938,7.8169,7.8391,7.8787,7.9085,7.9211,7.943,8.2304,8.2304,8.2304,8.2304,8.2304,8.2304,8.2304,8.2304,8.2304,8.2304,8.2304,8.2304,8.2304,8.2304,8.2304,8.2304,8.2304,8.2304,8.2304,8.2304,8.2304,8.2304,8.2265,8.1758,8.1562,8.1133,8.0195,7.9414,7.8515,7.8203,7.7851,7.7812,7.7812,7.832,7.9062,7.9414,8.0312,8.1367,8.1719,8.2539,8.4023,8.4726,8.5586,8.6562,8.7226,8.75,8.75,8.75,8.6953,8.6054,8.5039,8.375,8.234,8.1762,8.1231,8.0823,8.0592,8.0131,7.9323,7.8784,7.8323,7.7861,7.74,7.7246,7.7169,7.7169,7.7169,7.7169,7.7207,7.7169,7.713,7.6746,7.6322,7.5976,7.5553,7.513,7.4784,7.4707,7.4514,7.4245,7.3707,7.3822,7.3591,7.3168,7.3707,7.4553,7.4284,7.4707,7.5438,7.5899,7.6053,7.636,7.6413,7.6549,7.6841,7.7677,7.8977,7.9927,8.0845,8.0733,7.9962,7.9879,7.9968,7.9438,7.8718,7.8783,7.8668,7.8854,7.9105,7.9345,7.9558,7.9775,7.9932,8.0126,8.0453,8.2304,8.2304,8.2304,8.2304,8.2304,8.2461,8.2578,8.2539,8.25,8.2617,8.25,8.25,8.2617,8.2578,8.2773,8.2734,8.2734,8.2578,8.2695,8.2969,8.3008,8.3008,8.2929,8.2773,8.2148,8.0429,8.0351,7.957,7.8906,7.8515,7.8867,7.875,7.8672,7.914,7.9922,8.0547,8.1054,8.1484,8.1953,8.2461,8.3476,8.4375,8.5703,8.707,8.7422,8.75,8.75,8.7461,8.7187,8.6445,8.625,8.5234,8.3828,8.2504,8.1782,8.1705,8.1424,8.0964,8.0354,7.99,7.94,7.8746,7.8477,7.8438,7.8361,7.8323,7.8284,7.84,7.8361,7.8323,7.8361,7.7746,7.7207,7.6707,7.5592,7.5322,7.5361,7.5053,7.4476,7.4014,7.3976,7.413,7.4207,7.4053,7.4861,7.5476,7.5168,7.5168,7.5899,7.636,7.648,7.6573,7.6636,7.6715,7.7,7.7617,7.8984,7.9726,8.082,8.0832,8.0512,8.0281,8.0,7.9688,7.9247,7.9492,7.9805,7.9997,8.0275,8.0509,8.0598,8.0694,8.0833,8.1011,8.1054,8.2304,8.2304,8.2304,8.2304,8.2422,8.3086,8.3398,8.3398,8.3398,8.3398,8.3398,8.3398,8.3398,8.3515,8.4179,8.4414,8.4101,8.3711,8.3711,8.4179,8.4258,8.4219,8.4179,8.3945,8.3594,8.3008,8.2187,8.1445,8.0976,8.0898,8.0039,7.9609,7.9492,7.9961,8.0586,8.1015,8.1445,8.1836,8.2187,8.2461,8.289,8.414,8.5742,8.7265,8.75,8.75,8.75,8.75,8.7422,8.7226,8.6601,8.6054,8.5273,8.3906,8.2825,8.2053,8.1735,8.1444,8.1118,8.0469,7.9977,7.9515,7.9092,7.8669,7.8631,7.8738,7.8998,7.9018,7.9057,7.8883,7.8054,7.7978,7.7083,7.6313,7.5908,7.5572,7.4812,7.4668,7.4822,7.463,7.4591,7.4553,7.4707,7.4822,7.5284,7.5745,7.5745,7.5745,7.6207,7.6521,7.6665,7.6764,7.6842,7.6971,7.714,7.7851,7.875,7.914,7.9922,8.039,8.0162,7.9968,7.9726,7.9883,8.0351,8.0937,8.1133,8.1133,8.1026,8.1053,8.1252,8.1484,8.1004,8.0547,8.0117,8.3633,8.3672,8.3633,8.3633,8.3711,8.4062,8.4297,8.4297,8.4258,8.4297,8.4297,8.4258,8.4258,8.4375,8.4648,8.4883,8.4804,8.4531,8.4531,8.4883,8.4883,8.4883,8.4844,8.4531,8.4375,8.3945,8.3398,8.2422,8.1679,8.1172,8.082,8.0508,8.0351,8.082,8.1484,8.1719,8.1875,8.2265,8.2304,8.2344,8.25,8.4023,8.5703,8.7031,8.75,8.75,8.75,8.75,8.75,8.7422,8.7109,8.6679,8.6094,8.5312,8.4101,8.289,8.2187,8.1836,8.1679,8.1097,8.0746,8.0631,8.0092,7.9939,7.9977,8.0123,8.0067,8.0198,8.0329,8.0113,7.936,7.8734,7.7921,7.6953,7.6527,7.6041,7.554,7.5572,7.5533,7.5485,7.5033,7.5033,7.5399,7.5553,7.5668,7.5938,7.6207,7.6399,7.6583,7.6668,7.6836,7.6953,7.7031,7.707,7.7226,7.7773,7.8359,7.875,7.914,7.9609,8.0156,8.0117,8.039,8.0703,8.1367,8.1679,8.1914,8.1719,8.164,8.1523,8.164,8.1523,8.0664,8.0039,7.9765,8.4883,8.4883,8.4883,8.4883,8.4922,8.5117,8.5156,8.5156,8.5156,8.5156,8.5156,8.5156,8.5156,8.5195,8.5195,8.5273,8.5351,8.5312,8.5312,8.5586,8.5586,8.5469,8.5,8.4609,8.4492,8.457,8.3867,8.289,8.2109,8.1797,8.1523,8.1328,8.125,8.1562,8.2109,8.2148,8.2304,8.2304,8.2304,8.2383,8.3125,8.4179,8.5742,8.7304,8.75,8.75,8.75,8.75,8.75,8.75,8.7383,8.7187,8.6562,8.6289,8.539,8.3828,8.2773,8.2344,8.1914,8.1741,8.1398,8.13,8.1278,8.1285,8.1246,8.103,8.1079,8.1314,8.113,8.0662,7.9649,7.9286,7.8507,7.7689,7.6975,7.6611,7.6517,7.6427,7.6311,7.603,7.5465,7.5512,7.5918,7.5938,7.6015,7.6169,7.6506,7.6583,7.6745,7.6866,7.6992,7.7109,7.7187,7.7187,7.7305,7.7578,7.8008,7.8281,7.8633,7.9023,7.9805,8.0469,8.0742,8.0898,8.1054,8.1328,8.1797,8.1992,8.1367,8.1211,8.1679,8.125,8.0,7.9883,8.0,8.4883,8.4922,8.4922,8.4883,8.5078,8.5742,8.6054,8.6054,8.6054,8.6054,8.6054,8.6054,8.6054,8.6054,8.6054,8.6484,8.6679,8.6406,8.6367,8.6797,8.6875,8.6562,8.6133,8.6015,8.5234,8.4883,8.4023,8.3594,8.2929,8.289,8.2695,8.2187,8.1992,8.2187,8.2265,8.2304,8.2304,8.2304,8.2304,8.3008,8.4258,8.4765,8.582,8.7031,8.75,8.75,8.75,8.75,8.75,8.75,8.75,8.7461,8.7226,8.6601,8.5312,8.414,8.3359,8.3008,8.2148,8.1875,8.1803,8.1672,8.16,8.1624,8.1578,8.1242,8.0824,7.9945,8.0078,7.9765,7.9219,7.8711,7.8086,7.7617,7.707,7.6875,7.6875,7.683,7.6754,7.6672,7.6147,7.6224,7.6503,7.638,7.6322,7.6544,7.6698,7.6833,7.7021,7.7268,7.7617,7.7812,7.75,7.7461,7.8164,7.832,7.8398,7.8398,7.8711,7.8945,7.9531,8.0312,8.0508,8.0664,8.0937,8.1328,8.1875,8.1719,8.0898,8.0703,8.0937,8.0156,7.8984,7.9375,8.039,8.6367,8.6367,8.6367,8.6367,8.6406,8.6797,8.6914,8.6953,8.6953,8.6953,8.6953,8.6914,8.6914,8.6875,8.6914,8.7109,8.7344,8.707,8.7109,8.7422,8.7461,8.7265,8.6875,8.6406,8.5742,8.4765,8.4023,8.3242,8.3086,8.289,8.2617,8.2383,8.2304,8.2265,8.2304,8.2304,8.2304,8.2304,8.2422,8.3203,8.4414,8.5039,8.5742,8.7383,8.75,8.7539,8.75,8.75,8.75,8.75,8.75,8.75,8.7461,8.7031,8.6172,8.4609,8.4844,8.3906,8.1953,8.1875,8.1875,8.1809,8.1763,8.1722,8.1787,8.1562,8.1133,8.0544,8.0429,7.9805,7.875,7.8515,7.7969,7.75,7.7109,7.7109,7.7031,7.7031,7.6989,7.6905,7.6894,7.6924,7.6947,7.6828,7.6726,7.6739,7.7016,7.7306,7.7626,7.7987,7.8359,7.8789,7.8281,7.7773,7.8789,7.9492,7.9687,7.9765,8.0,8.0078,7.9726,8.0039,8.0742,8.1484,8.2226,8.2422,8.2304,8.1601,8.0898,8.0469,8.0078,7.9726,7.9492,8.0625,8.1523,8.75,8.75,8.75,8.75,8.75,8.75,8.7461,8.75,8.7461,8.7461,8.75,8.7461,8.7461,8.75,8.7422,8.7422,8.75,8.75,8.75,8.75,8.7422,8.7187,8.6562,8.5976,8.5234,8.4336,8.3867,8.3164,8.2656,8.2578,8.2695,8.2344,8.2304,8.2304,8.2304,8.2304,8.2304,8.2304,8.2304,8.3242,8.4609,8.5156,8.6133,8.7109,8.7656,8.7734,8.7539,8.75,8.75,8.75,8.75,8.7383,8.7109,8.7148,8.6054,8.4883,8.4961,8.4375,8.2422,8.1601,8.1758,8.1546,8.1298,8.0946,8.0862,8.125,8.0937,7.9687,7.9687,7.9101,7.8515,7.8125,7.7773,7.7422,7.7187,7.7187,7.7226,7.7305,7.7226,7.7073,7.7121,7.7311,7.733,7.7254,7.7175,7.7056,7.7311,7.7773,7.8242,7.875,7.9023,7.9453,7.9492,7.9023,7.9726,8.0547,8.0781,8.1094,8.1328,8.1445,8.1211,8.1484,8.2226,8.2929,8.3437,8.3047,8.2656,8.1797,8.1015,8.0898,8.0742,8.0508,8.0664,8.1797,8.2734,8.75,8.75,8.75,8.75,8.75,8.75,8.75,8.75,8.75,8.75,8.75,8.75,8.75,8.75,8.75,8.75,8.75,8.75,8.75,8.75,8.7383,8.6679,8.6015,8.5312,8.4531,8.3281,8.3437,8.3281,8.2656,8.289,8.2773,8.2422,8.2304,8.2304,8.2304,8.2304,8.2304,8.2344,8.2422,8.3359,8.4765,8.5742,8.6679,8.7539,8.8203,8.8281,8.7578,8.7617,8.7539,8.7539,8.75,8.7109,8.6758,8.7031,8.5859,8.4258,8.4961,8.4101,8.2109,8.1601,8.1289,8.0469,7.9922,7.9922,7.9648,7.9062,7.8476,7.8203,7.8476,7.8008,7.7578,7.7305,7.7383,7.7383,7.7344,7.7539,7.7578,7.7656,7.7578,7.7305,7.7461,7.793,7.8135,7.8156,7.8063,7.7935,7.8476,7.8984,7.9258,7.9648,7.9726,8.0039,8.0508,8.0625,8.0976,8.1562,8.2226,8.2461,8.2539,8.2812,8.2929,8.3359,8.3515,8.3984,8.4336,8.3672,8.3203,8.3047,8.2695,8.1875,8.1484,8.1523,8.207,8.3125,8.4023,8.75,8.75,8.75,8.75,8.75,8.75,8.75,8.75,8.75,8.75,8.75,8.75,8.75,8.75,8.75,8.75,8.75,8.75,8.75,8.75,8.7304,8.6758,8.6133,8.5859,8.5664,8.4258,8.4219,8.3945,8.3242,8.3203,8.2695,8.2344,8.2383,8.2304,8.2304,8.2304,8.2344,8.2539,8.2969,8.3945,8.5469,8.6601,8.7656,8.8984,8.9219,8.9023,8.8398,8.8281,8.7969,8.7656,8.7539,8.6992,8.6406,8.6679,8.5508,8.3594,8.4804,8.3828,8.1914,8.1679,8.1445,8.0156,7.9687,7.9492,7.9062,7.914,7.8789,7.8398,7.793,7.7812,7.7265,7.7226,7.7265,7.7344,7.7578,7.789,7.8086,7.8203,7.8359,7.8281,7.8594,7.9023,7.914,7.9209,7.904,7.8945,7.957,8.0117,8.0351,8.0625,8.0742,8.0937,8.1406,8.2265,8.2695,8.3242,8.3867,8.3906,8.3906,8.4101,8.4336,8.4297,8.4492,8.4961,8.539,8.5195,8.5,8.4922,8.4179,8.2812,8.2617,8.2929,8.3633,8.4531,8.5195,8.75,8.75,8.75,8.75,8.75,8.75,8.75,8.75,8.75,8.75,8.75,8.75,8.75,8.75,8.75,8.75,8.75,8.75,8.75,8.75,8.7422,8.6992,8.6679,8.6406,8.6015,8.5195,8.5156,8.4844,8.3984,8.3359,8.3086,8.289,8.2656,8.2656,8.2304,8.2304,8.2422,8.2851,8.3594,8.4844,8.6445,8.7734,8.8594,8.9883,9.0156,8.9922,8.9219,8.8789,8.8359,8.7969,8.7617,8.707,8.664,8.6133,8.5429,8.4726,8.4297,8.3984,8.2344,8.1172,8.1133,8.0312,7.9453,7.9375,7.9336,7.914,7.8281,7.8125,7.8164,7.8242,7.7617,7.793,7.8164,7.8476,7.8594,7.8828,7.8945,7.9062,7.9258,7.9414,7.9609,7.9648,8.0273,8.0351,8.0351,8.0273,8.0703,8.1133,8.1367,8.164,8.1914,8.2109,8.2422,8.3437,8.4414,8.4961,8.5429,8.5664,8.5625,8.5469,8.5547,8.5469,8.539,8.5625,8.6094,8.664,8.6406,8.5742,8.4609,8.332,8.3672,8.4336,8.5273,8.6133,8.6445,8.7539,8.75,8.7578,8.7578,8.7656,8.75,8.75,8.75,8.75,8.75,8.75,8.7539,8.7539,8.7539,8.7617,8.7617,8.75,8.75,8.75,8.75,8.7461,8.6992,8.6562,8.6289,8.6367,8.5469,8.5625,8.5742,8.5,8.4922,8.4453,8.375,8.3515,8.3281,8.2461,8.2344,8.2734,8.3554,8.4414,8.582,8.7383,8.8867,8.9687,9.0469,9.0976,9.0859,9.0078,8.9062,8.8633,8.8437,8.7422,8.6758,8.6328,8.6679,8.582,8.4101,8.5234,8.4648,8.2617,8.0898,8.0547,8.0508,7.957,7.9101,7.8594,7.8125,7.8008,7.8437,7.8398,7.8594,7.8711,7.9023,7.9219,7.9375,7.9453,7.9726,7.9805,8.0156,8.039,8.0547,8.0195,8.0078,8.0976,8.1523,8.1601,8.1719,8.1953,8.2187,8.2344,8.2734,8.3086,8.332,8.3594,8.4297,8.5351,8.6406,8.7031,8.7265,8.7031,8.6484,8.6562,8.6719,8.6601,8.6484,8.664,8.707,8.6719,8.6211,8.5469,8.5,8.5312,8.5937,8.6914,8.7383,8.7383,8.8281,8.8359,8.8906,8.914,8.9023,8.7929,8.75,8.75,8.75,8.75,8.7617,8.8008,8.7929,8.7773,8.8047,8.8047,8.7617,8.75,8.75,8.7539,8.7617,8.6953,8.6601,8.6875,8.6914,8.6797,8.6953,8.6992,8.664,8.6445,8.5625,8.4844,8.4375,8.4297,8.3945,8.3633,8.3594,8.4453,8.539,8.6562,8.8203,8.9453,9.0547,9.1523,9.1914,9.164,9.082,8.9648,8.8984,8.8633,8.75,8.6328,8.6133,8.6523,8.5547,8.457,8.5312,8.5039,8.3945,8.289,8.1562,8.0703,7.9805,7.957,7.9922,7.9336,7.9258,7.9336,7.9258,7.9414,7.9414,7.9492,7.9648,7.9765,7.9961,8.0429,8.0742,8.1289,8.164,8.1679,8.1484,8.1836,8.2539,8.2773,8.2812,8.3086,8.332,8.3164,8.3242,8.3867,8.4336,8.457,8.4883,8.539,8.6094,8.6758,8.7265,8.7383,8.7109,8.664,8.6953,8.7422,8.7383,8.6992,8.7187,8.7383,8.707,8.6836,8.7031,8.6953,8.6679,8.664,8.7187,8.7461,8.7461,8.914,8.9219,8.9765,9.0,8.9844,8.8828,8.8359,8.8359,8.8359,8.8359,8.8515,8.8945,8.8906,8.8672,8.8828,8.8984,8.8359,8.8359,8.8398,8.8359,8.8398,8.8164,8.8047,8.7969,8.8359,8.8359,8.832,8.8242,8.7773,8.7578,8.6679,8.5586,8.5117,8.5312,8.5156,8.4922,8.4453,8.5429,8.6484,8.7773,8.914,9.0312,9.1484,9.2187,9.2461,9.2265,9.1523,9.0547,8.9531,8.8867,8.7773,8.6445,8.6601,8.6328,8.5703,8.5469,8.5039,8.4961,8.4609,8.4375,8.3086,8.2109,8.0859,8.0625,8.0937,8.0195,8.0234,8.0312,8.039,8.0469,8.0469,8.0429,8.0508,8.0664,8.0859,8.1328,8.1836,8.2383,8.2539,8.2578,8.3047,8.3515,8.3867,8.3984,8.4062,8.4375,8.4648,8.4414,8.4219,8.4844,8.5273,8.5351,8.5586,8.5937,8.625,8.6679,8.7109,8.7461,8.7148,8.6758,8.707,8.75,8.75,8.75,8.7461,8.7461,8.75,8.7461,8.7383,8.7265,8.707,8.7148,8.7461,8.75,8.75,9.0039,9.0039,9.0078,9.0156,9.0117,9.0117,9.0039,8.9922,8.9922,8.9883,8.9922,8.9922,8.9844,8.9922,9.0,8.9922,8.9726,8.9765,8.9726,8.9726,8.9531,8.957,8.9609,8.9648,8.9648,8.9844,8.9726,8.914,8.8672,8.7851,8.6992,8.6367,8.5781,8.6133,8.6289,8.6054,8.5664,8.6445,8.75,8.8672,8.9765,9.125,9.1992,9.2461,9.2422,9.2422,9.1875,9.1172,9.0898,9.0234,8.9258,8.8711,8.832,8.7851,8.7031,8.6289,8.5508,8.5351,8.5078,8.5,8.4922,8.3945,8.25,8.207,8.1914,8.1562,8.1367,8.1406,8.1445,8.1719,8.1875,8.1914,8.1953,8.1992,8.1992,8.2422,8.2969,8.3242,8.3281,8.3554,8.414,8.4609,8.4844,8.5,8.5078,8.5547,8.5742,8.5703,8.5586,8.5781,8.6054,8.5742,8.5976,8.625,8.6562,8.6797,8.7031,8.7383,8.7226,8.6953,8.7304,8.75,8.75,8.75,8.75,8.75,8.75,8.75,8.75,8.7383,8.7265,8.7304,8.75,8.75,8.75,9.0937,9.0976,9.1601,9.1836,9.1836,9.1836,9.1172,9.0078,9.0,9.0,9.0039,9.0664,9.0664,9.0078,9.0625,9.0508,9.0234,9.0,8.9961,9.0078,9.0273,9.0078,9.0078,9.0195,9.039,9.0547,9.039,8.9961,8.9297,8.832,8.7851,8.7812,8.6875,8.7148,8.7109,8.6992,8.6953,8.7265,8.8203,8.914,9.0039,9.125,9.1992,9.2383,9.2031,9.2109,9.2148,9.0703,9.0429,9.0859,8.8437,8.7422,8.8633,8.7461,8.6445,8.7148,8.6836,8.6562,8.5976,8.582,8.582,8.5664,8.4453,8.4531,8.4297,8.3633,8.2812,8.289,8.2539,8.2617,8.2578,8.2617,8.2461,8.2304,8.2422,8.2812,8.332,8.3594,8.3711,8.4375,8.5,8.5351,8.5625,8.582,8.6015,8.6562,8.6797,8.6719,8.6679,8.6797,8.6797,8.6445,8.6484,8.6797,8.6719,8.6914,8.7109,8.7226,8.7148,8.7109,8.7344,8.75,8.75,8.75,8.75,8.75,8.75,8.75,8.75,8.75,8.7422,8.7461,8.75,8.75,8.75,9.1836,9.1875,9.2344,9.2578,9.2578,9.2578,9.1914,9.1133,9.1015,9.1015,9.1094,9.1562,9.1523,9.125,9.1601,9.1562,9.1172,9.1211,9.1211,9.1211,9.082,9.1133,9.1054,9.0937,9.1367,9.1445,9.1211,9.0781,8.9765,8.8476,8.7773,8.7969,8.7656,8.7578,8.7422,8.7383,8.7422,8.7851,8.8554,8.9375,9.0156,9.1054,9.2031,9.2226,9.1679,9.1875,9.2265,9.039,9.0664,9.1445,8.9062,8.8672,8.9453,8.8281,8.707,8.7578,8.7383,8.7109,8.6797,8.6719,8.6719,8.6601,8.6211,8.625,8.5742,8.5,8.4844,8.4765,8.3984,8.3359,8.3203,8.3047,8.2695,8.2344,8.2656,8.3008,8.3398,8.3789,8.4375,8.5117,8.5586,8.5976,8.6289,8.6523,8.6758,8.707,8.7226,8.7187,8.7187,8.7226,8.7265,8.707,8.7148,8.7344,8.7226,8.707,8.7226,8.7344,8.7265,8.7304,8.7461,8.75,8.75,8.75,8.75,8.75,8.75,8.75,8.75,8.75,8.75,8.75,8.75,8.75,8.75,9.2578,9.2578,9.2578,9.2578,9.2578,9.2578,9.2539,9.2578,9.2422,9.2539,9.25,9.2539,9.2461,9.2226,9.2383,9.2422,9.207,9.1992,9.1797,9.2383,9.1679,9.1601,9.1679,9.2265,9.1523,9.2031,9.1758,9.039,8.9492,8.8359,8.7539,8.75,8.75,8.75,8.75,8.75,8.75,8.7734,8.8672,8.9609,9.0117,9.125,9.2422,9.2265,9.1797,9.1523,9.2109,9.1992,9.1679,9.1953,9.1758,9.1054,9.0273,8.9414,8.8359,8.7812,8.7617,8.7422,8.7344,8.7265,8.7344,8.7383,8.7461,8.7265,8.6679,8.5859,8.5625,8.5547,8.4765,8.4297,8.4062,8.3554,8.3086,8.2929,8.3086,8.3359,8.3672,8.4375,8.5351,8.5937,8.625,8.664,8.6875,8.7109,8.707,8.7422,8.75,8.75,8.7578,8.7578,8.7617,8.7617,8.7539,8.7539,8.7461,8.7344,8.7383,8.7461,8.7422,8.7383,8.7461,8.75,8.75,8.75,8.75,8.75,8.75,8.75,8.7539,8.75,8.75,8.75,8.7539,8.7617,8.7539,9.2578,9.2578,9.2578,9.2578,9.2578,9.2578,9.2578,9.2578,9.2578,9.2578,9.2578,9.2578,9.2578,9.2578,9.25,9.25,9.25,9.1875,9.1679,9.1406,9.1172,9.1015,9.0742,9.0937,9.082,9.039,8.9922,8.9453,8.8554,8.7851,8.75,8.75,8.75,8.75,8.75,8.75,8.7539,8.7578,8.832,8.9062,8.9375,9.0,9.0781,9.1094,9.1015,9.1289,9.1679,9.1797,9.1953,9.2265,9.1679,9.0976,9.0273,8.9297,8.8711,8.8359,8.7929,8.7695,8.7578,8.7578,8.75,8.7539,8.7539,8.75,8.7148,8.6328,8.5937,8.5859,8.5664,8.5273,8.4804,8.4179,8.3633,8.3594,8.3594,8.3867,8.414,8.5195,8.6289,8.664,8.6953,8.7187,8.7422,8.75,8.75,8.75,8.75,8.7539,8.7695,8.7773,8.7929,8.789,8.7617,8.7539,8.7578,8.7656,8.7773,8.7617,8.7539,8.7539,8.75,8.75,8.75,8.75,8.75,8.7734,8.7812,8.7578,8.7578,8.7656,8.7851,8.8008,8.8008,8.8086,8.7851,9.2031,9.207,9.2461,9.2578,9.2578,9.2578,9.2578,9.2578,9.2578,9.2578,9.2578,9.2578,9.2578,9.2461,9.2226,9.2304,9.2226,9.125,9.1211,9.0976,9.039,9.0195,9.0,8.9883,9.0117,8.9804,8.9101,8.8515,8.7929,8.7617,8.75,8.75,8.75,8.7539,8.75,8.75,8.75,8.7539,8.8047,8.8398,8.875,8.9531,9.0429,9.0781,9.082,9.1054,9.1328,9.1562,9.1953,9.2304,9.2109,9.1484,9.0898,9.0273,8.9726,8.9179,8.8633,8.8047,8.7969,8.7812,8.7656,8.7695,8.7969,8.8125,8.8125,8.7461,8.7109,8.7031,8.6758,8.6367,8.5781,8.5156,8.4687,8.4453,8.4844,8.5273,8.5703,8.6445,8.6953,8.707,8.7265,8.7304,8.75,8.75,8.7617,8.8164,8.8047,8.8359,8.8398,8.8281,8.8359,8.8437,8.8281,8.8086,8.8164,8.8203,8.8164,8.8008,8.7851,8.7656,8.7656,8.7578,8.7539,8.789,8.8164,8.8398,8.8398,8.8281,8.8125,8.8242,8.8476,8.8672,8.8633,8.8633,8.875,9.1211,9.1406,9.2226,9.2578,9.2578,9.2578,9.2578,9.2578,9.2578,9.2578,9.2578,9.2578,9.2578,9.2148,9.1758,9.1914,9.1562,9.039,9.0429,9.039,8.9844,8.9375,8.9297,8.9492,8.9375,8.9179,8.8711,8.8476,8.8242,8.7969,8.7773,8.7617,8.7578,8.7617,8.7539,8.75,8.75,8.7578,8.789,8.8281,8.8867,8.9492,9.0312,9.0586,9.0703,9.0703,9.1211,9.1601,9.1992,9.2187,9.25,9.2109,9.1601,9.1094,9.0703,9.0117,8.9375,8.8984,8.8789,8.8437,8.8164,8.8125,8.8554,8.8828,8.8867,8.8711,8.8359,8.8086,8.7812,8.7226,8.664,8.6133,8.5664,8.5429,8.5976,8.6484,8.6992,8.7422,8.7461,8.75,8.7539,8.7578,8.7578,8.7578,8.8008,8.8554,8.9023,8.9414,8.957,8.9336,8.9219,8.9375,8.9414,8.9219,8.8945,8.8867,8.8867,8.8828,8.8672,8.8164,8.7929,8.8281,8.8554,8.875,8.9023,8.9179,8.9375,8.9414,8.9258,8.8984,8.9062,8.9258,8.9336,8.9453,8.9922,9.0664,9.1367,9.2226,9.2578,9.2578,9.2578,9.2578,9.2578,9.2578,9.2578,9.2539,9.25,9.2265,9.1523,9.1445,9.1289,9.0625,8.9531,8.9101,8.9023,8.8672,8.8281,8.8164,8.8476,8.8086,8.8047,8.8047,8.7851,8.8281,8.8398,8.8164,8.7734,8.8281,8.8125,8.7578,8.7578,8.7656,8.7773,8.832,8.8906,8.9297,8.9765,8.9961,9.0508,9.1172,9.1601,9.2109,9.2344,9.2461,9.2539,9.2578,9.2461,9.2187,9.1758,9.1328,9.0976,9.0234,8.9883,8.957,8.9336,8.9101,8.9179,8.957,8.9726,8.9765,8.9726,8.9453,8.9258,8.8828,8.7929,8.7304,8.6836,8.6367,8.6367,8.6679,8.707,8.7539,8.7695,8.7773,8.7812,8.7812,8.7851,8.7851,8.8086,8.8594,8.914,8.9609,9.0,9.0351,9.0234,9.0156,9.0312,9.0508,9.0234,8.9922,8.9765,8.9726,8.9687,8.9531,8.9101,8.9062,8.9492,8.9726,8.9726,8.9765,8.9883,9.0117,9.0547,9.0117,8.9883,8.9804,8.9883,9.0,9.0312,9.082]},{"header":{"parameterUnit":"m.s-1","parameterCategory":1,"la1":31.0,"la2":29.5877,"lo1":-88.7671,"lo2":-86.6584,"dx":0.0162,"dy":0.0185,"nx":115,"ny":88,"refTime":"2022-11-16T18:00:00:Z","depth":0,"parameterNumber":3,"parameterNumberName":"V-component_of_WINDS"},"data":[0.0,0.0,0.0,0.0,0.0,0.0,0.0,0.0,0.0,0.0,0.0,0.0,0.0,0.0,0.0,0.0,0.0,0.0,0.0,0.0,0.0,0.0,0.0,0.0,0.0,0.0,0.0,0.0,0.0,0.0,0.0,0.0,0.0,0.0,0.0,0.0,0.0,0.0,0.0,0.0,0.0,0.0,0.0,0.0,0.0,0.0,0.0,0.0,0.0,0.0,0.0,0.0,0.0,0.0,0.0,0.0,0.0,0.0,0.0,0.0,0.0,0.0,0.0,0.0,0.0,0.0,0.0,0.0,0.0,0.0,0.0,0.0,0.0,0.0,0.0,0.0,0.0,0.0,0.0,0.0,0.0,0.0,0.0,0.0,0.0,0.0,0.0,0.0,0.0,0.0,0.0,0.0,0.0,0.0,0.0,0.0,0.0,0.0,0.0,0.0,0.0,0.0,0.0,0.0,0.0,0.0,0.0,0.0,0.0,0.0,0.0,0.0,0.0,0.0,0.0,0.0,0.0,0.0,0.0,0.0,0.0,0.0,0.0,0.0,0.0,0.0,0.0,0.0,0.0,0.0,0.0,0.0,0.0,0.0,0.0,0.0,0.0,0.0,0.0,0.0,0.0,0.0,0.0,0.0,0.0,0.0,0.0,0.0,0.0,0.0,0.0,0.0,0.0,0.0,0.0,0.0,0.0,0.0,0.0,0.0,0.0,0.0,0.0,0.0,0.0,0.0,0.0,0.0,0.0,0.0,0.0,0.0,0.0,0.0,0.0,0.0,0.0,0.0,0.0,0.0,0.0,0.0,0.0,0.0,0.0,0.0,0.0,0.0,0.0,0.0,0.0,0.0,0.0,0.0,0.0,0.0,0.0,0.0,0.0,0.0,0.0,0.0,0.0,0.0,0.0,0.0,0.0,0.0,0.0,0.0,0.0,0.0,0.0,0.0,0.0,0.0,0.0,0.0,0.0,0.0,0.0,0.0,0.0,0.0,0.0,0.0,0.0,0.0,0.0,0.0,0.0,0.0,0.0,0.0,0.0,0.0,0.0,0.0,0.0,0.0,0.0,0.0,0.0,0.0,0.0,0.0,0.0,0.0,0.0,0.0,0.0,0.0,0.0,0.0,0.0,0.0,0.0,0.0,0.0,0.0,0.0,0.0,0.0,0.0,0.0,0.0,0.0,0.0,0.0,0.0,0.0,0.0,0.0,0.0,0.0,0.0,0.0,0.0,0.0,0.0,0.0,0.0,0.0,0.0,0.0,0.0,0.0,0.0,0.0,0.0,0.0,0.0,0.0,0.0,0.0,0.0,0.0,0.0,0.0,0.0,0.0,0.0,0.0,0.0,0.0,0.0,0.0,0.0,0.0,0.0,0.0,0.0,0.0,0.0,0.0,0.0,0.0,0.0,0.0,0.0,0.0,0.0,0.0,0.0,0.0,0.0,0.0,0.0,0.0,0.0,0.0,0.0,0.0,0.0,0.0,0.0,0.0,0.0,0.0,0.0,0.0,0.0,0.0,0.0,0.0,0.0,0.0,0.0,0.0,0.0,0.0,0.0,0.0,0.0,0.0,0.0,0.0,0.0,0.0,0.0,0.0,0.0,0.0,0.0,0.0,0.0,0.0,0.0,0.0,0.0,0.0,0.0,0.0,0.0,0.0,0.0,0.0,0.0,0.0,0.0,0.0,0.0,0.0,0.0,0.0,0.0,0.0,0.0,0.0,0.0,0.0,0.0,0.0,0.0,0.0,0.0,0.0,0.0,0.0,0.0,0.0,0.0,0.0,0.0,0.0,0.0,0.0,0.0,0.0,0.0,0.0,0.0,0.0,0.0,0.0,0.0,0.0,0.0,0.0,0.0,0.0,0.0,0.0,0.0,0.0,0.0,0.0,0.0,0.0,0.0,0.0,0.0,0.0,0.0,0.0,0.0,0.0,0.0,0.0,0.0,0.0,0.0,0.0,0.0,0.0,0.0,0.0,0.0,0.0,0.0,0.0,0.0,0.0,0.0,0.0,0.0,0.0,0.0,0.0,0.0,0.0,0.0,0.0,0.0,0.0,0.0,0.0,0.0,0.0,0.0,0.0,0.0,0.0,0.0,0.0,0.0,0.0,0.0,0.0,0.0,0.0,0.0,0.0,0.0,0.0,0.0,0.0,0.0,0.0,0.0,0.0,0.0,0.0,0.0,0.0,0.0,0.0,0.0,0.0,0.0,0.0,0.0,0.0,0.0,0.0,0.0,0.0,0.0,0.0,0.0,0.0,0.0,0.0,0.0,0.0,0.0,0.0,0.0,0.0,0.0,0.0,0.0,0.0,0.0,0.0,0.0,0.0,0.0,0.0,0.0,0.0,0.0,0.0,0.0,0.0,0.0,0.0,0.0,0.0,0.0,0.0,0.0,0.0,0.0,0.0,0.0,0.0,0.0,0.0,0.0,0.0,0.0,0.0,0.0,0.0,0.0,0.0,0.0,0.0,0.0,0.0,0.0,0.0,0.0,0.0,0.0,0.0,0.0,0.0,0.0,0.0,0.0,0.0,0.0,0.0,0.0,0.0,0.0,0.0,0.0,0.0,0.0,0.0,0.0,0.0,0.0,0.0,0.0,0.0,0.0,0.0,0.0,0.0,0.0,0.0,0.0,0.0,0.0,0.0,0.0,0.0,0.0,0.0,0.0,0.0,0.0,0.0,0.0,0.0,0.0,0.0,0.0,0.0,0.0,0.0,0.0,0.0,0.0,0.0,0.0,0.0,0.0,0.0,0.0,0.0,0.0,0.0,0.0,0.0,0.0,0.0,0.0,0.0,0.0,0.0,0.0,0.0,0.0,0.0,0.0,0.0,0.0,0.0,0.0,0.0,0.0,0.0,0.0,0.0,0.0,0.0,0.0,0.0,0.0,0.0,0.0,0.0,0.0,0.0,0.0,0.0,0.0,0.0,0.0,0.0,0.0,0.0,0.0,0.0,0.0,0.0,0.0,0.0,0.0,0.0,0.0,0.0,0.0,0.0,0.0,0.0,0.0,0.0,0.0,0.0,0.0,0.0,0.0,0.0,0.0,0.0,0.0,0.0,0.0,0.0,0.0,0.0,0.0,0.0,0.0,0.0,0.0,0.0,0.0,0.0,0.0,0.0,0.0,0.0,0.0,0.0,0.0,0.0,0.0,0.0,0.0,0.0,0.0,0.0,0.0,0.0,0.0,0.0,0.0,0.0,0.0,0.0,0.0,0.0,0.0,0.0,0.0,0.0,0.0,0.0,0.0,0.0,0.0,0.0,0.0,0.0,0.0,0.0,0.0,0.0,0.0,0.0,0.0,0.0,0.0,0.0,0.0,0.0,0.0,0.0,0.0,0.0,0.0,0.0,0.0,0.0,0.0,0.0,0.0,0.0,0.0,0.0,0.0,0.0,0.0,0.0,0.0,0.0,0.0,0.0,0.0,0.0,0.0,0.0,0.0,0.0,0.0,0.0,0.0,0.0,0.0,0.0,0.0,0.0,0.0,0.0,0.0,0.0,0.0,0.0,0.0,0.0,0.0,0.0,0.0,0.0,0.0,0.0,0.0,0.0,0.0,0.0,0.0,0.0,0.0,0.0,0.0,0.0,0.0,0.0,0.0,0.0,0.0,0.0,0.0,0.0,0.0,0.0,0.0,0.0,0.0,0.0,0.0,0.0,0.0,0.0,0.0,0.0,0.0,0.0,0.0,0.0,0.0,0.0,0.0,0.0,0.0,0.0,0.0,0.0,0.0,0.0,0.0,0.0,0.0,0.0,0.0,0.0,0.0,0.0,0.0,0.0,0.0,0.0,0.0,0.0,0.0,0.0,0.0,0.0,0.0,0.0,0.0,0.0,0.0,0.0,0.0,0.0,0.0,0.0,0.0,0.0,0.0,0.0,0.0,0.0,0.0,0.0,0.0,0.0,0.0,0.0,0.0,0.0,0.0,0.0,0.0,0.0,0.0,0.0,0.0,0.0,0.0,0.0,0.0,0.0,0.0,0.0,0.0,0.0,0.0,0.0,0.0,0.0,0.0,0.0,0.0,0.0,0.0,0.0,0.0,0.0,0.0,0.0,0.0,0.0,0.0,0.0,0.0,0.0,0.0,0.0,0.0,0.0,0.0,0.0,0.0,0.0,0.0,0.0,0.0,0.0,0.0,0.0,0.0,0.0,0.0,0.0,0.0,0.0,0.0,0.0,0.0,0.0,0.0,0.0,0.0,0.0,0.0,0.0,0.0,0.0,0.0,0.0,0.0,0.0,0.0,-0.7875,0.0,0.0,0.0,-0.7563,0.0,0.0,0.0,0.0,0.0,0.0,0.0,0.0,0.0,0.0,0.0,0.0,0.0,0.0,0.0,0.0,0.0,0.0,0.0,0.0,0.0,0.0,0.0,0.0,0.0,0.0,0.0,0.0,0.0,0.0,0.0,0.0,0.0,0.0,0.0,0.0,0.0,0.0,0.0,0.0,0.0,0.0,0.0,0.0,0.0,0.0,0.0,0.0,0.0,0.0,0.0,0.0,0.0,0.0,0.0,0.0,0.0,0.0,0.0,0.0,0.0,0.0,0.0,0.0,0.0,0.0,0.0,0.0,0.0,0.0,0.0,0.0,0.0,0.0,0.0,0.0,0.0,0.0,0.0,0.0,0.0,0.0,0.0,0.0,0.0,0.0,0.0,0.0,0.0,0.0,0.0,0.0,0.0,0.0,0.0,0.0,0.0,0.0,0.0,0.0,0.0,0.0,0.0,0.0,0.0,0.0,0.0,0.0,0.0,0.0,-0.7882,-0.8031,-0.7753,-0.7597,-0.759,0.0,0.0,0.0,0.0,0.0,0.0,0.0,0.0,0.0,0.0,0.0,0.0,0.0,0.0,0.0,0.0,0.0,0.0,0.0,0.0,0.0,0.0,0.0,0.0,0.0,0.0,0.0,0.0,0.0,0.0,0.0,0.0,0.0,0.0,0.0,0.0,0.0,0.0,0.0,0.0,0.0,0.0,0.0,0.0,0.0,0.0,0.0,0.0,0.0,0.0,0.0,0.0,0.0,0.0,0.0,0.0,0.0,0.0,0.0,0.0,0.0,0.0,0.0,0.0,0.0,0.0,0.0,0.0,0.0,0.0,0.0,0.0,0.0,0.0,0.0,0.0,0.0,0.0,0.0,0.0,0.0,0.0,0.0,0.0,0.0,0.0,0.0,0.0,0.0,0.0,0.0,0.0,0.0,0.0,0.0,0.0,0.0,0.0,0.0,0.0,0.0,0.0,0.0,0.0,0.0,0.0,0.0,0.0,0.0,0.0,0.0,0.0,-0.7801,-0.7651,-0.7636,0.0,0.0,0.0,0.0,0.0,0.0,0.0,0.0,0.0,0.0,0.0,0.0,0.0,0.0,0.0,0.0,0.0,0.0,0.0,0.0,0.0,0.0,0.0,0.0,0.0,0.0,0.0,0.0,0.0,0.0,0.0,0.0,0.0,0.0,0.0,0.0,0.0,0.0,0.0,0.0,0.0,0.0,0.0,0.0,0.0,0.0,0.0,0.0,0.0,0.0,0.0,0.0,0.0,0.0,0.0,0.0,0.0,0.0,0.0,0.0,0.0,0.0,0.0,0.0,0.0,0.0,0.0,0.0,0.0,0.0,0.0,0.0,0.0,0.0,0.0,0.0,0.0,0.0,0.0,0.0,0.0,0.0,0.0,0.0,0.0,0.0,0.0,0.0,0.0,0.0,0.0,0.0,0.0,0.0,0.0,0.0,0.0,0.0,0.0,0.0,0.0,0.0,0.0,0.0,0.0,0.0,0.0,0.0,0.0,0.0,-0.7957,-0.7841,-0.7936,0.0,-0.7506,0.0,0.0,0.0,0.0,0.0,0.0,0.0,0.0,0.0,0.0,0.0,0.0,0.0,0.0,0.0,0.0,0.0,0.0,0.0,0.0,0.0,0.0,0.0,0.0,0.0,0.0,0.0,0.0,0.0,0.0,0.0,0.0,0.0,0.0,0.0,0.0,0.0,0.0,0.0,0.0,0.0,0.0,0.0,0.0,0.0,0.0,0.0,0.0,0.0,0.0,0.0,0.0,0.0,0.0,0.0,0.0,0.0,0.0,0.0,0.0,0.0,0.0,0.0,0.0,0.0,0.0,0.0,0.0,0.0,0.0,0.0,0.0,0.0,0.0,0.0,0.0,0.0,0.0,0.0,0.0,0.0,0.0,0.0,0.0,0.0,0.0,0.0,0.0,0.0,0.0,0.0,0.0,0.0,0.0,0.0,0.0,0.0,0.0,0.0,0.0,0.0,0.0,0.0,0.0,0.0,0.0,0.0,0.0,0.0,0.0,-0.8011,-0.795,-0.7841,-0.7651,0.0,0.0,0.0,0.0,0.0,0.0,0.0,0.0,0.0,0.0,0.0,0.0,0.0,0.0,0.0,0.0,0.0,0.0,0.0,0.0,0.0,0.0,0.0,0.0,0.0,0.0,0.0,0.0,0.0,0.0,0.0,0.0,0.0,0.0,0.0,0.0,0.0,0.0,0.0,0.0,0.0,0.0,0.0,0.0,0.0,0.0,0.0,0.0,0.0,0.0,0.0,0.0,0.0,0.0,0.0,0.0,0.0,0.0,0.0,0.0,0.0,0.0,0.0,0.0,0.0,0.0,0.0,0.0,0.0,0.0,0.0,0.0,0.0,0.0,0.0,0.0,0.0,0.0,0.0,0.0,0.0,0.0,0.0,0.0,0.0,0.0,0.0,0.0,0.0,0.0,0.0,0.0,0.0,0.0,0.0,0.0,0.0,0.0,0.0,0.0,0.0,0.0,0.0,0.0,0.0,0.0,0.0,0.0,0.0,0.0,-0.8018,-0.8038,-0.8031,-0.7828,-0.759,-0.7319,0.0,0.0,0.0,0.0,0.0,0.0,0.0,0.0,0.0,0.0,0.0,0.0,0.0,0.0,0.0,0.0,0.0,0.0,0.0,0.0,0.0,0.0,0.0,0.0,0.0,0.0,0.0,0.0,0.0,0.0,0.0,0.0,0.0,0.0,0.0,0.0,0.0,0.0,0.0,0.0,0.0,0.0,0.0,0.0,0.0,0.0,0.0,0.0,0.0,0.0,0.0,0.0,0.0,0.0,0.0,0.0,0.0,0.0,0.0,0.0,0.0,0.0,0.0,0.0,0.0,0.0,0.0,0.0,0.0,0.0,0.0,0.0,0.0,0.0,0.0,0.0,0.0,0.0,0.0,0.0,0.0,0.0,0.0,0.0,0.0,0.0,0.0,0.0,0.0,0.0,0.0,0.0,0.0,0.0,0.0,0.0,0.0,0.0,0.0,0.0,0.0,0.0,0.0,0.0,0.0,0.0,0.0,0.0,-0.8035,-0.7963,-0.8038,-0.8038,-0.8024,-0.7746,0.0,0.0,0.0,0.0,0.0,0.0,0.0,0.0,0.0,0.0,0.0,0.0,0.0,0.0,0.0,0.0,0.0,0.0,0.0,0.0,0.0,0.0,0.0,0.0,0.0,0.0,0.0,0.0,0.0,0.0,0.0,0.0,0.0,0.0,0.0,0.0,0.0,0.0,0.0,0.0,0.0,0.0,0.0,0.0,0.0,0.0,0.0,0.0,0.0,0.0,0.0,0.0,0.0,0.0,0.0,0.0,0.0,0.0,0.0,0.0,0.0,0.0,0.0,0.0,0.0,0.0,0.0,0.0,0.0,0.0,0.0,0.0,0.0,0.0,0.0,0.0,0.0,0.0,0.0,0.0,0.0,0.0,0.0,0.0,0.0,0.0,0.0,0.0,0.0,0.0,0.0,0.0,0.0,0.0,0.0,0.0,0.0,0.0,0.0,0.0,0.0,0.0,0.0,0.0,0.0,0.0,0.0,0.0,0.0,-0.7963,-0.8011,-0.8038,-0.8031,-0.7767,-0.7461,0.0,0.0,0.0,0.0,0.0,0.0,0.0,0.0,0.0,0.0,0.0,0.0,0.0,0.0,0.0,0.0,0.0,0.0,0.0,0.0,0.0,0.0,0.0,0.0,0.0,0.0,0.0,0.0,0.0,0.0,0.0,0.0,0.0,0.0,0.0,0.0,0.0,0.0,0.0,0.0,0.0,0.0,0.0,0.0,0.0,0.0,0.0,0.0,0.0,0.0,0.0,0.0,0.0,0.0,0.0,0.0,0.0,0.0,0.0,0.0,0.0,0.0,0.0,0.0,0.0,0.0,0.0,0.0,0.0,0.0,0.0,0.0,0.0,0.0,0.0,0.0,0.0,0.0,0.0,0.0,0.0,0.0,0.0,0.0,0.0,0.0,0.0,0.0,0.0,0.0,0.0,0.0,0.0,0.0,0.0,0.0,0.0,0.0,0.0,0.0,0.0,0.0,0.0,0.0,0.0,0.0,0.0,0.0,0.0,-0.7963,-0.8018,-0.8018,-0.7957,-0.7678,-0.7373,0.0,0.0,0.0,0.0,0.0,0.0,0.0,0.0,0.0,0.0,0.0,0.0,0.0,0.0,0.0,0.0,0.0,0.0,0.0,0.0,0.0,0.0,0.0,0.0,0.0,0.0,0.0,0.0,0.0,0.0,0.0,0.0,0.0,0.0,0.0,0.0,0.0,0.0,0.0,0.0,0.0,0.0,0.0,0.0,0.0,0.0,0.0,0.0,0.0,0.0,0.0,0.0,0.0,0.0,0.0,0.0,0.0,0.0,0.0,0.0,0.0,0.0,0.0,0.0,0.0,0.0,0.0,0.0,0.0,0.0,0.0,0.0,0.0,0.0,0.0,0.0,0.0,0.0,0.0,0.0,0.0,0.0,0.0,0.0,0.0,0.0,0.0,0.0,0.0,0.0,0.0,0.0,0.0,0.0,0.0,0.0,0.0,0.0,0.0,0.0,0.0,0.0,0.0,0.0,0.0,0.0,0.0,0.0,-0.7678,-0.7814,-0.7963,-0.7977,-0.7821,-0.7794,-0.7522,0.0,0.0,0.0,0.0,0.0,0.0,0.0,0.0,0.0,0.0,0.0,0.0,0.0,0.0,0.0,0.0,0.0,0.0,0.0,0.0,0.0,0.0,0.0,0.0,0.0,0.0,0.0,0.0,0.0,0.0,0.0,0.0,0.0,0.0,0.0,0.0,0.0,0.0,0.0,0.0,0.0,0.0,0.0,0.0,0.0,0.0,0.0,0.0,0.0,0.0,0.0,0.0,0.0,0.0,0.0,0.0,0.0,0.0,0.0,0.0,0.0,0.0,0.0,0.0,0.0,0.0,0.0,0.0,0.0,0.0,0.0,0.0,0.0,0.0,0.0,0.0,0.0,0.0,0.0,0.0,0.0,0.0,0.0,0.0,0.0,0.0,0.0,0.0,0.0,0.0,0.0,0.0,0.0,0.0,0.0,0.0,0.0,0.0,0.0,0.0,0.0,0.0,0.0,0.0,0.0,0.0,0.0,0.0,0.0,-0.7814,-0.7963,-0.8018,-0.7963,-0.7672,-0.7373,0.0,0.0,0.0,0.0,0.0,0.0,0.0,0.0,0.0,0.0,0.0,0.0,0.0,0.0,0.0,0.0,0.0,0.0,0.0,0.0,0.0,0.0,0.0,0.0,0.0,0.0,0.0,0.0,0.0,0.0,0.0,0.0,0.0,0.0,0.0,0.0,0.0,0.0,0.0,0.0,0.0,0.0,0.0,0.0,0.0,0.0,0.0,0.0,0.0,0.0,0.0,0.0,0.0,0.0,0.0,0.0,0.0,0.0,0.0,0.0,0.0,0.0,0.0,0.0,0.0,0.0,0.0,0.0,0.0,0.0,0.0,0.0,0.0,0.0,0.0,0.0,0.0,0.0,0.0,0.0,0.0,0.0,0.0,0.0,0.0,0.0,0.0,0.0,0.0,0.0,0.0,0.0,0.0,0.0,0.0,0.0,0.0,0.0,0.0,0.0,0.0,0.0,0.0,0.0,0.0,0.0,0.0,0.0,0.0,-0.8065,-0.8208,-0.8262,-0.8208,-0.7882,-0.7529,-0.7149,0.0,0.0,0.0,0.0,0.0,0.0,0.0,0.0,0.0,0.0,0.0,0.0,0.0,0.0,0.0,0.0,0.0,0.0,0.0,0.0,0.0,0.0,0.0,0.0,0.0,0.0,0.0,0.0,0.0,0.0,0.0,0.0,0.0,0.0,0.0,0.0,0.0,0.0,0.0,0.0,0.0,0.0,0.0,0.0,0.0,0.0,0.0,0.0,0.0,0.0,0.0,0.0,0.0,0.0,0.0,0.0,0.0,0.0,0.0,0.0,0.0,0.0,0.0,0.0,0.0,0.0,0.0,0.0,0.0,0.0,0.0,0.0,0.0,0.0,0.0,0.0,0.0,0.0,0.0,0.0,0.0,0.0,0.0,0.0,0.0,0.0,0.0,0.0,0.0,0.0,0.0,0.0,0.0,0.0,0.0,0.0,0.0,0.0,0.0,0.0,0.0,0.0,0.0,0.0,0.0,0.0,0.0,0.0,-0.8547,-0.871,-0.8716,-0.854,-0.8357,-0.7929,0.0,0.0,0.0,0.0,0.0,0.0,0.0,0.0,0.0,0.0,0.0,0.0,0.0,0.0,0.0,0.0,0.0,0.0,0.0,0.0,0.0,0.0,0.0,0.0,0.0,0.0,0.0,0.0,0.0,0.0,0.0,0.0,0.0,0.0,0.0,0.0,0.0,0.0,0.0,0.0,0.0,0.0,0.0,0.0,0.0,0.0,0.0,0.0,0.0,0.0,0.0,0.0,0.0,0.0,0.0,0.0,0.0,0.0,0.0,0.0,0.0,0.0,0.0,0.0,0.0,0.0,0.0,0.0,0.0,0.0,0.0,0.0,0.0,0.0,0.0,0.0,0.0,0.0,0.0,0.0,0.0,0.0,0.0,0.0,0.0,0.0,0.0,0.0,0.0,0.0,0.0,0.0,0.0,0.0,0.0,0.0,0.0,0.0,0.0,0.0,0.0,0.0,0.0,0.0,0.0,0.0,0.0,0.0,0.0,-0.93,-0.968,-0.9513,-0.8804,-0.8468,-0.8019,0.0,0.0,0.0,0.0,0.0,0.0,0.0,0.0,0.0,0.0,0.0,0.0,0.0,0.0,0.0,0.0,0.0,0.0,0.0,0.0,0.0,0.0,0.0,0.0,0.0,0.0,0.0,0.0,0.0,0.0,0.0,0.0,0.0,0.0,0.0,0.0,0.0,0.0,0.0,0.0,0.0,0.0,0.0,0.0,0.0,0.0,0.0,0.0,0.0,0.0,0.0,0.0,0.0,0.0,0.0,0.0,0.0,0.0,0.0,0.0,0.0,0.0,0.0,0.0,0.0,0.0,0.0,0.0,0.0,0.0,0.0,0.0,0.0,0.0,0.0,0.0,0.0,0.0,0.0,0.0,0.0,0.0,0.0,0.0,0.0,0.0,0.0,0.0,0.0,0.0,0.0,0.0,0.0,0.0,0.0,0.0,0.0,0.0,0.0,0.0,0.0,0.0,0.0,0.0,0.0,0.0,0.0,0.0,-0.9546,-0.9693,-1.0324,-1.048,-0.9883,-0.9171,-0.8501,0.0,0.0,0.0,0.0,0.0,0.0,0.0,0.0,0.0,0.0,0.0,0.0,0.0,0.0,0.0,0.0,0.0,0.0,0.0,0.0,0.0,0.0,0.0,0.0,0.0,0.0,0.0,0.0,0.0,0.0,0.0,0.0,0.0,0.0,0.0,0.0,0.0,0.0,0.0,0.0,0.0,0.0,0.0,0.0,0.0,0.0,0.0,0.0,0.0,0.0,0.0,0.0,0.0,0.0,0.0,0.0,0.0,0.0,0.0,0.0,0.0,0.0,0.0,0.0,0.0,0.0,0.0,0.0,0.0,0.0,0.0,0.0,0.0,0.0,0.0,0.0,0.0,0.0,0.0,0.0,0.0,0.0,0.0,0.0,0.0,0.0,0.0,0.0,0.0,0.0,0.0,0.0,0.0,0.0,0.0,0.0,0.0,0.0,0.0,0.0,0.0,0.0,0.0,0.0,0.0,0.0,0.0,0.0,-0.9827,-0.9897,-1.0751,-1.1199,-1.1296,-1.0168,-0.9225,0.0,0.0,0.0,0.0,0.0,0.0,0.0,0.0,0.0,0.0,0.0,0.0,0.0,0.0,0.0,0.0,0.0,0.0,0.0,0.0,0.0,0.0,0.0,0.0,0.0,0.0,0.0,0.0,0.0,0.0,0.0,0.0,0.0,0.0,0.0,0.0,0.0,0.0,0.0,0.0,0.0,0.0,0.0,0.0,0.0,0.0,0.0,0.0,0.0,0.0,0.0,0.0,0.0,0.0,0.0,0.0,0.0,0.0,0.0,0.0,0.0,0.0,0.0,0.0,0.0,0.0,0.0,0.0,0.0,0.0,0.0,0.0,0.0,0.0,0.0,0.0,0.0,0.0,0.0,0.0,0.0,0.0,0.0,0.0,0.0,0.0,0.0,0.0,0.0,0.0,0.0,0.0,0.0,0.0,0.0,0.0,0.0,0.0,0.0,0.0,0.0,0.0,0.0,0.0,0.0,0.0,0.0,0.0,-1.0229,-1.0351,-1.1118,-1.1463,-1.1341,-1.0215,-0.9345,0.0,0.0,0.0,0.0,0.0,0.0,0.0,0.0,0.0,0.0,0.0,0.0,0.0,0.0,0.0,0.0,0.0,0.0,0.0,0.0,0.0,0.0,0.0,0.0,0.0,0.0,0.0,0.0,0.0,0.0,0.0,0.0,0.0,0.0,0.0,0.0,0.0,0.0,0.0,0.0,0.0,0.0,0.0,0.0,0.0,0.0,0.0,0.0,-1.515,0.0,0.0,0.0,0.0,0.0,0.0,0.0,0.0,0.0,0.0,0.0,0.0,0.0,0.0,0.0,0.0,0.0,0.0,0.0,0.0,0.0,0.0,0.0,0.0,0.0,0.0,0.0,0.0,0.0,0.0,0.0,0.0,0.0,0.0,0.0,0.0,0.0,0.0,0.0,0.0,0.0,0.0,0.0,0.0,0.0,0.0,0.0,0.0,0.0,0.0,0.0,0.0,0.0,0.0,0.0,0.0,0.0,0.0,0.0,-1.0789,-1.0792,-1.1402,-1.1714,-1.1674,-1.0819,-0.9908,0.0,0.0,0.0,0.0,0.0,0.0,0.0,0.0,0.0,0.0,0.0,0.0,0.0,0.0,0.0,0.0,0.0,0.0,0.0,0.0,0.0,0.0,0.0,0.0,0.0,0.0,0.0,0.0,0.0,0.0,0.0,0.0,0.0,0.0,0.0,0.0,0.0,0.0,0.0,0.0,0.0,0.0,0.0,0.0,0.0,0.0,0.0,0.0,0.0,0.0,0.0,0.0,0.0,0.0,0.0,0.0,0.0,0.0,0.0,0.0,0.0,0.0,0.0,0.0,0.0,0.0,0.0,0.0,0.0,0.0,0.0,0.0,0.0,0.0,0.0,0.0,0.0,0.0,0.0,0.0,0.0,0.0,0.0,0.0,0.0,0.0,0.0,0.0,0.0,0.0,0.0,0.0,0.0,0.0,0.0,0.0,0.0,0.0,0.0,0.0,0.0,0.0,0.0,0.0,0.0,0.0,0.0,-1.062,-1.1221,-1.124,-1.1681,-1.1972,-1.2115,-1.1565,-1.0717,-0.9564,0.0,0.0,0.0,0.0,0.0,0.0,0.0,0.0,0.0,0.0,0.0,0.0,0.0,0.0,0.0,0.0,0.0,0.0,0.0,0.0,0.0,0.0,0.0,0.0,0.0,0.0,0.0,0.0,0.0,0.0,0.0,0.0,0.0,0.0,0.0,0.0,0.0,0.0,-1.5551,-1.5738,0.0,0.0,0.0,0.0,0.0,0.0,0.0,0.0,-1.4691,0.0,0.0,0.0,0.0,0.0,0.0,0.0,0.0,0.0,0.0,0.0,0.0,0.0,0.0,0.0,0.0,0.0,0.0,0.0,0.0,0.0,0.0,0.0,0.0,0.0,0.0,0.0,0.0,0.0,0.0,0.0,0.0,0.0,0.0,0.0,0.0,0.0,0.0,0.0,0.0,0.0,0.0,0.0,0.0,0.0,0.0,0.0,0.0,0.0,0.0,0.0,0.0,0.0,0.0,0.0,0.0,-0.9523,-1.0868,-1.1538,-1.1687,-1.2047,-1.2284,-1.2406,-1.1972,-1.1219,-1.0175,0.0,0.0,0.0,0.0,0.0,0.0,0.0,0.0,0.0,0.0,0.0,0.0,0.0,0.0,0.0,0.0,0.0,0.0,0.0,0.0,0.0,0.0,0.0,0.0,0.0,0.0,0.0,0.0,0.0,0.0,0.0,0.0,0.0,0.0,0.0,0.0,0.0,0.0,0.0,-1.6112,-1.6032,0.0,0.0,0.0,0.0,0.0,0.0,0.0,0.0,-1.5465,0.0,0.0,0.0,0.0,0.0,0.0,0.0,0.0,0.0,0.0,0.0,0.0,0.0,0.0,0.0,0.0,0.0,0.0,0.0,0.0,0.0,0.0,0.0,0.0,0.0,0.0,0.0,0.0,0.0,0.0,0.0,0.0,0.0,0.0,0.0,0.0,0.0,0.0,0.0,0.0,0.0,0.0,0.0,0.0,0.0,0.0,0.0,0.0,0.0,0.0,0.0,0.0,0.0,0.0,0.0,-0.97,-1.1084,-1.1924,-1.2026,-1.2284,-1.2508,-1.2718,-1.2149,-1.1382,0.0,0.0,0.0,0.0,0.0,0.0,0.0,0.0,0.0,0.0,0.0,0.0,0.0,0.0,0.0,0.0,0.0,0.0,0.0,0.0,0.0,0.0,0.0,0.0,0.0,0.0,0.0,0.0,0.0,0.0,0.0,0.0,0.0,0.0,0.0,0.0,0.0,0.0,0.0,0.0,-1.65,-1.662,-1.6901,0.0,0.0,0.0,0.0,0.0,0.0,-1.446,-1.4582,0.0,0.0,0.0,0.0,0.0,0.0,0.0,0.0,0.0,0.0,0.0,0.0,0.0,0.0,0.0,0.0,0.0,0.0,0.0,0.0,0.0,0.0,0.0,0.0,0.0,0.0,0.0,0.0,0.0,0.0,0.0,0.0,0.0,0.0,0.0,0.0,0.0,0.0,0.0,0.0,0.0,0.0,0.0,0.0,0.0,0.0,0.0,0.0,0.0,0.0,0.0,0.0,0.0,0.0,0.0,-0.9822,-1.1374,-1.2129,-1.2284,-1.2474,-1.2712,-1.3017,-1.223,-1.1396,0.0,0.0,0.0,0.0,0.0,0.0,0.0,0.0,0.0,0.0,0.0,0.0,0.0,0.0,0.0,0.0,0.0,0.0,0.0,0.0,0.0,0.0,0.0,0.0,0.0,0.0,0.0,0.0,0.0,0.0,0.0,0.0,0.0,0.0,0.0,0.0,0.0,0.0,0.0,0.0,0.0,-1.6872,-1.7315,-1.7015,0.0,0.0,0.0,0.0,-1.436,-1.4317,0.0,0.0,0.0,0.0,0.0,0.0,0.0,0.0,0.0,0.0,0.0,0.0,0.0,0.0,0.0,0.0,0.0,0.0,0.0,0.0,0.0,0.0,0.0,0.0,0.0,0.0,0.0,0.0,0.0,0.0,0.0,0.0,0.0,0.0,0.0,0.0,0.0,0.0,0.0,0.0,0.0,0.0,0.0,0.0,0.0,0.0,0.0,0.0,0.0,0.0,0.0,0.0,0.0,0.0,0.0,0.0,-0.9822,-1.1374,-1.2179,-1.2427,-1.2623,-1.2908,-1.3322,-1.2244,-1.1348,0.0,0.0,0.0,0.0,0.0,0.0,0.0,0.0,0.0,0.0,0.0,0.0,0.0,0.0,0.0,0.0,0.0,0.0,0.0,0.0,0.0,0.0,0.0,0.0,0.0,0.0,0.0,0.0,0.0,0.0,0.0,0.0,0.0,0.0,0.0,0.0,0.0,0.0,0.0,0.0,0.0,-1.5632,-1.7648,-1.62,-1.5439,0.0,0.0,-1.6356,-1.5056,-1.5234,0.0,0.0,0.0,0.0,0.0,0.0,0.0,0.0,0.0,0.0,0.0,0.0,0.0,0.0,0.0,0.0,0.0,0.0,0.0,0.0,0.0,0.0,0.0,0.0,0.0,0.0,0.0,0.0,0.0,0.0,0.0,0.0,0.0,0.0,0.0,0.0,0.0,0.0,0.0,0.0,0.0,0.0,0.0,0.0,0.0,0.0,0.0,0.0,0.0,0.0,0.0,0.0,0.0,0.0,0.0,-0.8679,-0.9964,-1.1361,-1.2283,-1.2603,-1.2786,-1.3037,-1.339,-1.2318,-1.1416,0.0,0.0,0.0,0.0,0.0,0.0,0.0,0.0,0.0,0.0,0.0,0.0,0.0,0.0,0.0,0.0,0.0,0.0,0.0,0.0,0.0,0.0,0.0,0.0,0.0,0.0,0.0,0.0,0.0,0.0,0.0,0.0,0.0,0.0,0.0,0.0,0.0,0.0,0.0,0.0,0.0,0.0,-1.5482,-1.5424,0.0,0.0,0.0,-1.6405,-1.6453,0.0,0.0,0.0,0.0,0.0,0.0,0.0,0.0,0.0,0.0,0.0,0.0,0.0,0.0,0.0,0.0,0.0,0.0,0.0,0.0,0.0,0.0,0.0,0.0,0.0,0.0,0.0,0.0,0.0,0.0,0.0,0.0,0.0,0.0,0.0,0.0,0.0,0.0,0.0,0.0,0.0,0.0,0.0,0.0,0.0,0.0,0.0,0.0,0.0,0.0,0.0,0.0,0.0,0.0,0.0,0.0,0.0,-1.0066,-1.1406,-1.2319,-1.2712,-1.2881,-1.3105,-1.337,-1.2454,0.0,0.0,0.0,0.0,0.0,0.0,0.0,0.0,0.0,0.0,0.0,0.0,0.0,0.0,0.0,0.0,0.0,0.0,0.0,0.0,0.0,0.0,0.0,0.0,0.0,0.0,0.0,-0.641,0.0,0.0,0.0,0.0,0.0,0.0,0.0,0.0,0.0,0.0,0.0,0.0,0.0,0.0,-1.4551,-1.3871,-1.4675,-1.5407,0.0,0.0,-1.5975,-1.6698,-1.6445,-1.6287,0.0,0.0,0.0,0.0,0.0,0.0,0.0,0.0,0.0,0.0,0.0,0.0,0.0,0.0,0.0,0.0,0.0,0.0,0.0,0.0,0.0,0.0,0.0,0.0,0.0,0.0,0.0,0.0,0.0,0.0,0.0,0.0,0.0,0.0,0.0,0.0,0.0,0.0,0.0,0.0,0.0,0.0,0.0,0.0,0.0,0.0,0.0,0.0,0.0,0.0,0.0,0.0,0.0,0.0,0.0,-1.008,-1.1657,-1.2581,-1.2718,-1.2881,-1.3098,-1.3376,-1.2664,-1.1775,0.0,0.0,0.0,0.0,0.0,0.0,0.0,0.0,0.0,0.0,0.0,0.0,0.0,0.0,0.0,0.0,0.0,0.0,0.0,0.0,0.0,0.0,0.0,0.0,0.0,0.0,0.0,0.0,0.0,0.0,0.0,0.0,0.0,0.0,0.0,0.0,0.0,0.0,0.0,0.0,0.0,-1.2443,-1.4143,-1.4173,-1.4211,0.0,0.0,-1.5754,-1.4741,-1.4891,-1.5256,-1.5705,0.0,0.0,0.0,0.0,0.0,0.0,0.0,0.0,0.0,0.0,0.0,0.0,0.0,0.0,0.0,0.0,0.0,0.0,0.0,0.0,0.0,0.0,0.0,0.0,0.0,0.0,0.0,0.0,0.0,0.0,0.0,0.0,0.0,0.0,0.0,0.0,0.0,0.0,0.0,0.0,0.0,0.0,0.0,0.0,0.0,0.0,0.0,0.0,0.0,0.0,0.0,0.0,0.0,-0.8757,-1.0202,-1.1667,-1.258,-1.2854,-1.2929,-1.3105,-1.339,-1.2854,-1.2115,0.0,0.0,0.0,0.0,0.0,0.0,0.0,0.0,0.0,0.0,0.0,0.0,0.0,0.0,0.0,0.0,0.0,0.0,0.0,0.0,0.0,0.0,0.0,0.0,0.0,0.0,0.0,0.0,-0.8438,-0.9777,-1.185,0.0,0.0,0.0,0.0,0.0,0.0,0.0,0.0,0.0,0.0,-1.1733,-1.1896,-1.2532,0.0,0.0,-1.4586,-1.5476,-1.5881,-1.609,-1.6328,-1.677,-1.6377,0.0,0.0,0.0,0.0,0.0,0.0,0.0,0.0,0.0,0.0,0.0,0.0,0.0,0.0,0.0,0.0,0.0,0.0,0.0,0.0,0.0,0.0,0.0,0.0,0.0,0.0,0.0,0.0,0.0,0.0,0.0,0.0,0.0,0.0,0.0,0.0,0.0,0.0,0.0,0.0,0.0,0.0,0.0,0.0,0.0,0.0,0.0,0.0,0.0,0.0,0.0,0.0,-0.8705,-1.0283,-1.1756,-1.267,-1.2956,-1.2963,-1.3098,-1.3376,-1.3051,-1.244,0.0,0.0,0.0,0.0,0.0,0.0,0.0,0.0,0.0,0.0,0.0,0.0,0.0,0.0,0.0,0.0,0.0,0.0,0.0,0.0,0.0,0.0,0.0,0.0,0.0,0.0,0.0,0.0,-0.8667,-1.031,-1.2444,0.0,0.0,0.0,0.0,0.0,0.0,0.0,0.0,0.0,0.0,-1.1019,-1.0417,-1.1532,-1.2499,-1.2759,-1.3788,-1.4912,-1.5915,-1.6544,-1.6785,-1.6454,0.0,0.0,0.0,0.0,0.0,0.0,0.0,0.0,0.0,0.0,0.0,0.0,0.0,0.0,0.0,0.0,0.0,0.0,0.0,0.0,0.0,0.0,0.0,0.0,0.0,0.0,0.0,0.0,0.0,0.0,-0.717,0.0,0.0,0.0,0.0,0.0,0.0,0.0,0.0,0.0,0.0,0.0,0.0,0.0,0.0,0.0,0.0,0.0,0.0,0.0,0.0,0.0,0.0,-0.8453,-1.029,-1.1756,-1.267,-1.2942,-1.2963,-1.3098,-1.3376,-1.3247,-1.2739,-1.1837,0.0,0.0,0.0,0.0,0.0,0.0,0.0,0.0,0.0,0.0,0.0,0.0,0.0,0.0,0.0,0.0,0.0,0.0,0.0,0.0,0.0,0.0,0.0,0.0,0.0,0.0,-0.6797,-0.8399,-1.0063,0.0,0.0,0.0,0.0,0.0,0.0,0.0,0.0,0.0,0.0,-1.1232,-1.031,-1.046,-1.1629,-1.2312,-1.2447,-1.3305,-1.3908,-1.4004,-1.5731,-1.6198,0.0,0.0,0.0,0.0,0.0,0.0,0.0,0.0,0.0,0.0,0.0,0.0,0.0,0.0,0.0,0.0,0.0,0.0,0.0,0.0,0.0,0.0,0.0,0.0,0.0,0.0,0.0,-0.8584,-0.7978,0.0,0.0,0.0,0.0,0.0,0.0,0.0,0.0,0.0,0.0,0.0,-0.973,-0.9603,0.0,0.0,0.0,0.0,0.0,0.0,0.0,0.0,0.0,0.0,0.0,0.0,-0.8539,-1.0203,-1.1701,-1.2556,-1.28,-1.2908,-1.3051,-1.3247,-1.3302,-1.2854,-1.1857,0.0,0.0,0.0,0.0,0.0,0.0,0.0,0.0,0.0,0.0,0.0,0.0,0.0,0.0,0.0,0.0,0.0,0.0,0.0,0.0,0.0,0.0,0.0,0.0,0.0,-0.7675,0.0,0.0,0.0,0.0,0.0,0.0,0.0,0.0,0.0,0.0,0.0,-1.1028,-1.1612,-1.0627,-0.9958,-1.0304,-1.0862,-1.1322,0.0,0.0,0.0,0.0,0.0,0.0,0.0,0.0,0.0,0.0,0.0,0.0,0.0,0.0,-1.7114,-1.6032,-1.5114,-1.4509,-1.4425,0.0,0.0,0.0,0.0,0.0,0.0,0.0,0.0,0.0,0.0,0.0,0.0,0.0,0.0,0.0,0.0,-0.8136,0.0,0.0,0.0,0.0,0.0,0.0,0.0,0.0,-0.9231,-0.9537,-1.0699,-1.068,-1.0458,0.0,-1.0011,-0.9314,0.0,0.0,0.0,0.0,0.0,0.0,0.0,0.0,-0.8546,-1.0214,-1.1796,-1.2576,-1.2568,-1.2827,-1.2969,-1.3166,-1.322,-1.2922,-1.2244,-1.1409,-1.0955,0.0,0.0,0.0,0.0,0.0,0.0,0.0,0.0,0.0,0.0,0.0,0.0,0.0,0.0,0.0,0.0,0.0,0.0,0.0,0.0,0.0,0.0,0.0,-0.7991,0.0,0.0,0.0,0.0,0.0,0.0,0.0,0.0,0.0,-1.439,-1.2126,-1.0789,-1.1511,-1.0627,-1.0005,-1.0249,0.0,0.0,0.0,0.0,0.0,0.0,0.0,-1.624,-1.672,-1.6672,-1.6899,-1.7742,-1.8398,-1.8798,-1.8798,0.0,0.0,-1.7301,-1.6355,-1.5527,-1.4989,-1.3197,-1.155,-1.0775,-1.0366,-1.0247,0.0,0.0,0.0,0.0,0.0,0.0,0.0,0.0,-0.9902,-1.0721,0.0,-0.8838,0.0,0.0,0.0,0.0,0.0,-0.8141,0.0,0.0,-0.9952,-1.0772,-1.0781,-1.0767,-1.0857,-1.1226,-1.0638,-1.0186,-0.9771,-0.8896,0.0,0.0,0.0,0.0,0.0,0.0,-0.8716,-1.0085,-1.175,-1.2576,-1.2548,-1.2574,-1.2881,-1.3166,-1.3037,-1.2963,-1.2922,-1.1965,-1.1713,-1.2361,-1.0215,0.0,0.0,0.0,0.0,0.0,0.0,0.0,0.0,0.0,0.0,0.0,0.0,0.0,0.0,0.0,0.0,0.0,0.0,0.0,0.0,-0.7658,0.0,0.0,0.0,0.0,0.0,0.0,0.0,0.0,0.0,0.0,-1.4616,-1.2583,-1.1306,-1.1744,0.0,0.0,0.0,0.0,-1.0799,-1.1679,-1.3017,-1.4334,-1.54,-1.6408,-1.6506,-1.4913,0.0,0.0,-1.7528,-1.8638,-1.9362,-1.9452,-1.9907,-1.992,-1.8712,-1.8262,-1.7652,-1.6055,-1.4458,-1.3184,-1.1578,-1.0345,-0.9538,-0.9181,0.0,0.0,0.0,0.0,-0.9422,-0.9975,-1.0025,-1.0775,-1.0878,-1.0616,-0.9721,0.0,0.0,0.0,0.0,0.0,0.0,-1.0183,-1.0637,-1.1084,-1.1333,-1.1382,-1.1389,-1.141,-1.1446,-1.1368,-1.0898,-1.0424,-1.0372,-0.9962,-0.9283,0.0,0.0,0.0,0.0,-0.9157,-1.0253,-1.1762,-1.2522,-1.2562,-1.2779,-1.3037,-1.3329,-1.3091,-1.2963,-1.2956,-1.2461,-1.2206,-1.244,-1.1108,0.0,0.0,0.0,0.0,0.0,0.0,0.0,0.0,0.0,0.0,0.0,0.0,0.0,0.0,0.0,0.0,0.0,0.0,0.0,-0.7672,-0.8052,-0.8194,0.0,0.0,0.0,0.0,0.0,0.0,0.0,0.0,0.0,-1.3778,-1.2493,-1.1036,0.0,0.0,-0.9808,-0.9659,-1.0127,-1.0671,-1.1219,-1.2628,0.0,0.0,-1.525,-1.5703,-1.5497,-1.6069,-1.6868,-1.799,-1.877,-1.9468,-2.0697,-2.1069,-2.0729,-1.9206,-1.7564,-1.5996,-1.4128,-1.2432,-1.1248,-1.0631,-1.0266,-1.0019,-1.0364,-0.9417,-0.9207,-0.9042,-0.9201,-1.0176,-1.0868,-1.1045,-1.1269,-1.124,-1.0988,-1.0521,-1.0538,-1.0652,-0.9564,0.0,0.0,0.0,-1.1221,-1.1545,-1.1532,-1.1593,-1.1571,-1.1633,-1.1667,-1.1803,-1.1832,-1.1516,-1.0992,-1.0994,-1.069,-1.0053,0.0,0.0,-0.8683,-0.7557,-0.8016,-1.0084,-1.171,-1.2542,-1.2617,-1.2895,-1.3132,-1.3295,-1.3139,-1.3017,-1.2963,-1.2725,-1.2491,-1.2518,-1.158,-1.067,0.0,0.0,0.0,0.0,0.0,0.0,0.0,0.0,0.0,0.0,0.0,-0.7625,-0.7685,0.0,0.0,0.0,-0.7801,-0.8024,-0.8316,-0.8486,0.0,0.0,0.0,0.0,0.0,0.0,0.0,-1.348,-1.2899,-1.2513,-1.2166,-1.1954,-1.1399,-1.0009,-0.993,-1.0039,-1.0005,0.0,-1.0928,-1.1131,-1.2521,-1.3587,-1.3899,-1.4371,-1.4707,-1.4608,-1.5212,-1.5971,-1.6827,-1.757,-1.8575,-1.9393,-1.9759,-1.9259,-1.7644,-1.5968,-1.4642,-1.3413,-1.2287,-1.1431,-1.0596,-1.0453,-1.0453,-1.1643,-1.1565,-1.0976,-1.0713,-1.0809,-1.0823,-1.1073,-1.1607,-1.1635,-1.1625,-1.1524,-1.1365,-1.108,-1.0782,-1.0791,0.0,-1.1534,-1.1563,-1.1603,-1.1598,-1.1576,-1.1697,-1.1703,-1.1682,-1.1904,-1.2203,-1.2088,-1.2011,-1.1643,-1.1001,-1.0657,-1.0498,-1.0085,-0.982,-0.9601,-0.6223,-0.6344,-0.9954,-1.1296,-1.2271,-1.2979,-1.3212,-1.318,-1.3193,-1.318,-1.3112,-1.2983,-1.282,-1.261,-1.2477,-1.177,-1.1316,-1.1133,0.0,0.0,0.0,0.0,0.0,0.0,0.0,0.0,0.0,0.0,0.0,0.0,0.0,0.0,0.0,-0.8513,0.0,-0.9164,-0.8954,0.0,0.0,0.0,-1.0758,-1.0839,-1.2452,-1.303,-1.1837,0.0,0.0,-1.0358,-1.137,-1.1834,-1.0864,-1.0738,-1.0772,-1.0907,-1.1179,-1.1362,-1.1253,-1.2497,-1.3343,-1.3356,-1.3777,-1.3738,-1.2942,-1.362,-1.458,-1.4931,-1.5705,-1.6613,-1.7238,-1.7127,-1.6564,-1.475,-1.4318,-1.3891,-1.3452,-1.321,-1.2586,-1.1122,-1.0697,-1.069,-1.1523,-1.164,-1.1468,-1.1406,-1.1431,-1.1413,-1.1525,-1.1643,-1.1872,-1.1784,-1.1565,-1.1525,-1.1427,-1.1326,-1.1386,-1.1399,-1.165,-1.1646,-1.1543,-1.1596,-1.1669,-1.1851,-1.231,-1.2345,-1.2366,-1.2366,-1.2444,-1.222,-1.1683,-1.1543,-1.1342,-1.1101,-1.0948,-1.062,-1.0016,-0.8927,-0.9587,-1.1884,-0.9293,-0.9713,-1.3057,-1.3139,-1.3227,-1.3342,-1.3234,-1.3159,-1.3119,-1.2868,-1.2698,-1.2454,-1.2128,-1.1701,-1.1502,-1.0307,0.0,0.0,0.0,0.0,0.0,0.0,0.0,0.0,0.0,-0.8192,-0.7879,0.0,-0.8133,0.0,-0.9089,-0.9544,-0.9503,-0.953,0.0,0.0,-1.0448,-1.0914,-1.0162,-1.1479,-1.231,-1.1918,-1.1689,-1.1607,-1.198,-1.1627,-1.1298,-1.1179,-1.0934,-1.0731,-1.0785,-1.1233,-1.1592,-1.1681,-1.2227,-1.2771,-1.2749,-1.2863,-1.2817,-1.2481,-1.2741,-1.3376,-1.4448,-1.4922,-1.5686,-1.6826,-1.7215,-1.6558,-1.4958,-1.4669,-1.3896,-1.244,-1.1639,-1.129,-1.0724,-1.0724,-1.0724,-1.1791,-1.1643,-1.155,-1.1576,-1.1586,-1.1586,-1.1626,-1.1701,-1.201,-1.2086,-1.1932,-1.1703,-1.1569,-1.1579,-1.159,-1.1663,-1.167,-1.1898,-1.1979,-1.206,-1.1978,-1.2162,-1.2477,-1.2539,-1.2567,-1.2567,-1.2567,-1.2299,-1.1945,-1.1932,-1.1782,-1.1497,-1.1362,-1.1067,-1.0659,-1.0499,-1.0831,-1.1653,-1.0451,-1.0896,-1.3003,-1.3247,-1.3186,-1.301,-1.3051,-1.2888,-1.2494,-1.2447,-1.2277,-1.1804,-1.1633,-1.1214,-1.0829,-1.0089,-0.9639,0.0,0.0,0.0,0.0,0.0,0.0,0.0,0.0,0.0,0.0,0.0,-0.8676,-0.8777,-0.9476,-0.9836,-0.9625,-0.9734,-0.9815,-0.9808,-1.0386,-1.0716,-1.0218,-1.0883,-1.1479,-1.1456,-1.1133,-1.108,-1.1844,-1.1532,-1.1199,-1.1369,-1.1233,-1.1145,-1.1226,-1.1518,-1.1789,-1.2006,-1.225,-1.2433,-1.2488,-1.2501,-1.2501,-1.2501,-1.2501,-1.2741,-1.3635,-1.3748,-1.3987,-1.4859,-1.5112,-1.4817,-1.3808,-1.3467,-1.2857,-1.2015,-1.1246,-1.0955,-1.0914,-1.0914,-1.0914,-1.2108,-1.1671,-1.1626,-1.1632,-1.1665,-1.1663,-1.1656,-1.1755,-1.2081,-1.2244,-1.24,-1.1938,-1.1619,-1.1749,-1.1749,-1.1612,-1.1782,-1.2223,-1.2543,-1.2585,-1.2546,-1.2457,-1.2484,-1.2447,-1.2501,-1.2501,-1.2481,-1.2332,-1.2067,-1.204,-1.1884,-1.1599,-1.1613,-1.1525,-1.1201,-1.0639,-1.0582,-1.0757,-1.1749,-1.2548,-1.2956,-1.32,-1.2976,-1.2488,-1.2745,-1.2535,-1.1782,-1.1945,-1.1769,-1.1131,-1.0907,-1.0611,-1.009,-0.9916,-0.9849,0.0,-1.0794,0.0,0.0,0.0,0.0,0.0,0.0,0.0,0.0,-1.0716,-0.9395,-0.9279,-0.9761,-0.9992,-0.9774,-0.9883,-1.0019,-1.0148,-1.0297,-1.0446,-1.0568,-1.0697,-1.0826,-1.0962,-1.0995,-1.1056,-1.1165,-1.1328,-1.1423,-1.1436,-1.1511,-1.1599,-1.1755,-1.1796,-1.1918,-1.2223,-1.2277,-1.2352,-1.2467,-1.2501,-1.2501,-1.2501,-1.2501,-1.2501,-1.2642,-1.2642,-1.2608,-1.2491,-1.2609,-1.2409,-1.2121,-1.187,-1.1687,-1.166,-1.1423,-1.1212,-1.1151,-1.1138,-1.1165,-1.2409,-1.225,-1.1835,-1.1854,-1.2257,-1.2395,-1.2319,-1.2373,-1.2347,-1.2402,-1.2402,-1.2244,-1.2176,-1.2366,-1.206,-1.2128,-1.2395,-1.2428,-1.2505,-1.2574,-1.2491,-1.2512,-1.2461,-1.2488,-1.2501,-1.2494,-1.2233,-1.2085,-1.206,-1.2086,-1.1873,-1.1443,-1.1585,-1.1253,-1.0496,0.0,0.0,0.0,-0.7981,-0.8459,-1.2174,-1.228,-1.2257,-1.2155,-1.2433,0.0,-1.2338,-1.2162,-1.1844,-1.155,-1.1328,0.0,0.0,0.0,0.0,0.0,0.0,0.0,0.0,0.0,0.0,0.0,-1.2235,-1.1224,-1.0347,-0.9891,-0.9774,-0.9876,-1.01,-1.031,-1.0493,-1.0643,-1.0744,-1.0778,-1.09,-1.1009,-1.1036,-1.1056,-1.109,-1.1118,-1.1226,-1.1314,-1.1348,-1.1484,-1.1572,-1.1572,-1.1599,-1.1626,-1.1653,-1.1755,-1.1898,-1.2074,-1.2203,-1.2338,-1.2481,-1.2494,-1.2501,-1.2501,-1.2501,-1.2501,-1.2501,-1.2501,-1.2501,-1.2454,-1.2461,-1.2413,-1.2264,-1.2101,-1.1925,-1.1816,-1.1647,-1.1457,-1.1219,-1.1165,-1.1165,-1.256,0.0,-1.2179,-1.2192,0.0,-1.2574,-1.2519,-1.2443,-1.2519,-1.2553,-1.2553,-1.2393,-1.2352,-1.2436,-1.2284,-1.2436,-1.2443,-1.2519,-1.2368,-1.2126,-1.2291,-1.2484,-1.256,-1.2467,-1.2467,-1.2239,-1.2166,-1.2018,-1.1952,-1.2017,-1.1873,-1.1511,-1.1504,-1.1409,-1.0955,-0.839,-0.6541,-0.5474,-0.3536,-0.5667,-1.1769,-1.2295,-1.2423,-1.2522,0.0,0.0,0.0,0.0,0.0,0.0,0.0,0.0,0.0,0.0,0.0,-1.0907,-1.1873,-1.2218,-1.1743,-1.2865,-1.3558,-1.3165,-1.2288,-1.1293,-1.008,-1.0249,-1.0439,-1.0588,-1.067,-1.0778,-1.0921,-1.1009,-1.105,-1.1056,-1.1118,-1.1165,-1.1165,-1.1165,-1.1192,-1.1267,-1.1341,-1.1416,-1.1497,-1.1565,-1.1613,-1.1619,-1.1619,-1.1619,-1.1626,-1.1681,-1.1775,-1.1932,-1.2149,-1.2284,-1.2298,-1.2427,-1.2467,-1.2427,-1.2454,-1.2494,-1.2501,-1.2501,-1.2501,-1.2501,-1.2501,-1.2454,-1.2311,-1.2162,-1.2013,-1.1864,-1.1714,-1.1586,-1.1416,-1.1389,-1.1389,-1.2522,-1.2542,-1.2522,-1.2528,-1.2542,-1.2522,-1.2508,-1.2501,0.0,0.0,0.0,-1.2501,-1.2501,-1.2501,-1.2501,-1.258,-1.245,-1.2416,-1.2025,-1.1606,-1.2162,-1.2395,-1.245,-1.2539,-1.2379,-1.2132,-1.2079,-1.1925,-1.1837,-1.1955,-1.1887,-1.1633,-1.1619,-1.1536,-1.1371,-0.8716,-0.4978,0.0,0.0,-0.3709,-1.0964,-1.2111,-1.2591,-1.2888,-1.3044,-1.2834,-1.221,-1.2271,-1.2026,-1.1402,-1.1307,-1.124,-1.1145,-1.088,-1.0962,-1.1443,-1.2534,-1.2704,-1.1818,-1.3001,-1.3237,-1.212,-1.1755,-1.1335,-1.0656,-1.0867,-1.1063,-1.1158,-1.1185,-1.1192,-1.1165,-1.1185,-1.1199,-1.1206,-1.1226,-1.1246,-1.1246,-1.1246,-1.1301,-1.1402,-1.1436,-1.1477,-1.1592,-1.1613,-1.1619,-1.1619,-1.1619,-1.1619,-1.1619,-1.1626,-1.1681,-1.1837,-1.2033,-1.2155,-1.2135,-1.2284,-1.24,-1.2325,-1.2413,-1.2494,-1.2501,-1.2501,-1.2501,-1.2501,-1.2501,-1.2427,-1.2284,-1.2149,-1.1999,-1.183,-1.1701,-1.1619,-1.1619,-1.1613,-1.1606,-1.2508,-1.2508,-1.2535,-1.2535,-1.2508,-1.2535,-1.2528,-1.2501,-1.2501,-1.2501,-1.2501,-1.2501,-1.2501,-1.2501,-1.2501,-1.258,-1.2443,-1.1998,-1.1619,0.0,-1.1643,-1.2033,-1.2436,-1.2491,-1.234,-1.2105,-1.1871,-1.1724,-1.1823,-1.1708,-1.164,-1.1626,-1.164,-1.1517,-1.1064,-0.4691,-0.0799,0.0,0.0,-0.2503,-0.7717,-1.1065,-1.2704,-1.2583,-1.2861,-1.2888,-1.2644,-1.2535,-1.2366,-1.2142,-1.1877,-1.1789,-1.1891,-1.1728,-1.1742,-1.1952,-1.2345,-1.2373,-1.2006,-1.2414,-1.2338,-1.1714,-1.164,-1.1457,-1.1111,-1.1226,-1.128,-1.1185,-1.1294,-1.1301,-1.1192,-1.1287,-1.1362,-1.1369,-1.147,-1.1552,-1.1538,-1.1538,-1.1545,-1.1572,-1.1586,-1.1586,-1.1606,-1.1619,-1.1619,-1.1619,-1.1619,-1.1619,-1.1619,-1.1619,-1.1681,-1.1796,-1.1864,-1.1938,-1.202,-1.2196,-1.2291,-1.2298,-1.24,-1.2488,-1.2501,-1.2501,-1.2501,-1.2501,-1.2501,-1.2393,-1.2162,-1.2081,-1.1952,-1.1735,-1.1633,-1.1619,-1.1619,-1.1619,-1.1619,-1.2501,-1.2501,-1.2522,-1.2515,-1.2501,-1.2522,-1.2515,-1.2501,-1.2501,-1.2501,-1.2501,-1.2501,-1.2501,-1.2494,-1.258,-1.2464,-1.247,-1.1858,-1.159,-1.1524,-1.153,-1.175,-1.2033,-1.2359,-1.221,-1.1878,-1.1603,-1.1643,-1.1714,-1.1653,-1.166,-1.159,-0.9601,-0.9521,-1.0964,-0.3807,0.0,0.0,0.0,-0.23,-0.7002,-1.1334,-1.3556,-1.3478,-1.3539,-1.3532,-1.3631,-1.3241,-1.3044,-1.2901,-1.2678,-1.2522,-1.2427,-1.2277,-1.223,-1.2298,-1.2298,-1.2298,-1.2298,-1.2366,-1.2284,-1.2013,-1.1986,-1.1891,-1.1667,-1.1565,-1.1518,-1.1525,-1.1592,-1.1572,-1.143,-1.147,-1.1511,-1.1518,-1.1579,-1.1619,-1.1619,-1.1619,-1.1619,-1.1619,-1.1619,-1.1619,-1.1619,-1.1619,-1.1619,-1.1619,-1.1619,-1.1619,-1.1619,-1.1619,-1.164,-1.1708,-1.1775,-1.1816,-1.1843,-1.202,-1.2142,-1.2162,-1.2291,-1.2406,-1.2474,-1.2501,-1.2501,-1.2501,-1.2501,-1.2379,-1.2121,-1.206,-1.1932,-1.1701,-1.1619,-1.1619,-1.1619,-1.1619,-1.1619,-1.2501,-1.2501,-1.2501,-1.2501,-1.2501,-1.2501,-1.2501,-1.2501,-1.2501,-1.2508,-1.2515,-1.2501,-1.2501,-1.2488,-1.2539,-1.2395,-1.2216,-1.1784,-1.1636,-1.164,-1.1583,-1.165,-1.1683,-1.2079,-1.2065,-1.169,-1.1683,-1.163,-1.1681,-1.1556,-1.1782,-1.161,-0.8735,-0.7718,-0.8777,-0.3042,0.0,0.0,0.0,-0.2238,-0.7094,-1.1772,-1.4393,-1.4285,-1.4183,-1.4109,-1.4242,-1.3817,-1.3607,-1.3458,-1.3275,-1.3071,-1.284,-1.2657,-1.2549,-1.2542,-1.242,-1.2386,-1.2488,-1.2501,-1.244,-1.2305,-1.2291,-1.2244,-1.2115,-1.1904,-1.1775,-1.183,-1.1884,-1.1864,-1.1701,-1.1667,-1.1667,-1.1667,-1.164,-1.1619,-1.1619,-1.1619,-1.1619,-1.1619,-1.1619,-1.1619,-1.1619,-1.1619,-1.1619,-1.1619,-1.1647,-1.1667,-1.1667,-1.1694,-1.1721,-1.1728,-1.1782,-1.1816,-1.1742,-1.1986,-1.2128,-1.2094,-1.2264,-1.24,-1.2467,-1.2467,-1.2501,-1.2501,-1.2501,-1.24,-1.2182,-1.2081,-1.1959,-1.1735,-1.1653,-1.1619,-1.1619,-1.1619,-1.1619,-1.2501,-1.2501,-1.2501,-1.2501,-1.2501,-1.2501,-1.2508,-1.2508,-1.2501,-1.2522,-1.2562,-1.2515,-1.2508,-1.2501,-1.2481,-1.2166,-1.1775,-1.1586,-1.159,-1.1653,-1.1633,-1.1563,-1.1663,-1.1728,-1.1576,-1.167,-1.1843,-1.1983,-1.1823,-1.1649,-1.1749,-1.2292,-1.1524,-0.7611,0.0,0.0,0.0,0.0,0.0,-0.2254,-0.7097,-1.1772,-1.4393,-1.4292,-1.4285,-1.4211,-1.4089,-1.3912,-1.3756,-1.3607,-1.3336,-1.3166,-1.3105,-1.2868,-1.2705,-1.2698,-1.2562,-1.2494,-1.2501,-1.2501,-1.244,-1.2311,-1.2298,-1.2291,-1.2271,-1.2244,-1.2108,-1.1952,-1.2088,-1.2094,-1.1857,-1.1809,-1.1809,-1.1789,-1.1708,-1.1619,-1.1619,-1.1619,-1.1619,-1.1619,-1.1619,-1.1619,-1.1619,-1.1619,-1.1619,-1.1619,-1.1721,-1.1782,-1.1803,-1.1898,-1.1986,-1.1979,-1.1932,-1.1904,-1.1993,-1.2264,-1.2284,-1.2149,-1.2406,-1.2522,-1.2454,-1.2447,-1.2494,-1.2461,-1.2467,-1.2386,-1.2277,-1.2162,-1.1999,-1.1823,-1.1701,-1.1619,-1.1619,-1.1619,-1.1619,-1.2501,-1.2501,-1.2501,-1.2501,-1.2508,-1.244,-1.2481,-1.2481,-1.2739,-1.2628,-1.2496,-1.2648,-1.2548,-1.2535,-1.244,-1.2366,-1.2146,-1.1742,-1.1663,-1.1534,-1.1537,-1.1524,-1.1643,-1.1603,-1.1764,-1.1811,-1.212,-1.1979,-1.1871,-1.1861,-0.9628,-0.6118,-0.9629,-0.8015,0.0,0.0,0.0,0.0,-0.5507,-0.8019,-0.7698,-1.1885,-1.4306,-1.4299,-1.4299,-1.4272,-1.4197,-1.4061,-1.3912,-1.3756,-1.3553,-1.3356,-1.318,-1.2976,-1.2827,-1.2732,-1.2589,-1.2501,-1.2501,-1.2501,-1.2474,-1.242,-1.2413,-1.2413,-1.2413,-1.2413,-1.2325,-1.2162,-1.2216,-1.2196,-1.1999,-1.1965,-1.1932,-1.1857,-1.1857,-1.1816,-1.1633,-1.1694,-1.1721,-1.164,-1.1619,-1.1619,-1.1619,-1.1619,-1.1619,-1.1633,-1.1742,-1.1837,-1.1843,-1.1965,-1.2088,-1.2169,-1.2142,-1.2088,-1.2094,-1.2149,-1.2244,-1.2325,-1.2386,-1.2413,-1.2549,-1.2413,-1.2379,-1.2386,-1.2325,-1.2264,-1.2162,-1.2033,-1.1891,-1.1803,-1.1721,-1.1619,-1.1619,-1.1619,-1.1619,-1.2467,-1.2467,-1.2467,-1.2467,-1.2474,-1.2581,-1.2628,-1.2807,-1.3089,-1.2829,-1.2527,-1.2701,-1.1278,-0.9646,-1.1293,-1.2542,-1.2522,-1.2189,-1.1951,-1.1631,-1.1709,-1.1804,-1.1898,-1.1904,-1.1904,-1.2223,-1.2265,-1.2169,-1.2092,-1.2219,-0.8057,-0.2166,-0.6095,-0.5997,0.0,0.0,0.0,0.0,-0.9334,-1.2505,-1.0092,-1.2514,-1.436,-1.4306,-1.4299,-1.4299,-1.4292,-1.415,-1.4,-1.3844,-1.3709,-1.3512,-1.3254,-1.3098,-1.2935,-1.2739,-1.2589,-1.2501,-1.2501,-1.2501,-1.2501,-1.2501,-1.2501,-1.2501,-1.2501,-1.2501,-1.2454,-1.2366,-1.2345,-1.2291,-1.2155,-1.2121,-1.2074,-1.1979,-1.2033,-1.1952,-1.1728,-1.1775,-1.1775,-1.1647,-1.1619,-1.1619,-1.1619,-1.1619,-1.1633,-1.1687,-1.1803,-1.1918,-1.1965,-1.2094,-1.223,-1.2332,-1.2345,-1.2305,-1.221,-1.2277,-1.2345,-1.2413,-1.2481,-1.2583,-1.2678,-1.2474,-1.2372,-1.2447,-1.2244,-1.2162,-1.2223,-1.2088,-1.1823,-1.1775,-1.1714,-1.1653,-1.1626,-1.1619,-1.1619,-1.2448,-1.2602,-1.2442,-1.2589,-1.2442,-1.2615,-1.2782,-1.329,-1.3339,-1.303,-1.2075,-1.2437,-0.8131,-0.1779,-0.8563,-1.2409,-1.2594,-1.3028,-1.272,-1.1848,-1.2142,-1.2522,-1.2522,-1.2522,-1.2529,-1.2435,-1.2409,-1.24,-1.24,-1.2122,-0.8163,-0.0626,0.0,0.0,0.0,0.0,0.0,0.0,-0.8701,-1.3905,-1.382,-1.4004,-1.434,-1.4306,-1.4299,-1.4299,-1.4285,-1.4156,-1.4007,-1.3844,-1.3715,-1.3559,-1.3397,-1.3247,-1.303,-1.2766,-1.2596,-1.2508,-1.2508,-1.2508,-1.2501,-1.2501,-1.2501,-1.2501,-1.2501,-1.2501,-1.2494,-1.2488,-1.2474,-1.242,-1.2305,-1.2277,-1.2271,-1.2237,-1.2142,-1.2013,-1.1843,-1.1837,-1.1769,-1.166,-1.1626,-1.1633,-1.1626,-1.1619,-1.1694,-1.1809,-1.1959,-1.2088,-1.221,-1.2366,-1.2447,-1.2461,-1.2474,-1.2481,-1.2488,-1.2474,-1.2528,-1.2617,-1.2698,-1.282,-1.2684,-1.2583,-1.2569,-1.2515,-1.2372,-1.2311,-1.2352,-1.2203,-1.1898,-1.1789,-1.1796,-1.1748,-1.1735,-1.1653,-1.1667,-1.3123,-1.3123,-1.3123,-1.3123,-1.313,-1.3057,-1.3274,-1.3471,-1.3418,-0.9947,-0.6136,-1.0501,-0.8161,-0.0166,-0.3147,-0.7733,-1.2721,-1.3289,-1.3012,-1.22,-1.2326,-1.2532,-1.2532,-1.256,-1.2567,-1.258,-1.2474,-1.2542,-1.1816,-0.7232,-0.3139,0.0,0.0,0.0,0.0,0.0,0.0,0.0,-0.366,-0.7979,-1.3662,-1.4373,-1.4333,-1.4299,-1.4299,-1.4299,-1.4299,-1.4245,-1.415,-1.3994,-1.3851,-1.3695,-1.3546,-1.3308,-1.3085,-1.2895,-1.2732,-1.2651,-1.2637,-1.2556,-1.2501,-1.2501,-1.2501,-1.2501,-1.2501,-1.2501,-1.2501,-1.2501,-1.2501,-1.2467,-1.2447,-1.2427,-1.2393,-1.2311,-1.2318,-1.2237,-1.2047,-1.1972,-1.1925,-1.1782,-1.1681,-1.1653,-1.1735,-1.1755,-1.1816,-1.1959,-1.2108,-1.2216,-1.2291,-1.2413,-1.2501,-1.2501,-1.2501,-1.2501,-1.2501,-1.2528,-1.2589,-1.2732,-1.284,-1.2915,-1.2861,-1.2745,-1.2712,-1.2664,-1.2528,-1.2447,-1.2474,-1.2406,-1.2094,-1.1938,-1.1938,-1.1938,-1.1898,-1.185,-1.1864,-1.3436,-1.3436,-1.3436,-1.3436,-1.345,-1.3377,-1.3432,-1.2972,-1.0356,-0.5691,-0.2012,-0.6563,-0.5558,0.0,0.0,-0.3006,-0.9095,-1.1882,-1.3109,-1.2782,-1.2574,-1.1161,-0.8759,-0.8453,-0.8462,-0.8939,-1.1491,-1.1348,-0.8181,-0.2826,0.0,0.0,0.0,0.0,0.0,0.0,0.0,0.0,0.0,-0.4075,-1.1336,-1.3707,-1.4428,-1.4428,-1.4394,-1.4346,-1.4306,-1.4299,-1.4231,-1.4082,-1.3966,-1.3831,-1.3627,-1.3336,-1.3132,-1.303,-1.2888,-1.2807,-1.2786,-1.2657,-1.2576,-1.2569,-1.2528,-1.2501,-1.2501,-1.2501,-1.2501,-1.2501,-1.2501,-1.2515,-1.2562,-1.2576,-1.2515,-1.24,-1.244,-1.2406,-1.2176,-1.2135,-1.206,-1.1925,-1.1782,-1.1769,-1.187,-1.1898,-1.1979,-1.2115,-1.223,-1.2291,-1.2366,-1.2427,-1.2501,-1.2501,-1.2501,-1.2501,-1.2522,-1.2569,-1.2684,-1.2827,-1.2901,-1.2983,-1.3044,-1.2935,-1.2854,-1.2793,-1.2718,-1.263,-1.2569,-1.2535,-1.2393,-1.2203,-1.2162,-1.2176,-1.2121,-1.2067,-1.206,-1.339,-1.3376,-1.3397,-1.337,-1.3363,-1.3376,-1.3417,-1.2081,-0.4343,0.0,0.0,0.0,0.0,0.0,0.0,0.0,-0.25,-0.9603,-1.3322,-1.3178,-1.2039,-0.7586,0.0,0.0,0.0,0.0,-0.8328,-0.7867,-0.1258,0.0,0.0,0.0,0.0,0.0,0.0,0.0,0.0,0.0,0.0,0.0,-0.7422,-1.2001,-1.4618,-1.4692,-1.459,-1.4462,-1.4326,-1.4306,-1.4238,-1.4109,-1.4068,-1.3933,-1.3641,-1.337,-1.3186,-1.3159,-1.3044,-1.2969,-1.2942,-1.2813,-1.2732,-1.2718,-1.2603,-1.2556,-1.2562,-1.2556,-1.2549,-1.2556,-1.2556,-1.2583,-1.2712,-1.2732,-1.2678,-1.2542,-1.2556,-1.2488,-1.2372,-1.2298,-1.223,-1.2081,-1.1932,-1.1911,-1.2013,-1.206,-1.2121,-1.225,-1.2311,-1.2352,-1.2447,-1.2488,-1.2494,-1.2501,-1.2501,-1.2501,-1.2556,-1.263,-1.2779,-1.2915,-1.2963,-1.303,-1.3152,-1.3119,-1.3085,-1.303,-1.2963,-1.2868,-1.2725,-1.2691,-1.2651,-1.2508,-1.2481,-1.2413,-1.2359,-1.2305,-1.2216,-1.3397,-1.3397,-1.3397,-1.3397,-1.3397,-1.3397,-1.3431,-1.2458,-0.3846,0.0,0.0,0.0,0.0,0.0,0.0,0.0,0.0,-0.9109,-1.3451,-1.2344,-0.6952,0.0,0.0,0.0,0.0,0.0,-0.2532,0.0,0.0,0.0,0.0,0.0,0.0,0.0,0.0,0.0,0.0,0.0,0.0,0.0,-0.3089,-1.0648,-1.4801,-1.4774,-1.4733,-1.4672,-1.4604,-1.4407,-1.4278,-1.4231,-1.4129,-1.3939,-1.3675,-1.3539,-1.3437,-1.3329,-1.3186,-1.3105,-1.3085,-1.2976,-1.2888,-1.2881,-1.284,-1.282,-1.282,-1.2807,-1.2807,-1.2807,-1.2813,-1.2847,-1.2881,-1.2888,-1.2868,-1.282,-1.282,-1.2786,-1.2705,-1.2549,-1.2379,-1.2237,-1.2088,-1.2067,-1.2176,-1.2216,-1.2271,-1.2393,-1.2427,-1.2461,-1.2494,-1.2515,-1.2501,-1.2501,-1.2501,-1.2549,-1.2617,-1.2739,-1.2901,-1.301,-1.3057,-1.3119,-1.3227,-1.3288,-1.3261,-1.3234,-1.3173,-1.3071,-1.2935,-1.2874,-1.2854,-1.2793,-1.2725,-1.2664,-1.2603,-1.2535,-1.2467,-1.3439,-1.3439,-1.3439,-1.3439,-1.3439,-1.3432,-1.3465,-1.2119,-0.3899,0.0,0.0,0.0,0.0,0.0,0.0,0.0,0.0,-0.9284,-1.3389,-1.1963,-0.4121,0.0,0.0,0.0,0.0,0.0,0.0,0.0,0.0,0.0,0.0,0.0,0.0,0.0,0.0,0.0,0.0,0.0,0.0,0.0,0.0,-0.6299,-1.044,-1.2124,-1.398,-1.4889,-1.4848,-1.4618,-1.4448,-1.436,-1.419,-1.398,-1.3804,-1.3695,-1.3587,-1.3485,-1.3349,-1.3254,-1.3241,-1.3125,-1.3037,-1.3037,-1.2996,-1.2956,-1.2956,-1.2963,-1.2963,-1.2963,-1.2949,-1.2983,-1.3024,-1.3037,-1.3064,-1.3119,-1.301,-1.2969,-1.2922,-1.2739,-1.2576,-1.2454,-1.2325,-1.2298,-1.2338,-1.2372,-1.24,-1.2488,-1.2501,-1.2542,-1.2562,-1.2589,-1.2603,-1.2637,-1.2705,-1.2725,-1.2712,-1.284,-1.3017,-1.3098,-1.3159,-1.3234,-1.3322,-1.3349,-1.3349,-1.3342,-1.3295,-1.3214,-1.3085,-1.3125,-1.3119,-1.3044,-1.2956,-1.2929,-1.2881,-1.2813,-1.2745,-1.2539,-1.2718,-1.2539,-1.1991,-1.1986,-1.1986,-1.1635,-1.0793,-0.3808,0.0,0.0,0.0,0.0,0.0,0.0,0.0,0.0,-0.7476,-1.1172,-0.9515,0.0,0.0,0.0,0.0,0.0,0.0,0.0,0.0,0.0,0.0,0.0,0.0,0.0,0.0,0.0,0.0,0.0,0.0,0.0,0.0,0.0,0.0,-0.2629,-0.7194,-1.1699,-1.4126,-1.3902,-1.4507,-1.4706,-1.4509,-1.4245,-1.4089,-1.4194,-1.3804,-1.3675,-1.362,-1.3485,-1.341,-1.337,-1.3261,-1.3186,-1.318,-1.3091,-1.2983,-1.3024,-1.3044,-1.3044,-1.3037,-1.303,-1.3057,-1.3159,-1.3186,-1.3247,-1.3329,-1.3173,-1.3044,-1.2983,-1.2861,-1.2779,-1.2732,-1.2623,-1.2515,-1.2515,-1.2501,-1.2488,-1.2501,-1.2515,-1.2596,-1.2671,-1.2718,-1.2807,-1.2847,-1.2861,-1.2861,-1.2834,-1.3044,-1.32,-1.3241,-1.3315,-1.3417,-1.341,-1.3403,-1.3397,-1.3397,-1.339,-1.3308,-1.3275,-1.3288,-1.3281,-1.32,-1.3166,-1.318,-1.3119,-1.3017,-1.3024,-0.3457,-0.3457,-0.3457,-0.3457,-0.3457,-0.3457,0.0,0.0,0.0,0.0,0.0,0.0,0.0,0.0,0.0,0.0,0.0,0.0,-0.3519,-0.3164,-0.1575,0.0,0.0,0.0,0.0,0.0,0.0,0.0,0.0,0.0,0.0,0.0,0.0,0.0,0.0,0.0,0.0,0.0,0.0,0.0,0.0,0.0,0.0,-0.2087,-0.7021,-0.9479,-1.0036,-1.3174,-1.4841,-1.4529,-1.4346,-1.4183,-1.4089,-1.3987,-1.3851,-1.3675,-1.36,-1.3512,-1.3424,-1.337,-1.3342,-1.3342,-1.3281,-1.3288,-1.3288,-1.3281,-1.3281,-1.3288,-1.3288,-1.3288,-1.3329,-1.3336,-1.3363,-1.3383,-1.3295,-1.3247,-1.3241,-1.3152,-1.3057,-1.303,-1.2813,-1.2698,-1.2637,-1.2562,-1.2515,-1.2535,-1.2596,-1.2691,-1.2773,-1.2861,-1.2942,-1.2935,-1.2942,-1.2949,-1.301,-1.3227,-1.337,-1.3403,-1.3498,-1.3641,-1.3566,-1.3458,-1.3431,-1.3397,-1.3397,-1.3342,-1.3349,-1.337,-1.3342,-1.3329,-1.3342,-1.3336,-1.3227,-1.3132,-1.307,0.0,0.0,0.0,0.0,0.0,0.0,0.0,0.0,0.0,0.0,0.0,0.0,0.0,0.0,0.0,0.0,0.0,0.0,0.0,0.0,0.0,0.0,0.0,0.0,0.0,0.0,0.0,0.0,0.0,0.0,0.0,0.0,0.0,0.0,0.0,0.0,0.0,0.0,0.0,0.0,0.0,0.0,0.0,0.0,-0.3237,-0.514,-0.7788,-1.2488,-1.493,-1.4618,-1.4276,-1.434,-1.4183,-1.4102,-1.3994,-1.3817,-1.3756,-1.3654,-1.3532,-1.3492,-1.3464,-1.3417,-1.3397,-1.3397,-1.339,-1.3397,-1.3397,-1.339,-1.3397,-1.3397,-1.3397,-1.3397,-1.3397,-1.339,-1.3342,-1.3336,-1.339,-1.3315,-1.3207,-1.3091,-1.2942,-1.2793,-1.2745,-1.2596,-1.2596,-1.2657,-1.2705,-1.2807,-1.2908,-1.2996,-1.3071,-1.3091,-1.3112,-1.3146,-1.3227,-1.3417,-1.358,-1.3614,-1.3709,-1.3851,-1.2978,-1.2997,-1.3424,-1.339,-1.3397,-1.341,-1.3437,-1.3451,-1.3437,-1.3437,-1.3471,-1.3498,-1.3431,-1.3376,-1.3305,0.0,0.0,0.0,0.0,0.0,0.0,0.0,0.0,0.0,0.0,0.0,0.0,0.0,0.0,0.0,0.0,0.0,0.0,0.0,0.0,0.0,0.0,0.0,0.0,0.0,0.0,0.0,0.0,0.0,0.0,0.0,0.0,0.0,0.0,0.0,0.0,0.0,0.0,0.0,0.0,0.0,0.0,0.0,0.0,0.0,0.0,-0.6277,-1.0418,-1.2737,-1.3544,-1.4055,-1.4296,-1.4312,-1.4163,-1.4089,-1.4034,-1.3919,-1.3804,-1.3675,-1.3627,-1.3566,-1.3464,-1.3417,-1.3397,-1.3397,-1.3397,-1.3397,-1.3397,-1.3397,-1.3397,-1.3397,-1.3397,-1.3376,-1.3356,-1.3254,-1.3275,-1.3322,-1.337,-1.3275,-1.303,-1.2983,-1.2888,-1.2773,-1.2657,-1.2623,-1.2807,-1.2861,-1.2949,-1.3051,-1.3139,-1.3234,-1.3322,-1.3349,-1.3376,-1.3485,-1.3614,-1.3749,-1.3851,-1.3953,-1.3641,-1.1998,-1.2023,-1.2925,-1.3231,-1.3358,-1.3566,-1.3546,-1.3546,-1.3553,-1.3587,-1.3648,-1.3722,-1.3763,-1.3552,-1.3586,0.0,0.0,0.0,0.0,0.0,0.0,0.0,0.0,0.0,0.0,0.0,0.0,0.0,0.0,0.0,0.0,0.0,0.0,0.0,0.0,0.0,0.0,0.0,0.0,0.0,0.0,0.0,0.0,0.0,0.0,0.0,0.0,0.0,0.0,0.0,0.0,0.0,0.0,0.0,0.0,0.0,0.0,0.0,0.0,0.0,0.0,0.0,-0.2666,-0.5103,-0.8768,-1.1786,-1.3095,-1.3115,-1.3945,-1.4224,-1.4116,-1.4055,-1.396,-1.3817,-1.3709,-1.362,-1.3587,-1.3492,-1.3397,-1.3397,-1.3417,-1.341,-1.3403,-1.3397,-1.3431,-1.3437,-1.341,-1.337,-1.3315,-1.3302,-1.3261,-1.3132,-1.3166,-1.318,-1.3119,-1.3017,-1.2949,-1.2908,-1.2773,-1.28,-1.2942,-1.3024,-1.3098,-1.3186,-1.3281,-1.3349,-1.3437,-1.2075,-1.1742,-1.1801,-1.1757,-1.1921,-1.2935,-1.3585,-1.3968,-1.2306,-1.0651,-1.1294,-1.2489,-1.3566,-1.3389,-1.3173,-1.3722,-1.3743,-1.3783,-1.3646,-1.3184,-1.3057,-1.3255,-1.3827,0.0,0.0,0.0,0.0,0.0,0.0,0.0,0.0,0.0,0.0,0.0,0.0,0.0,0.0,0.0,0.0,0.0,0.0,0.0,0.0,0.0,0.0,0.0,0.0,0.0,0.0,0.0,0.0,0.0,0.0,0.0,0.0,0.0,0.0,0.0,0.0,0.0,0.0,0.0,0.0,0.0,0.0,0.0,0.0,0.0,0.0,0.0,0.0,0.0,0.0,0.0,0.0,-0.8836,-1.1855,-1.3958,-1.4251,-1.4211,-1.4129,-1.3987,-1.3892,-1.381,-1.3729,-1.3648,-1.362,-1.3607,-1.3607,-1.3607,-1.3607,-1.3614,-1.3607,-1.36,-1.3532,-1.3458,-1.3397,-1.3322,-1.3247,-1.3186,-1.3173,-1.3139,-1.3091,-1.2996,-1.3017,-1.2976,-1.2901,-1.2996,-1.3146,-1.3098,-1.3173,-1.3302,-1.3383,-1.341,-1.2778,-1.0909,-0.9908,-0.9775,-0.971,-0.9697,-1.0878,-1.2443,-1.3148,-1.3023,-1.1226,-0.9642,-1.0106,-1.0189,-1.2478,-1.246,-1.3019,-1.3415,-1.3634,-1.3313,-1.2457,-1.1946,-1.1975,-1.2922,0.0,0.0,0.0,0.0,0.0,0.0,0.0,0.0,0.0,0.0,0.0,0.0,0.0,0.0,0.0,0.0,0.0,0.0,0.0,0.0,0.0,0.0,0.0,0.0,0.0,0.0,0.0,0.0,0.0,0.0,0.0,0.0,0.0,0.0,0.0,0.0,0.0,0.0,0.0,0.0,0.0,0.0,0.0,0.0,0.0,0.0,0.0,0.0,0.0,0.0,0.0,0.0,0.0,-0.6674,-1.277,-1.2758,-1.2532,-1.3186,-1.3988,-1.4089,-1.4,-1.3885,-1.3838,-1.3831,-1.3817,-1.381,-1.3804,-1.3824,-1.3817,-1.381,-1.3817,-1.3709,-1.3614,-1.3526,-1.3329,-1.3281,-1.3288,-1.3234,-1.3132,-1.3051,-1.3044,-1.3071,-1.3085,-1.3057,-1.32,-1.3308,-1.3254,-1.3254,-1.3383,-1.2778,-1.2284,-1.3158,-1.1795,-0.7387,-0.6398,0.0,0.0,0.0,0.0,-1.118,-1.1494,-0.8615,-0.6121,-0.5572,-0.6237,0.0,0.0,-1.0354,-1.0925,-1.2571,-1.3487,-1.3142,-1.2261,-1.1025,0.0,0.0,0.0,0.0,0.0,0.0,0.0,0.0,0.0,0.0,0.0,0.0,0.0,0.0,0.0,0.0,0.0,0.0,0.0,0.0,0.0,0.0,0.0,0.0,0.0,0.0,0.0,0.0,0.0,0.0,0.0,0.0,0.0,0.0,0.0,0.0,0.0,0.0,0.0,0.0,0.0,0.0,0.0,0.0,0.0,0.0,0.0,0.0,0.0,0.0,0.0,0.0,0.0,0.0,0.0,-0.4884,-0.7359,-0.823,-0.9459,-1.1942,-1.4008,-1.4102,-1.4021,-1.3946,-1.3871,-1.3865,-1.3707,-1.3574,-1.3223,-1.323,-1.3555,-1.3763,-1.3049,-1.3418,-1.3284,-1.2873,-1.2986,-1.3023,-1.3166,-1.3193,-1.3159,-1.3152,-1.3146,-1.3173,-1.3193,-1.3275,-1.3356,-1.3356,-1.3356,-1.3437,-1.1778,-0.9923,-1.1473,-1.3204,-0.7581,-0.2694,0.0,0.0,0.0,0.0,0.0,-0.7013,-0.4191,0.0,0.0,0.0,0.0,0.0,0.0,-0.7445,-0.7983,-1.0697,0.0,-1.0485,0.0,0.0,0.0,0.0,0.0,0.0,0.0,0.0,0.0,0.0,0.0,0.0,0.0,0.0,0.0,0.0,0.0,0.0,0.0,0.0,0.0,0.0,0.0,0.0,0.0,0.0,0.0,0.0,0.0,0.0,0.0,0.0,0.0,0.0,0.0,0.0,0.0,0.0,0.0,0.0,0.0,0.0,0.0,0.0,0.0,0.0,0.0,0.0,0.0,0.0,0.0,0.0,0.0,0.0,0.0,0.0,0.0,0.0,0.0,0.0,0.0,-1.0677,-1.4238,-1.4217,-1.4122,-1.4095,-1.4102,-1.3948,-1.2861,-1.0914,-1.0219,-1.0369,-1.0096,-1.0366,-1.0259,-1.0131,-1.0075,-1.1025,-1.2472,-1.2986,-1.2979,-1.2801,-1.2893,-1.2893,-1.3295,-1.3322,-1.3342,-1.339,-1.3437,-1.3471,-1.3331,-1.0775,0.0,0.0,0.0,0.0,0.0,0.0,0.0,0.0,0.0,0.0,0.0,0.0,0.0,0.0,0.0,0.0,0.0,0.0,0.0,0.0,0.0,0.0,0.0,0.0,0.0,0.0,0.0,0.0,0.0,0.0,0.0,0.0,0.0,0.0,0.0,0.0,0.0,0.0,0.0,0.0,0.0,0.0,0.0,0.0,0.0,0.0,0.0,0.0,0.0,0.0,0.0,0.0,0.0,0.0,0.0,0.0,0.0,0.0,0.0,0.0,0.0,0.0,0.0,0.0,0.0,0.0,0.0,0.0,0.0,0.0,0.0,0.0,0.0,0.0,0.0,0.0,0.0,0.0,0.0,0.0,0.0,0.0,0.0,0.0,-0.5895,-1.1078,-1.3787,-1.4149,-1.4333,-1.4326,-1.3742,-1.1937,-0.7293,-0.5673,-0.564,-0.557,-0.5718,-0.5662,-0.5603,-0.572,-0.6366,-0.8887,-1.0232,-1.1065,-1.1363,-1.1953,-1.2636,-1.3045,-1.339,-1.3403,-1.3431,-1.3318,-1.3331,-1.2843,-0.8928,0.0,0.0,0.0,0.0,0.0,0.0,0.0,0.0,0.0,0.0,0.0,0.0,0.0,0.0,0.0,0.0,0.0,0.0,0.0,0.0,0.0,0.0,0.0,0.0,0.0,0.0,0.0,0.0,0.0,0.0,0.0,0.0,0.0,0.0,0.0,0.0,0.0,0.0,0.0,0.0,0.0,0.0,0.0,0.0,0.0,0.0,0.0,0.0,0.0,0.0,0.0,0.0,0.0,0.0,0.0,0.0,0.0,0.0,0.0,0.0,0.0,0.0,0.0,0.0,0.0,0.0,0.0,0.0,0.0,0.0,0.0,0.0,0.0,0.0,0.0,0.0,0.0,0.0,0.0,0.0,0.0,0.0,0.0,0.0,0.0,-0.6618,-1.166,-1.3655,-1.4209,-1.4018,-1.2686,-0.9387,-0.157,0.0,0.0,0.0,0.0,0.0,0.0,0.0,0.0,0.0,-0.6553,-0.7391,-0.8905,-0.935,-1.1392,-1.2631,-1.3125,-1.3458,-1.3325,-1.3351,-1.303,-1.1339,-0.693,0.0,0.0,0.0,0.0,0.0,0.0,0.0,0.0,0.0,0.0,0.0,0.0,0.0,0.0,0.0,0.0,0.0,0.0,0.0,0.0,0.0,0.0,0.0,0.0,0.0,0.0,0.0,0.0,0.0,0.0,0.0,0.0,0.0,0.0,0.0,0.0,0.0,0.0,0.0,0.0,0.0,0.0,0.0,0.0,0.0,0.0,0.0,0.0,0.0,0.0,0.0,0.0,0.0,0.0,0.0,0.0,0.0,0.0,0.0,0.0,0.0,0.0,0.0,0.0,0.0,0.0,0.0,0.0,0.0,0.0,0.0,0.0,0.0,0.0,0.0,0.0,0.0,0.0,0.0,0.0,0.0,0.0,0.0,0.0,0.0,0.0,-0.7877,-1.0402,-1.1303,-1.2223,0.0,0.0,-0.0703,0.0,0.0,0.0,0.0,0.0,0.0,0.0,0.0,0.0,0.0,-0.353,-0.5041,-0.6727,-0.8764,-1.0472,-1.1311,-1.1467,-1.164,-1.0824,-0.9835,-0.7304,-0.3064,0.0,0.0,0.0,0.0,0.0,0.0,0.0,0.0,0.0,0.0,0.0,0.0,0.0,0.0,0.0,0.0,0.0,0.0,0.0,0.0,0.0,0.0,0.0,0.0,0.0,0.0,0.0,0.0,0.0,0.0,0.0,0.0,0.0,0.0,0.0,0.0,0.0,0.0,0.0,0.0,0.0,0.0,0.0,0.0,0.0,0.0,0.0,0.0,0.0,0.0,0.0,0.0,0.0,0.0,0.0,0.0,0.0,0.0,0.0,0.0,0.0,0.0,0.0,0.0,0.0,0.0,0.0,0.0,0.0,0.0,0.0,0.0,0.0,0.0,0.0,0.0,0.0,0.0,0.0,0.0,0.0,0.0,0.0,0.0,0.0,0.0,-0.3917,-0.5507,-0.6548,-0.8321,0.0,0.0,0.0,0.0,0.0,0.0,0.0,0.0,0.0,0.0,0.0,0.0,0.0,0.0,-0.2355,-0.4042,-0.5406,-0.7106,-0.8631,-0.9305,-0.9632,-0.8467,0.0,0.0,0.0,0.0,0.0,0.0,0.0,0.0,0.0,0.0,0.0,0.0,0.0,0.0,0.0,0.0,0.0,0.0,0.0,0.0,0.0,0.0,0.0,0.0,0.0,0.0,0.0,0.0,0.0,0.0,0.0,0.0,0.0,0.0,0.0,0.0,0.0,0.0,0.0,0.0,0.0,0.0,0.0,0.0,0.0,0.0,0.0,0.0,0.0,0.0,0.0,0.0,0.0,0.0,0.0,0.0,0.0,0.0,0.0,0.0,0.0,0.0,0.0,0.0,0.0,0.0,0.0,0.0,0.0,0.0,0.0,0.0,0.0,0.0,0.0,0.0,0.0,0.0,0.0,0.0,0.0,0.0,0.0,0.0,0.0,0.0,0.0,0.0,0.0,0.0,0.0,0.0,0.0,0.0,0.0,0.0,0.0,0.0,0.0,0.0,0.0,0.0,0.0,0.0,0.0,0.0,0.0,0.0,0.0,0.0,-0.4095,-0.5637,-0.5288,-0.545,0.0,0.0,0.0,0.0,0.0,0.0,0.0,0.0,0.0,0.0,0.0,0.0,0.0,0.0,0.0,0.0,0.0,0.0,0.0,0.0,0.0,0.0,0.0,0.0,0.0,0.0,0.0,0.0,0.0,0.0,0.0,0.0,0.0,0.0,0.0,0.0,0.0,0.0,0.0,0.0,0.0,0.0,0.0,0.0,0.0,0.0,0.0,0.0,0.0,0.0,0.0,0.0,0.0,0.0,0.0,0.0,0.0,0.0,0.0,0.0,0.0,0.0,0.0,0.0,0.0,0.0,0.0,0.0,0.0,0.0,0.0,0.0,0.0,0.0,0.0,0.0,0.0,0.0,0.0,0.0,0.0,0.0,0.0,0.0,0.0,0.0,0.0,0.0,0.0,0.0,0.0,0.0,0.0,0.0,0.0,0.0,0.0,0.0,0.0,0.0,0.0,0.0,0.0,0.0,0.0,0.0,0.0,0.0,0.0,0.0,0.0,0.0,-0.2766,-0.1897,0.0,0.0,0.0,0.0,0.0,0.0,0.0,0.0,0.0,0.0,0.0,0.0,0.0,0.0,0.0,0.0,0.0,0.0,0.0,0.0,0.0,0.0,0.0,0.0,0.0,0.0,0.0,0.0,0.0,0.0,0.0,0.0,0.0,0.0,0.0,0.0,0.0,0.0,0.0,0.0,0.0,0.0,0.0,0.0,0.0,0.0,0.0,0.0,0.0,0.0,0.0,0.0,0.0,0.0,0.0,0.0,0.0,0.0,0.0,0.0,0.0,0.0,0.0,0.0,0.0,0.0,0.0,0.0,0.0,0.0,0.0,0.0,0.0,0.0,0.0,0.0,0.0,0.0,0.0,0.0,0.0,0.0,0.0,0.0,0.0,0.0,0.0,0.0,0.0,0.0,0.0,0.0,0.0,0.0,0.0,0.0,0.0,0.0,0.0,0.0,0.0,0.0,0.0,0.0,0.0,0.0,0.0,0.0,0.0,0.0,0.0,0.0,0.0,0.0,0.0,0.0,0.0,0.0,0.0,0.0,0.0,0.0,0.0,0.0,0.0,0.0,0.0,0.0,0.0,0.0,0.0,0.0,0.0,0.0,0.0,0.0,0.0,0.0,0.0,0.0,0.0,0.0,0.0,0.0,0.0,0.0,0.0,0.0,0.0,0.0,0.0,0.0,0.0,0.0,0.0,0.0,0.0,0.0,0.0,0.0,0.0,0.0,0.0,0.0,0.0,0.0,0.0,0.0,0.0,0.0,0.0,0.0,0.0,0.0,0.0,0.0,0.0,0.0,0.0,0.0,0.0,0.0,0.0,0.0,0.0,0.0,0.0,0.0,0.0,0.0,0.0,0.0,0.0,0.0,0.0,0.0,0.0,0.0,0.0,0.0,0.0,0.0,0.0,0.0,0.0,0.0,0.0,0.0,0.0,0.0,0.0,0.0,0.0,0.0,0.0,0.0,0.0,0.0,0.0,0.0,0.0,0.0,0.0,0.0,0.0,0.0,0.0,0.0,0.0,0.0,0.0,0.0,0.0,0.0,0.0,0.0,0.0,0.0,0.0,0.0,0.0,0.0,0.0,0.0,0.0,0.0,0.0,0.0,0.0,0.0,0.0,0.0,0.0,0.0,0.0,0.0,0.0,0.0,0.0,0.0,0.0,0.0,0.0,0.0,0.0,0.0,0.0,0.0,0.0,0.0,0.0,0.0,0.0,0.0,0.0,0.0,0.0,0.0,0.0,0.0,0.0,0.0,0.0,0.0,0.0,0.0,0.0,0.0,0.0,0.0,0.0,0.0,0.0,0.0,0.0,0.0,0.0,0.0,0.0,0.0,0.0,0.0,0.0,0.0,0.0,0.0,0.0,0.0,0.0,0.0,0.0,0.0,0.0,0.0,0.0,0.0,0.0,0.0,0.0,0.0,0.0,0.0,0.0,0.0,0.0,0.0,0.0,0.0,0.0,0.0,0.0,0.0,0.0,0.0,0.0,0.0,0.0,0.0,0.0,0.0,0.0,0.0,0.0,0.0,0.0,0.0,0.0,0.0,0.0,0.0,0.0,0.0,0.0,0.0,0.0,0.0,0.0,0.0,0.0,0.0,0.0,0.0,0.0,0.0,0.0,0.0,0.0,0.0,0.0,0.0,0.0,0.0,0.0,0.0,0.0,0.0,0.0,0.0,0.0,0.0,0.0,0.0,0.0,0.0,0.0,0.0,0.0,0.0,0.0,0.0,0.0,0.0,0.0,0.0,0.0,0.0,0.0,0.0,0.0,0.0,0.0,0.0,0.0,0.0,0.0,0.0,0.0,0.0,0.0,0.0,0.0,0.0,0.0,0.0,0.0,0.0,0.0,0.0,0.0,0.0,0.0,0.0,0.0,0.0,0.0,0.0,0.0,0.0,0.0,0.0,0.0,0.0,0.0,0.0,0.0,0.0,0.0,0.0,0.0,0.0,0.0,0.0,0.0,0.0,0.0,0.0,0.0,0.0,0.0,0.0,0.0,0.0,0.0,0.0,0.0,0.0,0.0,0.0,0.0,0.0,0.0,0.0,0.0,0.0,0.0,0.0,0.0,0.0,0.0,0.0,0.0,0.0,0.0,0.0,0.0,0.0,0.0,0.0,0.0,0.0,0.0,0.0,0.0,0.0,0.0,0.0,0.0,0.0,0.0,0.0,0.0,0.0,0.0,0.0,0.0,0.0,0.0,0.0,0.0,0.0,0.0,0.0,0.0,0.0,0.0,0.0,0.0,0.0,0.0,0.0,0.0,0.0,0.0,0.0,0.0,0.0,0.0,0.0,0.0,0.0,0.0,0.0,0.0,0.0,0.0,0.0,0.0,0.0,0.0,0.0,0.0,0.0,0.0,0.0,0.0,0.0,0.0,0.0,0.0,0.0,0.0,0.0,0.0,0.0,0.0,0.0,0.0,0.0,0.0,0.0,0.0,0.0,0.0,0.0,0.0,0.0,0.0,0.0,0.0,0.0,0.0,0.0,0.0,0.0,0.0,0.0,0.0,0.0,0.0,0.0,0.0,0.0,0.0,0.0,0.0,0.0,0.0,0.0,0.0,0.0,0.0,0.0,0.0,0.0,0.0,0.0,0.0,0.0,0.0,0.0,0.0,0.0,0.0,0.0,0.0,0.0,0.0,0.0,0.0,0.0,0.0,0.0,0.0,0.0,0.0,0.0,0.0,0.0,0.0,0.0,0.0,0.0,0.0,0.0,0.0,0.0,0.0,0.0,0.0,0.0,0.0,0.0,0.0,0.0,0.0,0.0,0.0,0.0,0.0,0.0,0.0,0.0,0.0,0.0,0.0,0.0,0.0,0.0,0.0,0.0,0.0,0.0,0.0,0.0,0.0,0.0,0.0,0.0,0.0,0.0,0.0,0.0,0.0,0.0,0.0,0.0,0.0,0.0,0.0,0.0,0.0,0.0,0.0,0.0,0.0,0.0,0.0,0.0,0.0,0.0,0.0,0.0,0.0,0.0,0.0,0.0,0.0,0.0,0.0,0.0,0.0,0.0,0.0,0.0,0.0,0.0,0.0,0.0,0.0,0.0,0.0,0.0,0.0,0.0,0.0,0.0,0.0,0.0,0.0,0.0,0.0,0.0,0.0,0.0,0.0,0.0,0.0,0.0,0.0,0.0,0.0,0.0,0.0,0.0,0.0,0.0,0.0,0.0,0.0,0.0,0.0,0.0,0.0,0.0,0.0,0.0,0.0,0.0,0.0,0.0,0.0,0.0,0.0,0.0,0.0,0.0,0.0,0.0,0.0,0.0,0.0,0.0,0.0,0.0,0.0,0.0,0.0,0.0,0.0,0.0,0.0,0.0,0.0,0.0,0.0,0.0,0.0,0.0,0.0,0.0,0.0,0.0,0.0,0.0,0.0,0.0,0.0,0.0,0.0,0.0,0.0,0.0,0.0,0.0,0.0,0.0,0.0,0.0,0.0,0.0,0.0,0.0,0.0,0.0,0.0,0.0,0.0,0.0,0.0,0.0,0.0,0.0,0.0,0.0,0.0,0.0,0.0,0.0,0.0,0.0,0.0,0.0,0.0,0.0,0.0,0.0,0.0,0.0,0.0,0.0,0.0,0.0,0.0,0.0,0.0,0.0,0.0,0.0,0.0,0.0,0.0,0.0,0.0,0.0,0.0,0.0,0.0,0.0,0.0,0.0,0.0,0.0,0.0,0.0,0.0,0.0,0.0,0.0,0.0,0.0,0.0,0.0,0.0,0.0,0.0,0.0,0.0,0.0,0.0,0.0,0.0,0.0,0.0,0.0,0.0,0.0,0.0,0.0,0.0,0.0,0.0,0.0,0.0,0.0,0.0,0.0,0.0,0.0,0.0,0.0,0.0,0.0,0.0,0.0,0.0,0.0,0.0,0.0,0.0,0.0,0.0,0.0,0.0,0.0,0.0,0.0,0.0,0.0,0.0,0.0,0.0,0.0,0.0,0.0,0.0,0.0,0.0,0.0,0.0,0.0,0.0,0.0,0.0,0.0,0.0,0.0,0.0,0.0,0.0,0.0,0.0,0.0,0.0,0.0,0.0,0.0,0.0,0.0,0.0,0.0,0.0,0.0,0.0,0.0,0.0,0.0,0.0,0.0,0.0,0.0,0.0,0.0,0.0,0.0,0.0,0.0,0.0,0.0,0.0,0.0,0.0,0.0,0.0,0.0,0.0,0.0,0.0,0.0,0.0,0.0,0.0,0.0,0.0,0.0,0.0,0.0,0.0,0.0,0.0,0.0,0.0,0.0,0.0,0.0,0.0,0.0,0.0,0.0,0.0,0.0,0.0,0.0,0.0,0.0,0.0,0.0,0.0,0.0,0.0,0.0,0.0,0.0,0.0,0.0,0.0,0.0,0.0,0.0,0.0,0.0,0.0,0.0,0.0,0.0,0.0,0.0,0.0,0.0,0.0,0.0,0.0,0.0,0.0,0.0,0.0,0.0,0.0,0.0,0.0,0.0,0.0,0.0,0.0,0.0,0.0,0.0,0.0,0.0,0.0,0.0,0.0,0.0,0.0,0.0,0.0,0.0,0.0,0.0,0.0,0.0,0.0,0.0,0.0,0.0,0.0,0.0,0.0,0.0,0.0,0.0,0.0,0.0,0.0,0.0,0.0,0.0,0.0,0.0,0.0,0.0,0.0,0.0,0.0,0.0,0.0,0.0,0.0,0.0,0.0,0.0,0.0,0.0,0.0,0.0,0.0,0.0,0.0,0.0,0.0,0.0,0.0,0.0,0.0,0.0,0.0,0.0,0.0,0.0,0.0,0.0,0.0,0.0,0.0,0.0,0.0,0.0,0.0,0.0,0.0,0.0,0.0,0.0,0.0,0.0,0.0,0.0,0.0,0.0,0.0,0.0,0.0,0.0,0.0,0.0,0.0,0.0,0.0,0.0,0.0,0.0,0.0,0.0,0.0,0.0,0.0,0.0,0.0,0.0,0.0,0.0,0.0,0.0,0.0,0.0,0.0,0.0,0.0,0.0,0.0,0.0,0.0,0.0,0.0,0.0,0.0,0.0,0.0,0.0,0.0,0.0,0.0,0.0,0.0,0.0,0.0,0.0,0.0,0.0,0.0,0.0,0.0,0.0,0.0,0.0,0.0,0.0,0.0,0.0,0.0,0.0,0.0,0.0,0.0,0.0,0.0,0.0,0.0,0.0,0.0,0.0,0.0,0.0,0.0,0.0,0.0,0.0,0.0,0.0,0.0,0.0,0.0,0.0,0.0,0.0,0.0,0.0,0.0,0.0,0.0,0.0,0.0,0.0,0.0,0.0,0.0,0.0,0.0,0.0,0.0,0.0,0.0,0.0,0.0,0.0,0.0,0.0,0.0,0.0,0.0,0.0,0.0,0.0,0.0,0.0,0.0,0.0,0.0,0.0,0.0,0.0,0.0,0.0,0.0,0.0,0.0,0.0,0.0,0.0,0.0,0.0,0.0,0.0,0.0,0.0,0.0,0.0,0.0,0.0,0.0,0.0,0.0,0.0,0.0,0.0,0.0,0.0,0.0,0.0,0.0,0.0,0.0,0.0,0.0,0.0,0.0,0.0,0.0,0.0,0.0,0.0,0.0,0.0,0.0,0.0,0.0,0.0,0.0,0.0,0.0,0.0,0.0,0.0,0.0,0.0,0.0,0.0,0.0,0.0,0.0,0.0,0.0,0.0,0.0,0.0,0.0,0.0,0.0,0.0,0.0,0.0,0.0,0.0,0.0,0.0,0.0,0.0,0.0,0.0,0.0,0.0,0.0,0.0,0.0,0.0,0.0,0.0,0.0,0.0,0.0,0.0,0.0,0.0,0.0,0.0,0.0,0.0,0.0,0.0,0.0,0.0,0.0,0.0,0.0,0.0,0.0,0.0,0.0,0.0,0.0,0.0,0.0,0.0,0.0,0.0,0.0,0.0,0.0,0.0,0.0,0.0,0.0,0.0,0.0,0.0,0.0,0.0,0.0,0.0,0.0,0.0,0.0,0.0,0.0,0.0,0.0,0.0,0.0,0.0,0.0,0.0,0.0,0.0,0.0,0.0,0.0,0.0,0.0,0.0,0.0,0.0,0.0,0.0,0.0,0.0,0.0,0.0,0.0,0.0,0.0,0.0,0.0,0.0,0.0,0.0,0.0,0.0,0.0,0.0,0.0,0.0,0.0,0.0,0.0,0.0,0.0,0.0,0.0,0.0,0.0,0.0,0.0,0.0,0.0,0.0,0.0,0.0,0.0,0.0,0.0,0.0]}]]